<?xml version="1.0" encoding="UTF-8" standalone="no" ?>
<gpx xmlns="http://www.topografix.com/GPX/1/1" xmlns:xsi="http://www.w3.org/2001/XMLSchema-instance" xsi:schemaLocation="http://www.topografix.com/GPX/1/1 http://www.topografix.com/GPX/1/1/gpx.xsd" version="1.1" creator="VisuGPX - https://www.visugpx.com">
  <metadata>
    <name>Les Lavagnes - Roc de la Vigne - Baume de l\'Olivier - Ermitage</name>
    <desc><![CDATA[Un régal malgré un passage délicat aux abords des grottes ! Attention avec des enfants ! Une petite zone de \"bartassage\" après une remontée de ruisseau, sur la gauche on remonte vers le calvaire des 3 croix. ]]></desc>
  </metadata>
  <trk>
    <name><![CDATA[vigne_olivier]]></name>
    <trkseg>
      <trkpt lat="43.7731" lon="3.53482">
        <ele>587.417</ele>
        <time>2013-03-09T09:24:57Z</time>
      </trkpt>
      <trkpt lat="43.7731" lon="3.53482">
        <ele>586.175</ele>
        <time>2013-03-09T09:24:59Z</time>
      </trkpt>
      <trkpt lat="43.77309" lon="3.53493">
        <ele>580.466</ele>
        <time>2013-03-09T09:25:04Z</time>
      </trkpt>
      <trkpt lat="43.77309" lon="3.53493">
        <ele>576.004</ele>
        <time>2013-03-09T09:25:06Z</time>
      </trkpt>
      <trkpt lat="43.77309" lon="3.53493">
        <ele>571.248</ele>
        <time>2013-03-09T09:25:08Z</time>
      </trkpt>
      <trkpt lat="43.77309" lon="3.53493">
        <ele>566.026</ele>
        <time>2013-03-09T09:25:10Z</time>
      </trkpt>
      <trkpt lat="43.77309" lon="3.53493">
        <ele>565.909</ele>
        <time>2013-03-09T09:25:11Z</time>
      </trkpt>
      <trkpt lat="43.77309" lon="3.53493">
        <ele>561.122</ele>
        <time>2013-03-09T09:25:13Z</time>
      </trkpt>
      <trkpt lat="43.77309" lon="3.53493">
        <ele>558.954</ele>
        <time>2013-03-09T09:25:15Z</time>
      </trkpt>
      <trkpt lat="43.77308" lon="3.53493">
        <ele>555.872</ele>
        <time>2013-03-09T09:25:16Z</time>
      </trkpt>
      <trkpt lat="43.77308" lon="3.53494">
        <ele>552.283</ele>
        <time>2013-03-09T09:25:18Z</time>
      </trkpt>
      <trkpt lat="43.77309" lon="3.53494">
        <ele>549.251</ele>
        <time>2013-03-09T09:25:20Z</time>
      </trkpt>
      <trkpt lat="43.77308" lon="3.53493">
        <ele>546.168</ele>
        <time>2013-03-09T09:25:23Z</time>
      </trkpt>
      <trkpt lat="43.7731" lon="3.53493">
        <ele>541.66</ele>
        <time>2013-03-09T09:25:26Z</time>
      </trkpt>
      <trkpt lat="43.7731" lon="3.53493">
        <ele>540.064</ele>
        <time>2013-03-09T09:25:28Z</time>
      </trkpt>
      <trkpt lat="43.7731" lon="3.53492">
        <ele>538.133</ele>
        <time>2013-03-09T09:25:30Z</time>
      </trkpt>
      <trkpt lat="43.7731" lon="3.53491">
        <ele>534.753</ele>
        <time>2013-03-09T09:25:34Z</time>
      </trkpt>
      <trkpt lat="43.7731" lon="3.53491">
        <ele>532.603</ele>
        <time>2013-03-09T09:25:36Z</time>
      </trkpt>
      <trkpt lat="43.77309" lon="3.5349">
        <ele>529.172</ele>
        <time>2013-03-09T09:25:41Z</time>
      </trkpt>
      <trkpt lat="43.77309" lon="3.53491">
        <ele>526.903</ele>
        <time>2013-03-09T09:25:47Z</time>
      </trkpt>
      <trkpt lat="43.77309" lon="3.53492">
        <ele>523.873</ele>
        <time>2013-03-09T09:25:52Z</time>
      </trkpt>
      <trkpt lat="43.77309" lon="3.53494">
        <ele>523.15</ele>
        <time>2013-03-09T09:25:54Z</time>
      </trkpt>
      <trkpt lat="43.77308" lon="3.53506">
        <ele>519.565</ele>
        <time>2013-03-09T09:26:02Z</time>
      </trkpt>
      <trkpt lat="43.77306" lon="3.53511">
        <ele>518.422</ele>
        <time>2013-03-09T09:26:06Z</time>
      </trkpt>
      <trkpt lat="43.77301" lon="3.53524">
        <ele>515.037</ele>
        <time>2013-03-09T09:26:15Z</time>
      </trkpt>
      <trkpt lat="43.77301" lon="3.53525">
        <ele>514.805</ele>
        <time>2013-03-09T09:26:16Z</time>
      </trkpt>
      <trkpt lat="43.773" lon="3.53542">
        <ele>512.988</ele>
        <time>2013-03-09T09:26:27Z</time>
      </trkpt>
      <trkpt lat="43.77302" lon="3.53551">
        <ele>512.354</ele>
        <time>2013-03-09T09:26:34Z</time>
      </trkpt>
      <trkpt lat="43.77314" lon="3.5359">
        <ele>510.535</ele>
        <time>2013-03-09T09:27:00Z</time>
      </trkpt>
      <trkpt lat="43.77313" lon="3.53619">
        <ele>509.275</ele>
        <time>2013-03-09T09:27:19Z</time>
      </trkpt>
      <trkpt lat="43.77312" lon="3.53644">
        <ele>508.957</ele>
        <time>2013-03-09T09:27:35Z</time>
      </trkpt>
      <trkpt lat="43.77314" lon="3.53678">
        <ele>507.945</ele>
        <time>2013-03-09T09:27:56Z</time>
      </trkpt>
      <trkpt lat="43.77314" lon="3.53711">
        <ele>508.533</ele>
        <time>2013-03-09T09:28:15Z</time>
      </trkpt>
      <trkpt lat="43.77333" lon="3.53738">
        <ele>509.189</ele>
        <time>2013-03-09T09:28:36Z</time>
      </trkpt>
      <trkpt lat="43.77348" lon="3.53766">
        <ele>509.497</ele>
        <time>2013-03-09T09:28:56Z</time>
      </trkpt>
      <trkpt lat="43.77375" lon="3.53776">
        <ele>508.519</ele>
        <time>2013-03-09T09:29:19Z</time>
      </trkpt>
      <trkpt lat="43.77404" lon="3.53763">
        <ele>508.955</ele>
        <time>2013-03-09T09:29:42Z</time>
      </trkpt>
      <trkpt lat="43.77426" lon="3.53751">
        <ele>511.75</ele>
        <time>2013-03-09T09:30:01Z</time>
      </trkpt>
      <trkpt lat="43.77448" lon="3.53727">
        <ele>514.74</ele>
        <time>2013-03-09T09:30:23Z</time>
      </trkpt>
      <trkpt lat="43.77466" lon="3.53723">
        <ele>515.788</ele>
        <time>2013-03-09T09:30:38Z</time>
      </trkpt>
      <trkpt lat="43.77494" lon="3.53734">
        <ele>515.74</ele>
        <time>2013-03-09T09:31:00Z</time>
      </trkpt>
      <trkpt lat="43.7752" lon="3.53741">
        <ele>518.128</ele>
        <time>2013-03-09T09:31:20Z</time>
      </trkpt>
      <trkpt lat="43.7755" lon="3.53747">
        <ele>519.965</ele>
        <time>2013-03-09T09:31:44Z</time>
      </trkpt>
      <trkpt lat="43.77565" lon="3.53758">
        <ele>523.213</ele>
        <time>2013-03-09T09:31:58Z</time>
      </trkpt>
      <trkpt lat="43.77587" lon="3.53775">
        <ele>525.064</ele>
        <time>2013-03-09T09:32:18Z</time>
      </trkpt>
      <trkpt lat="43.7761" lon="3.53781">
        <ele>527.683</ele>
        <time>2013-03-09T09:32:37Z</time>
      </trkpt>
      <trkpt lat="43.77613" lon="3.53782">
        <ele>528.283</ele>
        <time>2013-03-09T09:32:40Z</time>
      </trkpt>
      <trkpt lat="43.7763" lon="3.53786">
        <ele>530.214</ele>
        <time>2013-03-09T09:32:54Z</time>
      </trkpt>
      <trkpt lat="43.77645" lon="3.5379">
        <ele>533.458</ele>
        <time>2013-03-09T09:33:06Z</time>
      </trkpt>
      <trkpt lat="43.77649" lon="3.53791">
        <ele>533.606</ele>
        <time>2013-03-09T09:33:10Z</time>
      </trkpt>
      <trkpt lat="43.77664" lon="3.53794">
        <ele>535.062</ele>
        <time>2013-03-09T09:33:22Z</time>
      </trkpt>
      <trkpt lat="43.77675" lon="3.5381">
        <ele>534.575</ele>
        <time>2013-03-09T09:33:35Z</time>
      </trkpt>
      <trkpt lat="43.7768" lon="3.53822">
        <ele>535.949</ele>
        <time>2013-03-09T09:33:43Z</time>
      </trkpt>
      <trkpt lat="43.77683" lon="3.53827">
        <ele>536.396</ele>
        <time>2013-03-09T09:33:47Z</time>
      </trkpt>
      <trkpt lat="43.77696" lon="3.53845">
        <ele>537.955</ele>
        <time>2013-03-09T09:34:03Z</time>
      </trkpt>
      <trkpt lat="43.77711" lon="3.53878">
        <ele>539.639</ele>
        <time>2013-03-09T09:34:26Z</time>
      </trkpt>
      <trkpt lat="43.77725" lon="3.53902">
        <ele>542.372</ele>
        <time>2013-03-09T09:34:44Z</time>
      </trkpt>
      <trkpt lat="43.77735" lon="3.53923">
        <ele>545.583</ele>
        <time>2013-03-09T09:34:58Z</time>
      </trkpt>
      <trkpt lat="43.77747" lon="3.53951">
        <ele>547.43</ele>
        <time>2013-03-09T09:35:16Z</time>
      </trkpt>
      <trkpt lat="43.7776" lon="3.53953">
        <ele>550.724</ele>
        <time>2013-03-09T09:35:26Z</time>
      </trkpt>
      <trkpt lat="43.77765" lon="3.53963">
        <ele>552.037</ele>
        <time>2013-03-09T09:35:34Z</time>
      </trkpt>
      <trkpt lat="43.77773" lon="3.53978">
        <ele>553.41</ele>
        <time>2013-03-09T09:35:45Z</time>
      </trkpt>
      <trkpt lat="43.77788" lon="3.54008">
        <ele>555.124</ele>
        <time>2013-03-09T09:36:06Z</time>
      </trkpt>
      <trkpt lat="43.77801" lon="3.54047">
        <ele>556.967</ele>
        <time>2013-03-09T09:36:31Z</time>
      </trkpt>
      <trkpt lat="43.77812" lon="3.54078">
        <ele>560.249</ele>
        <time>2013-03-09T09:36:51Z</time>
      </trkpt>
      <trkpt lat="43.77822" lon="3.54108">
        <ele>560.802</ele>
        <time>2013-03-09T09:37:11Z</time>
      </trkpt>
      <trkpt lat="43.77826" lon="3.54115">
        <ele>561.528</ele>
        <time>2013-03-09T09:37:16Z</time>
      </trkpt>
      <trkpt lat="43.77839" lon="3.54141">
        <ele>562.013</ele>
        <time>2013-03-09T09:37:34Z</time>
      </trkpt>
      <trkpt lat="43.77846" lon="3.54174">
        <ele>564.084</ele>
        <time>2013-03-09T09:37:53Z</time>
      </trkpt>
      <trkpt lat="43.77848" lon="3.54202">
        <ele>567.454</ele>
        <time>2013-03-09T09:38:09Z</time>
      </trkpt>
      <trkpt lat="43.77847" lon="3.54233">
        <ele>568.36</ele>
        <time>2013-03-09T09:38:27Z</time>
      </trkpt>
      <trkpt lat="43.77847" lon="3.54239">
        <ele>568.057</ele>
        <time>2013-03-09T09:38:31Z</time>
      </trkpt>
      <trkpt lat="43.77851" lon="3.54282">
        <ele>569.089</ele>
        <time>2013-03-09T09:38:55Z</time>
      </trkpt>
      <trkpt lat="43.77854" lon="3.54296">
        <ele>570.522</ele>
        <time>2013-03-09T09:39:05Z</time>
      </trkpt>
      <trkpt lat="43.77855" lon="3.54302">
        <ele>570.953</ele>
        <time>2013-03-09T09:39:10Z</time>
      </trkpt>
      <trkpt lat="43.77872" lon="3.54344">
        <ele>571.303</ele>
        <time>2013-03-09T09:39:37Z</time>
      </trkpt>
      <trkpt lat="43.77879" lon="3.54382">
        <ele>572.592</ele>
        <time>2013-03-09T09:39:59Z</time>
      </trkpt>
      <trkpt lat="43.77888" lon="3.54415">
        <ele>573.077</ele>
        <time>2013-03-09T09:40:18Z</time>
      </trkpt>
      <trkpt lat="43.77889" lon="3.54418">
        <ele>572.194</ele>
        <time>2013-03-09T09:40:36Z</time>
      </trkpt>
      <trkpt lat="43.77891" lon="3.54423">
        <ele>572.526</ele>
        <time>2013-03-09T09:41:24Z</time>
      </trkpt>
      <trkpt lat="43.77895" lon="3.54461">
        <ele>574.143</ele>
        <time>2013-03-09T09:41:37Z</time>
      </trkpt>
      <trkpt lat="43.77888" lon="3.54495">
        <ele>577.253</ele>
        <time>2013-03-09T09:41:46Z</time>
      </trkpt>
      <trkpt lat="43.77886" lon="3.54525">
        <ele>578.62</ele>
        <time>2013-03-09T09:42:04Z</time>
      </trkpt>
      <trkpt lat="43.77897" lon="3.54547">
        <ele>578.703</ele>
        <time>2013-03-09T09:42:23Z</time>
      </trkpt>
      <trkpt lat="43.77916" lon="3.54579">
        <ele>576.935</ele>
        <time>2013-03-09T09:42:47Z</time>
      </trkpt>
      <trkpt lat="43.77929" lon="3.54611">
        <ele>576.846</ele>
        <time>2013-03-09T09:43:07Z</time>
      </trkpt>
      <trkpt lat="43.77927" lon="3.54654">
        <ele>576.279</ele>
        <time>2013-03-09T09:43:30Z</time>
      </trkpt>
      <trkpt lat="43.77916" lon="3.54686">
        <ele>576.157</ele>
        <time>2013-03-09T09:43:50Z</time>
      </trkpt>
      <trkpt lat="43.77905" lon="3.54721">
        <ele>575.517</ele>
        <time>2013-03-09T09:44:11Z</time>
      </trkpt>
      <trkpt lat="43.77906" lon="3.54755">
        <ele>574.563</ele>
        <time>2013-03-09T09:44:30Z</time>
      </trkpt>
      <trkpt lat="43.7792" lon="3.54783">
        <ele>573.083</ele>
        <time>2013-03-09T09:44:50Z</time>
      </trkpt>
      <trkpt lat="43.77934" lon="3.54806">
        <ele>572.827</ele>
        <time>2013-03-09T09:45:07Z</time>
      </trkpt>
      <trkpt lat="43.7795" lon="3.5484">
        <ele>574.636</ele>
        <time>2013-03-09T09:45:29Z</time>
      </trkpt>
      <trkpt lat="43.7796" lon="3.54873">
        <ele>575.712</ele>
        <time>2013-03-09T09:45:48Z</time>
      </trkpt>
      <trkpt lat="43.77975" lon="3.54904">
        <ele>575.63</ele>
        <time>2013-03-09T09:46:08Z</time>
      </trkpt>
      <trkpt lat="43.77997" lon="3.54948">
        <ele>577.773</ele>
        <time>2013-03-09T09:46:37Z</time>
      </trkpt>
      <trkpt lat="43.78015" lon="3.54985">
        <ele>579.938</ele>
        <time>2013-03-09T09:47:02Z</time>
      </trkpt>
      <trkpt lat="43.78033" lon="3.55015">
        <ele>582.128</ele>
        <time>2013-03-09T09:47:25Z</time>
      </trkpt>
      <trkpt lat="43.78053" lon="3.55039">
        <ele>583.09</ele>
        <time>2013-03-09T09:47:46Z</time>
      </trkpt>
      <trkpt lat="43.7807" lon="3.55058">
        <ele>583.319</ele>
        <time>2013-03-09T09:48:03Z</time>
      </trkpt>
      <trkpt lat="43.78074" lon="3.55061">
        <ele>583.01</ele>
        <time>2013-03-09T09:48:07Z</time>
      </trkpt>
      <trkpt lat="43.78097" lon="3.5509">
        <ele>582.901</ele>
        <time>2013-03-09T09:48:30Z</time>
      </trkpt>
      <trkpt lat="43.78106" lon="3.55129">
        <ele>582.134</ele>
        <time>2013-03-09T09:48:51Z</time>
      </trkpt>
      <trkpt lat="43.7811" lon="3.55174">
        <ele>582.325</ele>
        <time>2013-03-09T09:49:14Z</time>
      </trkpt>
      <trkpt lat="43.78105" lon="3.55218">
        <ele>580.509</ele>
        <time>2013-03-09T09:49:37Z</time>
      </trkpt>
      <trkpt lat="43.78085" lon="3.55241">
        <ele>580.044</ele>
        <time>2013-03-09T09:49:57Z</time>
      </trkpt>
      <trkpt lat="43.78062" lon="3.55272">
        <ele>579.799</ele>
        <time>2013-03-09T09:50:21Z</time>
      </trkpt>
      <trkpt lat="43.78055" lon="3.55281">
        <ele>576.464</ele>
        <time>2013-03-09T09:50:28Z</time>
      </trkpt>
      <trkpt lat="43.78042" lon="3.55315">
        <ele>576.366</ele>
        <time>2013-03-09T09:50:49Z</time>
      </trkpt>
      <trkpt lat="43.78035" lon="3.55352">
        <ele>577.071</ele>
        <time>2013-03-09T09:51:10Z</time>
      </trkpt>
      <trkpt lat="43.78022" lon="3.55392">
        <ele>580.283</ele>
        <time>2013-03-09T09:51:33Z</time>
      </trkpt>
      <trkpt lat="43.78006" lon="3.55439">
        <ele>579.952</ele>
        <time>2013-03-09T09:52:00Z</time>
      </trkpt>
      <trkpt lat="43.77998" lon="3.55462">
        <ele>580.25</ele>
        <time>2013-03-09T09:52:13Z</time>
      </trkpt>
      <trkpt lat="43.77981" lon="3.5546">
        <ele>581.646</ele>
        <time>2013-03-09T09:52:27Z</time>
      </trkpt>
      <trkpt lat="43.7796" lon="3.55452">
        <ele>582.925</ele>
        <time>2013-03-09T09:52:45Z</time>
      </trkpt>
      <trkpt lat="43.77949" lon="3.55443">
        <ele>586.262</ele>
        <time>2013-03-09T09:52:56Z</time>
      </trkpt>
      <trkpt lat="43.77947" lon="3.55439">
        <ele>586.761</ele>
        <time>2013-03-09T09:52:59Z</time>
      </trkpt>
      <trkpt lat="43.7794" lon="3.55425">
        <ele>586.947</ele>
        <time>2013-03-09T09:53:12Z</time>
      </trkpt>
      <trkpt lat="43.77939" lon="3.55422">
        <ele>586.936</ele>
        <time>2013-03-09T09:53:23Z</time>
      </trkpt>
      <trkpt lat="43.77936" lon="3.55417">
        <ele>587.611</ele>
        <time>2013-03-09T09:53:34Z</time>
      </trkpt>
      <trkpt lat="43.7792" lon="3.55387">
        <ele>588.833</ele>
        <time>2013-03-09T09:53:56Z</time>
      </trkpt>
      <trkpt lat="43.77904" lon="3.55357">
        <ele>589.281</ele>
        <time>2013-03-09T09:54:17Z</time>
      </trkpt>
      <trkpt lat="43.77887" lon="3.55335">
        <ele>591.645</ele>
        <time>2013-03-09T09:54:37Z</time>
      </trkpt>
      <trkpt lat="43.77863" lon="3.55318">
        <ele>593.309</ele>
        <time>2013-03-09T09:54:58Z</time>
      </trkpt>
      <trkpt lat="43.77849" lon="3.553">
        <ele>596.467</ele>
        <time>2013-03-09T09:55:13Z</time>
      </trkpt>
      <trkpt lat="43.77828" lon="3.55283">
        <ele>598.284</ele>
        <time>2013-03-09T09:55:34Z</time>
      </trkpt>
      <trkpt lat="43.77823" lon="3.55288">
        <ele>599.426</ele>
        <time>2013-03-09T09:55:46Z</time>
      </trkpt>
      <trkpt lat="43.77822" lon="3.55289">
        <ele>598.067</ele>
        <time>2013-03-09T09:55:47Z</time>
      </trkpt>
      <trkpt lat="43.77819" lon="3.55309">
        <ele>601.786</ele>
        <time>2013-03-09T09:56:00Z</time>
      </trkpt>
      <trkpt lat="43.77812" lon="3.55345">
        <ele>600.724</ele>
        <time>2013-03-09T09:56:20Z</time>
      </trkpt>
      <trkpt lat="43.77792" lon="3.55371">
        <ele>602.633</ele>
        <time>2013-03-09T09:56:40Z</time>
      </trkpt>
      <trkpt lat="43.77778" lon="3.55375">
        <ele>602.331</ele>
        <time>2013-03-09T09:56:51Z</time>
      </trkpt>
      <trkpt lat="43.77745" lon="3.55389">
        <ele>603.381</ele>
        <time>2013-03-09T09:57:16Z</time>
      </trkpt>
      <trkpt lat="43.77708" lon="3.55395">
        <ele>604.427</ele>
        <time>2013-03-09T09:57:43Z</time>
      </trkpt>
      <trkpt lat="43.77672" lon="3.55409">
        <ele>602.568</ele>
        <time>2013-03-09T09:58:10Z</time>
      </trkpt>
      <trkpt lat="43.77652" lon="3.55431">
        <ele>602.286</ele>
        <time>2013-03-09T09:58:28Z</time>
      </trkpt>
      <trkpt lat="43.77634" lon="3.55461">
        <ele>602.343</ele>
        <time>2013-03-09T09:58:48Z</time>
      </trkpt>
      <trkpt lat="43.77633" lon="3.55462">
        <ele>602.198</ele>
        <time>2013-03-09T09:58:49Z</time>
      </trkpt>
      <trkpt lat="43.77616" lon="3.55489">
        <ele>603.251</ele>
        <time>2013-03-09T09:59:08Z</time>
      </trkpt>
      <trkpt lat="43.77614" lon="3.55492">
        <ele>603.517</ele>
        <time>2013-03-09T09:59:11Z</time>
      </trkpt>
      <trkpt lat="43.77591" lon="3.55505">
        <ele>602.695</ele>
        <time>2013-03-09T09:59:29Z</time>
      </trkpt>
      <trkpt lat="43.7756" lon="3.55526">
        <ele>601.677</ele>
        <time>2013-03-09T09:59:55Z</time>
      </trkpt>
      <trkpt lat="43.77558" lon="3.55533">
        <ele>599.639</ele>
        <time>2013-03-09T10:00:06Z</time>
      </trkpt>
      <trkpt lat="43.77557" lon="3.55532">
        <ele>599.86</ele>
        <time>2013-03-09T10:00:26Z</time>
      </trkpt>
      <trkpt lat="43.77557" lon="3.55533">
        <ele>600.159</ele>
        <time>2013-03-09T10:00:45Z</time>
      </trkpt>
      <trkpt lat="43.77557" lon="3.55533">
        <ele>599.698</ele>
        <time>2013-03-09T10:01:05Z</time>
      </trkpt>
      <trkpt lat="43.77557" lon="3.55534">
        <ele>600.428</ele>
        <time>2013-03-09T10:01:25Z</time>
      </trkpt>
      <trkpt lat="43.77554" lon="3.55533">
        <ele>600.654</ele>
        <time>2013-03-09T10:01:54Z</time>
      </trkpt>
      <trkpt lat="43.77553" lon="3.55531">
        <ele>600.748</ele>
        <time>2013-03-09T10:02:06Z</time>
      </trkpt>
      <trkpt lat="43.77551" lon="3.5553">
        <ele>601.112</ele>
        <time>2013-03-09T10:02:19Z</time>
      </trkpt>
      <trkpt lat="43.7755" lon="3.55528">
        <ele>601.539</ele>
        <time>2013-03-09T10:02:21Z</time>
      </trkpt>
      <trkpt lat="43.77545" lon="3.55522">
        <ele>600.43</ele>
        <time>2013-03-09T10:02:40Z</time>
      </trkpt>
      <trkpt lat="43.77539" lon="3.55513">
        <ele>599.171</ele>
        <time>2013-03-09T10:02:48Z</time>
      </trkpt>
      <trkpt lat="43.77536" lon="3.55509">
        <ele>598.589</ele>
        <time>2013-03-09T10:02:52Z</time>
      </trkpt>
      <trkpt lat="43.77518" lon="3.55483">
        <ele>598.41</ele>
        <time>2013-03-09T10:03:12Z</time>
      </trkpt>
      <trkpt lat="43.77493" lon="3.5545">
        <ele>597.793</ele>
        <time>2013-03-09T10:03:35Z</time>
      </trkpt>
      <trkpt lat="43.77487" lon="3.5544">
        <ele>598.325</ele>
        <time>2013-03-09T10:03:42Z</time>
      </trkpt>
      <trkpt lat="43.7747" lon="3.5541">
        <ele>598.997</ele>
        <time>2013-03-09T10:04:03Z</time>
      </trkpt>
      <trkpt lat="43.77452" lon="3.55381">
        <ele>599.83</ele>
        <time>2013-03-09T10:04:25Z</time>
      </trkpt>
      <trkpt lat="43.77435" lon="3.55354">
        <ele>601.154</ele>
        <time>2013-03-09T10:04:45Z</time>
      </trkpt>
      <trkpt lat="43.77418" lon="3.55327">
        <ele>602.497</ele>
        <time>2013-03-09T10:05:05Z</time>
      </trkpt>
      <trkpt lat="43.77403" lon="3.5529">
        <ele>601.308</ele>
        <time>2013-03-09T10:05:28Z</time>
      </trkpt>
      <trkpt lat="43.7739" lon="3.5527">
        <ele>601.28</ele>
        <time>2013-03-09T10:05:43Z</time>
      </trkpt>
      <trkpt lat="43.77366" lon="3.55235">
        <ele>601.855</ele>
        <time>2013-03-09T10:06:09Z</time>
      </trkpt>
      <trkpt lat="43.77343" lon="3.55209">
        <ele>600.727</ele>
        <time>2013-03-09T10:06:31Z</time>
      </trkpt>
      <trkpt lat="43.77338" lon="3.55208">
        <ele>601.051</ele>
        <time>2013-03-09T10:06:35Z</time>
      </trkpt>
      <trkpt lat="43.77334" lon="3.55215">
        <ele>600.595</ele>
        <time>2013-03-09T10:06:41Z</time>
      </trkpt>
      <trkpt lat="43.77319" lon="3.55242">
        <ele>596.467</ele>
        <time>2013-03-09T10:07:00Z</time>
      </trkpt>
      <trkpt lat="43.77297" lon="3.55266">
        <ele>593.108</ele>
        <time>2013-03-09T10:07:21Z</time>
      </trkpt>
      <trkpt lat="43.77272" lon="3.55293">
        <ele>591.367</ele>
        <time>2013-03-09T10:07:44Z</time>
      </trkpt>
      <trkpt lat="43.7725" lon="3.55315">
        <ele>589.741</ele>
        <time>2013-03-09T10:08:04Z</time>
      </trkpt>
      <trkpt lat="43.77228" lon="3.55338">
        <ele>588.87</ele>
        <time>2013-03-09T10:08:24Z</time>
      </trkpt>
      <trkpt lat="43.77206" lon="3.55364">
        <ele>588.426</ele>
        <time>2013-03-09T10:08:46Z</time>
      </trkpt>
      <trkpt lat="43.77186" lon="3.55381">
        <ele>587.638</ele>
        <time>2013-03-09T10:09:05Z</time>
      </trkpt>
      <trkpt lat="43.7716" lon="3.55397">
        <ele>587.533</ele>
        <time>2013-03-09T10:09:27Z</time>
      </trkpt>
      <trkpt lat="43.77138" lon="3.55426">
        <ele>587.671</ele>
        <time>2013-03-09T10:09:49Z</time>
      </trkpt>
      <trkpt lat="43.77119" lon="3.55449">
        <ele>588.493</ele>
        <time>2013-03-09T10:10:08Z</time>
      </trkpt>
      <trkpt lat="43.77105" lon="3.55475">
        <ele>589.158</ele>
        <time>2013-03-09T10:10:27Z</time>
      </trkpt>
      <trkpt lat="43.77094" lon="3.55496">
        <ele>588.983</ele>
        <time>2013-03-09T10:10:42Z</time>
      </trkpt>
      <trkpt lat="43.77091" lon="3.55504">
        <ele>589.33</ele>
        <time>2013-03-09T10:10:56Z</time>
      </trkpt>
      <trkpt lat="43.77084" lon="3.55515">
        <ele>588.756</ele>
        <time>2013-03-09T10:11:17Z</time>
      </trkpt>
      <trkpt lat="43.77068" lon="3.55528">
        <ele>590.231</ele>
        <time>2013-03-09T10:11:34Z</time>
      </trkpt>
      <trkpt lat="43.77065" lon="3.55528">
        <ele>590.942</ele>
        <time>2013-03-09T10:11:59Z</time>
      </trkpt>
      <trkpt lat="43.77062" lon="3.55527">
        <ele>590.848</ele>
        <time>2013-03-09T10:12:02Z</time>
      </trkpt>
      <trkpt lat="43.77042" lon="3.55517">
        <ele>592.484</ele>
        <time>2013-03-09T10:12:21Z</time>
      </trkpt>
      <trkpt lat="43.77027" lon="3.55508">
        <ele>595.636</ele>
        <time>2013-03-09T10:12:37Z</time>
      </trkpt>
      <trkpt lat="43.77014" lon="3.55494">
        <ele>598.787</ele>
        <time>2013-03-09T10:12:52Z</time>
      </trkpt>
      <trkpt lat="43.76998" lon="3.55474">
        <ele>599.556</ele>
        <time>2013-03-09T10:13:11Z</time>
      </trkpt>
      <trkpt lat="43.7698" lon="3.55473">
        <ele>600.721</ele>
        <time>2013-03-09T10:13:26Z</time>
      </trkpt>
      <trkpt lat="43.76975" lon="3.55475">
        <ele>601.838</ele>
        <time>2013-03-09T10:13:30Z</time>
      </trkpt>
      <trkpt lat="43.76968" lon="3.55476">
        <ele>602.837</ele>
        <time>2013-03-09T10:13:38Z</time>
      </trkpt>
      <trkpt lat="43.76955" lon="3.55486">
        <ele>604.642</ele>
        <time>2013-03-09T10:13:53Z</time>
      </trkpt>
      <trkpt lat="43.76948" lon="3.5551">
        <ele>605.336</ele>
        <time>2013-03-09T10:14:11Z</time>
      </trkpt>
      <trkpt lat="43.76946" lon="3.55523">
        <ele>608.848</ele>
        <time>2013-03-09T10:14:21Z</time>
      </trkpt>
      <trkpt lat="43.76946" lon="3.55542">
        <ele>609.91</ele>
        <time>2013-03-09T10:14:35Z</time>
      </trkpt>
      <trkpt lat="43.76941" lon="3.55565">
        <ele>610.951</ele>
        <time>2013-03-09T10:14:53Z</time>
      </trkpt>
      <trkpt lat="43.76928" lon="3.55576">
        <ele>612.054</ele>
        <time>2013-03-09T10:15:09Z</time>
      </trkpt>
      <trkpt lat="43.76916" lon="3.55567">
        <ele>613.473</ele>
        <time>2013-03-09T10:15:21Z</time>
      </trkpt>
      <trkpt lat="43.76906" lon="3.55552">
        <ele>616.509</ele>
        <time>2013-03-09T10:15:34Z</time>
      </trkpt>
      <trkpt lat="43.76896" lon="3.55527">
        <ele>617.728</ele>
        <time>2013-03-09T10:15:53Z</time>
      </trkpt>
      <trkpt lat="43.76889" lon="3.5554">
        <ele>619.796</ele>
        <time>2013-03-09T10:16:08Z</time>
      </trkpt>
      <trkpt lat="43.76892" lon="3.55566">
        <ele>620.925</ele>
        <time>2013-03-09T10:16:27Z</time>
      </trkpt>
      <trkpt lat="43.76897" lon="3.55586">
        <ele>622.633</ele>
        <time>2013-03-09T10:16:43Z</time>
      </trkpt>
      <trkpt lat="43.76906" lon="3.55603">
        <ele>624.705</ele>
        <time>2013-03-09T10:17:00Z</time>
      </trkpt>
      <trkpt lat="43.7691" lon="3.55627">
        <ele>627.263</ele>
        <time>2013-03-09T10:17:18Z</time>
      </trkpt>
      <trkpt lat="43.7692" lon="3.5564">
        <ele>630.521</ele>
        <time>2013-03-09T10:17:33Z</time>
      </trkpt>
      <trkpt lat="43.76931" lon="3.55649">
        <ele>632.833</ele>
        <time>2013-03-09T10:17:52Z</time>
      </trkpt>
      <trkpt lat="43.76921" lon="3.55658">
        <ele>634.229</ele>
        <time>2013-03-09T10:18:10Z</time>
      </trkpt>
      <trkpt lat="43.76906" lon="3.55656">
        <ele>637.195</ele>
        <time>2013-03-09T10:18:29Z</time>
      </trkpt>
      <trkpt lat="43.76893" lon="3.55652">
        <ele>641.679</ele>
        <time>2013-03-09T10:18:40Z</time>
      </trkpt>
      <trkpt lat="43.76893" lon="3.55652">
        <ele>641.17</ele>
        <time>2013-03-09T10:18:41Z</time>
      </trkpt>
      <trkpt lat="43.76889" lon="3.55656">
        <ele>643.362</ele>
        <time>2013-03-09T10:18:48Z</time>
      </trkpt>
      <trkpt lat="43.76888" lon="3.55657">
        <ele>643.371</ele>
        <time>2013-03-09T10:18:52Z</time>
      </trkpt>
      <trkpt lat="43.76886" lon="3.55675">
        <ele>644.339</ele>
        <time>2013-03-09T10:19:04Z</time>
      </trkpt>
      <trkpt lat="43.76893" lon="3.55699">
        <ele>646.025</ele>
        <time>2013-03-09T10:19:22Z</time>
      </trkpt>
      <trkpt lat="43.76899" lon="3.55726">
        <ele>646.777</ele>
        <time>2013-03-09T10:19:41Z</time>
      </trkpt>
      <trkpt lat="43.76899" lon="3.55731">
        <ele>647.018</ele>
        <time>2013-03-09T10:19:46Z</time>
      </trkpt>
      <trkpt lat="43.769" lon="3.55745">
        <ele>647.682</ele>
        <time>2013-03-09T10:19:58Z</time>
      </trkpt>
      <trkpt lat="43.76901" lon="3.55746">
        <ele>647.546</ele>
        <time>2013-03-09T10:19:59Z</time>
      </trkpt>
      <trkpt lat="43.769" lon="3.55759">
        <ele>649.733</ele>
        <time>2013-03-09T10:20:09Z</time>
      </trkpt>
      <trkpt lat="43.76895" lon="3.55769">
        <ele>650.182</ele>
        <time>2013-03-09T10:20:19Z</time>
      </trkpt>
      <trkpt lat="43.76895" lon="3.55778">
        <ele>650.784</ele>
        <time>2013-03-09T10:20:26Z</time>
      </trkpt>
      <trkpt lat="43.76893" lon="3.55788">
        <ele>650.439</ele>
        <time>2013-03-09T10:20:33Z</time>
      </trkpt>
      <trkpt lat="43.76892" lon="3.5579">
        <ele>651.216</ele>
        <time>2013-03-09T10:20:35Z</time>
      </trkpt>
      <trkpt lat="43.7689" lon="3.55801">
        <ele>652.089</ele>
        <time>2013-03-09T10:20:43Z</time>
      </trkpt>
      <trkpt lat="43.76883" lon="3.55823">
        <ele>653.639</ele>
        <time>2013-03-09T10:21:00Z</time>
      </trkpt>
      <trkpt lat="43.76879" lon="3.55836">
        <ele>653.729</ele>
        <time>2013-03-09T10:21:14Z</time>
      </trkpt>
      <trkpt lat="43.76877" lon="3.5584">
        <ele>653.288</ele>
        <time>2013-03-09T10:21:30Z</time>
      </trkpt>
      <trkpt lat="43.76875" lon="3.55856">
        <ele>653.709</ele>
        <time>2013-03-09T10:21:45Z</time>
      </trkpt>
      <trkpt lat="43.76871" lon="3.55876">
        <ele>653.642</ele>
        <time>2013-03-09T10:22:00Z</time>
      </trkpt>
      <trkpt lat="43.76867" lon="3.55888">
        <ele>653.631</ele>
        <time>2013-03-09T10:22:09Z</time>
      </trkpt>
      <trkpt lat="43.76863" lon="3.55895">
        <ele>653.873</ele>
        <time>2013-03-09T10:22:15Z</time>
      </trkpt>
      <trkpt lat="43.76851" lon="3.55915">
        <ele>653.942</ele>
        <time>2013-03-09T10:22:31Z</time>
      </trkpt>
      <trkpt lat="43.76848" lon="3.55923">
        <ele>653.889</ele>
        <time>2013-03-09T10:22:37Z</time>
      </trkpt>
      <trkpt lat="43.76836" lon="3.5594">
        <ele>653.879</ele>
        <time>2013-03-09T10:22:49Z</time>
      </trkpt>
      <trkpt lat="43.76835" lon="3.55965">
        <ele>653.091</ele>
        <time>2013-03-09T10:23:04Z</time>
      </trkpt>
      <trkpt lat="43.76834" lon="3.55995">
        <ele>653.401</ele>
        <time>2013-03-09T10:23:22Z</time>
      </trkpt>
      <trkpt lat="43.76836" lon="3.56009">
        <ele>654.201</ele>
        <time>2013-03-09T10:23:38Z</time>
      </trkpt>
      <trkpt lat="43.76834" lon="3.56015">
        <ele>654.652</ele>
        <time>2013-03-09T10:23:49Z</time>
      </trkpt>
      <trkpt lat="43.76833" lon="3.56017">
        <ele>653.658</ele>
        <time>2013-03-09T10:24:14Z</time>
      </trkpt>
      <trkpt lat="43.76834" lon="3.56018">
        <ele>654.918</ele>
        <time>2013-03-09T10:24:22Z</time>
      </trkpt>
      <trkpt lat="43.76834" lon="3.56022">
        <ele>655.489</ele>
        <time>2013-03-09T10:24:27Z</time>
      </trkpt>
      <trkpt lat="43.76833" lon="3.56045">
        <ele>657.139</ele>
        <time>2013-03-09T10:24:43Z</time>
      </trkpt>
      <trkpt lat="43.76833" lon="3.56057">
        <ele>658.271</ele>
        <time>2013-03-09T10:24:51Z</time>
      </trkpt>
      <trkpt lat="43.7683" lon="3.56068">
        <ele>661.679</ele>
        <time>2013-03-09T10:25:00Z</time>
      </trkpt>
      <trkpt lat="43.76831" lon="3.56069">
        <ele>662.037</ele>
        <time>2013-03-09T10:25:01Z</time>
      </trkpt>
      <trkpt lat="43.7683" lon="3.56085">
        <ele>662.941</ele>
        <time>2013-03-09T10:25:13Z</time>
      </trkpt>
      <trkpt lat="43.76822" lon="3.5609">
        <ele>665.294</ele>
        <time>2013-03-09T10:25:24Z</time>
      </trkpt>
      <trkpt lat="43.76819" lon="3.5609">
        <ele>666.185</ele>
        <time>2013-03-09T10:25:26Z</time>
      </trkpt>
      <trkpt lat="43.7681" lon="3.56095">
        <ele>669.363</ele>
        <time>2013-03-09T10:25:35Z</time>
      </trkpt>
      <trkpt lat="43.76809" lon="3.56096">
        <ele>668.868</ele>
        <time>2013-03-09T10:25:36Z</time>
      </trkpt>
      <trkpt lat="43.76802" lon="3.56104">
        <ele>671.385</ele>
        <time>2013-03-09T10:25:50Z</time>
      </trkpt>
      <trkpt lat="43.76795" lon="3.56105">
        <ele>672.596</ele>
        <time>2013-03-09T10:26:03Z</time>
      </trkpt>
      <trkpt lat="43.76786" lon="3.56115">
        <ele>675.563</ele>
        <time>2013-03-09T10:26:18Z</time>
      </trkpt>
      <trkpt lat="43.76782" lon="3.5612">
        <ele>677.836</ele>
        <time>2013-03-09T10:26:25Z</time>
      </trkpt>
      <trkpt lat="43.76778" lon="3.56127">
        <ele>678.569</ele>
        <time>2013-03-09T10:26:34Z</time>
      </trkpt>
      <trkpt lat="43.76775" lon="3.56132">
        <ele>678.755</ele>
        <time>2013-03-09T10:26:39Z</time>
      </trkpt>
      <trkpt lat="43.76769" lon="3.56141">
        <ele>680.258</ele>
        <time>2013-03-09T10:26:55Z</time>
      </trkpt>
      <trkpt lat="43.76769" lon="3.56142">
        <ele>679.863</ele>
        <time>2013-03-09T10:27:09Z</time>
      </trkpt>
      <trkpt lat="43.76769" lon="3.56143">
        <ele>680.782</ele>
        <time>2013-03-09T10:27:13Z</time>
      </trkpt>
      <trkpt lat="43.76772" lon="3.56156">
        <ele>684.269</ele>
        <time>2013-03-09T10:27:27Z</time>
      </trkpt>
      <trkpt lat="43.76771" lon="3.56166">
        <ele>686.744</ele>
        <time>2013-03-09T10:27:36Z</time>
      </trkpt>
      <trkpt lat="43.76773" lon="3.56169">
        <ele>687.119</ele>
        <time>2013-03-09T10:27:39Z</time>
      </trkpt>
      <trkpt lat="43.76773" lon="3.56177">
        <ele>687.484</ele>
        <time>2013-03-09T10:27:52Z</time>
      </trkpt>
      <trkpt lat="43.76771" lon="3.5619">
        <ele>691.385</ele>
        <time>2013-03-09T10:28:05Z</time>
      </trkpt>
      <trkpt lat="43.76771" lon="3.56191">
        <ele>691.376</ele>
        <time>2013-03-09T10:28:06Z</time>
      </trkpt>
      <trkpt lat="43.76772" lon="3.56196">
        <ele>692.288</ele>
        <time>2013-03-09T10:28:11Z</time>
      </trkpt>
      <trkpt lat="43.76769" lon="3.56205">
        <ele>693.997</ele>
        <time>2013-03-09T10:28:24Z</time>
      </trkpt>
      <trkpt lat="43.76769" lon="3.5621">
        <ele>695.845</ele>
        <time>2013-03-09T10:28:30Z</time>
      </trkpt>
      <trkpt lat="43.76766" lon="3.56218">
        <ele>699.181</ele>
        <time>2013-03-09T10:28:43Z</time>
      </trkpt>
      <trkpt lat="43.76766" lon="3.56218">
        <ele>698.673</ele>
        <time>2013-03-09T10:28:44Z</time>
      </trkpt>
      <trkpt lat="43.76766" lon="3.56226">
        <ele>701.767</ele>
        <time>2013-03-09T10:28:57Z</time>
      </trkpt>
      <trkpt lat="43.76767" lon="3.56238">
        <ele>704.543</ele>
        <time>2013-03-09T10:29:12Z</time>
      </trkpt>
      <trkpt lat="43.76767" lon="3.5624">
        <ele>705.48</ele>
        <time>2013-03-09T10:29:14Z</time>
      </trkpt>
      <trkpt lat="43.7677" lon="3.5625">
        <ele>708.878</ele>
        <time>2013-03-09T10:29:26Z</time>
      </trkpt>
      <trkpt lat="43.7677" lon="3.5625">
        <ele>708.942</ele>
        <time>2013-03-09T10:29:27Z</time>
      </trkpt>
      <trkpt lat="43.76775" lon="3.56262">
        <ele>711.878</ele>
        <time>2013-03-09T10:29:42Z</time>
      </trkpt>
      <trkpt lat="43.76778" lon="3.56267">
        <ele>713.24</ele>
        <time>2013-03-09T10:29:54Z</time>
      </trkpt>
      <trkpt lat="43.76785" lon="3.56271">
        <ele>714.839</ele>
        <time>2013-03-09T10:30:09Z</time>
      </trkpt>
      <trkpt lat="43.76789" lon="3.56273">
        <ele>715.506</ele>
        <time>2013-03-09T10:30:23Z</time>
      </trkpt>
      <trkpt lat="43.76796" lon="3.56276">
        <ele>717.15</ele>
        <time>2013-03-09T10:30:35Z</time>
      </trkpt>
      <trkpt lat="43.76802" lon="3.56275">
        <ele>717.621</ele>
        <time>2013-03-09T10:30:45Z</time>
      </trkpt>
      <trkpt lat="43.76806" lon="3.56275">
        <ele>720.027</ele>
        <time>2013-03-09T10:30:55Z</time>
      </trkpt>
      <trkpt lat="43.76812" lon="3.56278">
        <ele>719.559</ele>
        <time>2013-03-09T10:31:04Z</time>
      </trkpt>
      <trkpt lat="43.76812" lon="3.5628">
        <ele>720.302</ele>
        <time>2013-03-09T10:31:23Z</time>
      </trkpt>
      <trkpt lat="43.76812" lon="3.5628">
        <ele>720.31</ele>
        <time>2013-03-09T10:31:24Z</time>
      </trkpt>
      <trkpt lat="43.76813" lon="3.56279">
        <ele>719.859</ele>
        <time>2013-03-09T10:31:39Z</time>
      </trkpt>
      <trkpt lat="43.76812" lon="3.56279">
        <ele>721.366</ele>
        <time>2013-03-09T10:31:54Z</time>
      </trkpt>
      <trkpt lat="43.76813" lon="3.56279">
        <ele>719.278</ele>
        <time>2013-03-09T10:31:57Z</time>
      </trkpt>
      <trkpt lat="43.76813" lon="3.56279">
        <ele>722.61</ele>
        <time>2013-03-09T10:32:11Z</time>
      </trkpt>
      <trkpt lat="43.76813" lon="3.56279">
        <ele>722.757</ele>
        <time>2013-03-09T10:32:12Z</time>
      </trkpt>
      <trkpt lat="43.76813" lon="3.56279">
        <ele>718.694</ele>
        <time>2013-03-09T10:32:13Z</time>
      </trkpt>
      <trkpt lat="43.76813" lon="3.56279">
        <ele>721.386</ele>
        <time>2013-03-09T10:32:17Z</time>
      </trkpt>
      <trkpt lat="43.76813" lon="3.5628">
        <ele>718.099</ele>
        <time>2013-03-09T10:32:21Z</time>
      </trkpt>
      <trkpt lat="43.76813" lon="3.56279">
        <ele>719.104</ele>
        <time>2013-03-09T10:32:22Z</time>
      </trkpt>
      <trkpt lat="43.76812" lon="3.5628">
        <ele>717.806</ele>
        <time>2013-03-09T10:32:38Z</time>
      </trkpt>
      <trkpt lat="43.76812" lon="3.5628">
        <ele>718.752</ele>
        <time>2013-03-09T10:32:40Z</time>
      </trkpt>
      <trkpt lat="43.76812" lon="3.5628">
        <ele>717.887</ele>
        <time>2013-03-09T10:32:56Z</time>
      </trkpt>
      <trkpt lat="43.76812" lon="3.5628">
        <ele>716.805</ele>
        <time>2013-03-09T10:33:01Z</time>
      </trkpt>
      <trkpt lat="43.76812" lon="3.56281">
        <ele>720.118</ele>
        <time>2013-03-09T10:33:04Z</time>
      </trkpt>
      <trkpt lat="43.76812" lon="3.56281">
        <ele>719.661</ele>
        <time>2013-03-09T10:33:28Z</time>
      </trkpt>
      <trkpt lat="43.76811" lon="3.56279">
        <ele>718.192</ele>
        <time>2013-03-09T10:33:42Z</time>
      </trkpt>
      <trkpt lat="43.76809" lon="3.56279">
        <ele>718.304</ele>
        <time>2013-03-09T10:33:54Z</time>
      </trkpt>
      <trkpt lat="43.7681" lon="3.56278">
        <ele>720.146</ele>
        <time>2013-03-09T10:34:35Z</time>
      </trkpt>
      <trkpt lat="43.76808" lon="3.56278">
        <ele>718.32</ele>
        <time>2013-03-09T10:34:40Z</time>
      </trkpt>
      <trkpt lat="43.76807" lon="3.56277">
        <ele>719.289</ele>
        <time>2013-03-09T10:34:54Z</time>
      </trkpt>
      <trkpt lat="43.76805" lon="3.56276">
        <ele>717.702</ele>
        <time>2013-03-09T10:35:06Z</time>
      </trkpt>
      <trkpt lat="43.76804" lon="3.56273">
        <ele>717.77</ele>
        <time>2013-03-09T10:35:23Z</time>
      </trkpt>
      <trkpt lat="43.76804" lon="3.56274">
        <ele>717.606</ele>
        <time>2013-03-09T10:36:02Z</time>
      </trkpt>
      <trkpt lat="43.76798" lon="3.56278">
        <ele>717.956</ele>
        <time>2013-03-09T10:36:18Z</time>
      </trkpt>
      <trkpt lat="43.76793" lon="3.5628">
        <ele>715.234</ele>
        <time>2013-03-09T10:36:33Z</time>
      </trkpt>
      <trkpt lat="43.76788" lon="3.56282">
        <ele>714.264</ele>
        <time>2013-03-09T10:36:42Z</time>
      </trkpt>
      <trkpt lat="43.76781" lon="3.56272">
        <ele>712.799</ele>
        <time>2013-03-09T10:36:54Z</time>
      </trkpt>
      <trkpt lat="43.76775" lon="3.56266">
        <ele>710.871</ele>
        <time>2013-03-09T10:37:05Z</time>
      </trkpt>
      <trkpt lat="43.76773" lon="3.56255">
        <ele>708.88</ele>
        <time>2013-03-09T10:37:17Z</time>
      </trkpt>
      <trkpt lat="43.76772" lon="3.56253">
        <ele>707.072</ele>
        <time>2013-03-09T10:37:22Z</time>
      </trkpt>
      <trkpt lat="43.76765" lon="3.56245">
        <ele>704.718</ele>
        <time>2013-03-09T10:37:35Z</time>
      </trkpt>
      <trkpt lat="43.76766" lon="3.56241">
        <ele>704.288</ele>
        <time>2013-03-09T10:37:39Z</time>
      </trkpt>
      <trkpt lat="43.76766" lon="3.56238">
        <ele>702.757</ele>
        <time>2013-03-09T10:37:42Z</time>
      </trkpt>
      <trkpt lat="43.76767" lon="3.56237">
        <ele>703.248</ele>
        <time>2013-03-09T10:37:43Z</time>
      </trkpt>
      <trkpt lat="43.76764" lon="3.56229">
        <ele>700.536</ele>
        <time>2013-03-09T10:37:51Z</time>
      </trkpt>
      <trkpt lat="43.76764" lon="3.56218">
        <ele>698.474</ele>
        <time>2013-03-09T10:38:02Z</time>
      </trkpt>
      <trkpt lat="43.76765" lon="3.56213">
        <ele>697.122</ele>
        <time>2013-03-09T10:38:21Z</time>
      </trkpt>
      <trkpt lat="43.76767" lon="3.56211">
        <ele>694.11</ele>
        <time>2013-03-09T10:38:25Z</time>
      </trkpt>
      <trkpt lat="43.76769" lon="3.56201">
        <ele>692.531</ele>
        <time>2013-03-09T10:38:37Z</time>
      </trkpt>
      <trkpt lat="43.7677" lon="3.56186">
        <ele>690.678</ele>
        <time>2013-03-09T10:38:50Z</time>
      </trkpt>
      <trkpt lat="43.76772" lon="3.5618">
        <ele>688.023</ele>
        <time>2013-03-09T10:38:58Z</time>
      </trkpt>
      <trkpt lat="43.76772" lon="3.56171">
        <ele>687.387</ele>
        <time>2013-03-09T10:39:05Z</time>
      </trkpt>
      <trkpt lat="43.76769" lon="3.56164">
        <ele>686.333</ele>
        <time>2013-03-09T10:39:11Z</time>
      </trkpt>
      <trkpt lat="43.7677" lon="3.56152">
        <ele>683.321</ele>
        <time>2013-03-09T10:39:22Z</time>
      </trkpt>
      <trkpt lat="43.76769" lon="3.56139">
        <ele>679.958</ele>
        <time>2013-03-09T10:39:33Z</time>
      </trkpt>
      <trkpt lat="43.7677" lon="3.56138">
        <ele>679.957</ele>
        <time>2013-03-09T10:39:34Z</time>
      </trkpt>
      <trkpt lat="43.76777" lon="3.56127">
        <ele>676.679</ele>
        <time>2013-03-09T10:39:48Z</time>
      </trkpt>
      <trkpt lat="43.76777" lon="3.56127">
        <ele>676.938</ele>
        <time>2013-03-09T10:39:49Z</time>
      </trkpt>
      <trkpt lat="43.76781" lon="3.56118">
        <ele>673.096</ele>
        <time>2013-03-09T10:39:58Z</time>
      </trkpt>
      <trkpt lat="43.76783" lon="3.56116">
        <ele>673.485</ele>
        <time>2013-03-09T10:40:01Z</time>
      </trkpt>
      <trkpt lat="43.76792" lon="3.56107">
        <ele>670.367</ele>
        <time>2013-03-09T10:40:14Z</time>
      </trkpt>
      <trkpt lat="43.76799" lon="3.56104">
        <ele>668.616</ele>
        <time>2013-03-09T10:40:22Z</time>
      </trkpt>
      <trkpt lat="43.76801" lon="3.56102">
        <ele>668.051</ele>
        <time>2013-03-09T10:40:24Z</time>
      </trkpt>
      <trkpt lat="43.76805" lon="3.56097">
        <ele>667.452</ele>
        <time>2013-03-09T10:40:29Z</time>
      </trkpt>
      <trkpt lat="43.76815" lon="3.5609">
        <ele>664.774</ele>
        <time>2013-03-09T10:40:43Z</time>
      </trkpt>
      <trkpt lat="43.76819" lon="3.56089">
        <ele>663.087</ele>
        <time>2013-03-09T10:40:48Z</time>
      </trkpt>
      <trkpt lat="43.76825" lon="3.56084">
        <ele>659.48</ele>
        <time>2013-03-09T10:40:56Z</time>
      </trkpt>
      <trkpt lat="43.76826" lon="3.56079">
        <ele>658.869</ele>
        <time>2013-03-09T10:41:00Z</time>
      </trkpt>
      <trkpt lat="43.76824" lon="3.56067">
        <ele>657.006</ele>
        <time>2013-03-09T10:41:10Z</time>
      </trkpt>
      <trkpt lat="43.76827" lon="3.56057">
        <ele>655.188</ele>
        <time>2013-03-09T10:41:18Z</time>
      </trkpt>
      <trkpt lat="43.76827" lon="3.56054">
        <ele>656.14</ele>
        <time>2013-03-09T10:41:21Z</time>
      </trkpt>
      <trkpt lat="43.76826" lon="3.5605">
        <ele>654.647</ele>
        <time>2013-03-09T10:41:23Z</time>
      </trkpt>
      <trkpt lat="43.76826" lon="3.56046">
        <ele>655.463</ele>
        <time>2013-03-09T10:41:26Z</time>
      </trkpt>
      <trkpt lat="43.7683" lon="3.56025">
        <ele>653.081</ele>
        <time>2013-03-09T10:41:39Z</time>
      </trkpt>
      <trkpt lat="43.7683" lon="3.56017">
        <ele>651.552</ele>
        <time>2013-03-09T10:41:45Z</time>
      </trkpt>
      <trkpt lat="43.76832" lon="3.56007">
        <ele>649.79</ele>
        <time>2013-03-09T10:41:58Z</time>
      </trkpt>
      <trkpt lat="43.76833" lon="3.56001">
        <ele>651.216</ele>
        <time>2013-03-09T10:42:21Z</time>
      </trkpt>
      <trkpt lat="43.76827" lon="3.55988">
        <ele>650.377</ele>
        <time>2013-03-09T10:42:31Z</time>
      </trkpt>
      <trkpt lat="43.76825" lon="3.55959">
        <ele>650.98</ele>
        <time>2013-03-09T10:42:49Z</time>
      </trkpt>
      <trkpt lat="43.76833" lon="3.55934">
        <ele>651.203</ele>
        <time>2013-03-09T10:43:05Z</time>
      </trkpt>
      <trkpt lat="43.76843" lon="3.55911">
        <ele>651.536</ele>
        <time>2013-03-09T10:43:20Z</time>
      </trkpt>
      <trkpt lat="43.76854" lon="3.55895">
        <ele>652.754</ele>
        <time>2013-03-09T10:43:33Z</time>
      </trkpt>
      <trkpt lat="43.76858" lon="3.55888">
        <ele>652.273</ele>
        <time>2013-03-09T10:43:39Z</time>
      </trkpt>
      <trkpt lat="43.76862" lon="3.5588">
        <ele>651.345</ele>
        <time>2013-03-09T10:43:44Z</time>
      </trkpt>
      <trkpt lat="43.76865" lon="3.55869">
        <ele>652.714</ele>
        <time>2013-03-09T10:43:53Z</time>
      </trkpt>
      <trkpt lat="43.76866" lon="3.55866">
        <ele>653.385</ele>
        <time>2013-03-09T10:43:55Z</time>
      </trkpt>
      <trkpt lat="43.76867" lon="3.55855">
        <ele>653.029</ele>
        <time>2013-03-09T10:44:02Z</time>
      </trkpt>
      <trkpt lat="43.76869" lon="3.55835">
        <ele>653.182</ele>
        <time>2013-03-09T10:44:18Z</time>
      </trkpt>
      <trkpt lat="43.76866" lon="3.55827">
        <ele>653.587</ele>
        <time>2013-03-09T10:44:26Z</time>
      </trkpt>
      <trkpt lat="43.76862" lon="3.5582">
        <ele>653.428</ele>
        <time>2013-03-09T10:44:31Z</time>
      </trkpt>
      <trkpt lat="43.76855" lon="3.5581">
        <ele>651.552</ele>
        <time>2013-03-09T10:44:42Z</time>
      </trkpt>
      <trkpt lat="43.76839" lon="3.55801">
        <ele>650.677</ele>
        <time>2013-03-09T10:44:57Z</time>
      </trkpt>
      <trkpt lat="43.76834" lon="3.55804">
        <ele>651.617</ele>
        <time>2013-03-09T10:45:03Z</time>
      </trkpt>
      <trkpt lat="43.76827" lon="3.55825">
        <ele>649.216</ele>
        <time>2013-03-09T10:45:19Z</time>
      </trkpt>
      <trkpt lat="43.7682" lon="3.55841">
        <ele>647.055</ele>
        <time>2013-03-09T10:45:33Z</time>
      </trkpt>
      <trkpt lat="43.76817" lon="3.55845">
        <ele>646.565</ele>
        <time>2013-03-09T10:45:37Z</time>
      </trkpt>
      <trkpt lat="43.76803" lon="3.55865">
        <ele>645.241</ele>
        <time>2013-03-09T10:45:54Z</time>
      </trkpt>
      <trkpt lat="43.76786" lon="3.55875">
        <ele>642.034</ele>
        <time>2013-03-09T10:46:10Z</time>
      </trkpt>
      <trkpt lat="43.76773" lon="3.55887">
        <ele>640.75</ele>
        <time>2013-03-09T10:46:25Z</time>
      </trkpt>
      <trkpt lat="43.7676" lon="3.55897">
        <ele>640.773</ele>
        <time>2013-03-09T10:46:38Z</time>
      </trkpt>
      <trkpt lat="43.76745" lon="3.55906">
        <ele>640.912</ele>
        <time>2013-03-09T10:46:54Z</time>
      </trkpt>
      <trkpt lat="43.76744" lon="3.55907">
        <ele>641.231</ele>
        <time>2013-03-09T10:46:55Z</time>
      </trkpt>
      <trkpt lat="43.76738" lon="3.55911">
        <ele>640.53</ele>
        <time>2013-03-09T10:47:01Z</time>
      </trkpt>
      <trkpt lat="43.76722" lon="3.55936">
        <ele>637.453</ele>
        <time>2013-03-09T10:47:20Z</time>
      </trkpt>
      <trkpt lat="43.76709" lon="3.5595">
        <ele>636.909</ele>
        <time>2013-03-09T10:47:36Z</time>
      </trkpt>
      <trkpt lat="43.76693" lon="3.55946">
        <ele>636.373</ele>
        <time>2013-03-09T10:47:51Z</time>
      </trkpt>
      <trkpt lat="43.76684" lon="3.55948">
        <ele>636.161</ele>
        <time>2013-03-09T10:48:00Z</time>
      </trkpt>
      <trkpt lat="43.76669" lon="3.55951">
        <ele>634.649</ele>
        <time>2013-03-09T10:48:15Z</time>
      </trkpt>
      <trkpt lat="43.76662" lon="3.55948">
        <ele>633.078</ele>
        <time>2013-03-09T10:48:27Z</time>
      </trkpt>
      <trkpt lat="43.76661" lon="3.55947">
        <ele>632.739</ele>
        <time>2013-03-09T10:48:28Z</time>
      </trkpt>
      <trkpt lat="43.76667" lon="3.55935">
        <ele>632.344</ele>
        <time>2013-03-09T10:48:42Z</time>
      </trkpt>
      <trkpt lat="43.76672" lon="3.5593">
        <ele>631.026</ele>
        <time>2013-03-09T10:48:55Z</time>
      </trkpt>
      <trkpt lat="43.76675" lon="3.55931">
        <ele>631.459</ele>
        <time>2013-03-09T10:49:14Z</time>
      </trkpt>
      <trkpt lat="43.76683" lon="3.55925">
        <ele>629.602</ele>
        <time>2013-03-09T10:49:26Z</time>
      </trkpt>
      <trkpt lat="43.76694" lon="3.55915">
        <ele>627.991</ele>
        <time>2013-03-09T10:49:41Z</time>
      </trkpt>
      <trkpt lat="43.76696" lon="3.55913">
        <ele>628.472</ele>
        <time>2013-03-09T10:49:44Z</time>
      </trkpt>
      <trkpt lat="43.76697" lon="3.55909">
        <ele>628.969</ele>
        <time>2013-03-09T10:49:47Z</time>
      </trkpt>
      <trkpt lat="43.76696" lon="3.55903">
        <ele>628.557</ele>
        <time>2013-03-09T10:49:52Z</time>
      </trkpt>
      <trkpt lat="43.76701" lon="3.5589">
        <ele>627.723</ele>
        <time>2013-03-09T10:50:09Z</time>
      </trkpt>
      <trkpt lat="43.76702" lon="3.55891">
        <ele>627.14</ele>
        <time>2013-03-09T10:50:32Z</time>
      </trkpt>
      <trkpt lat="43.76702" lon="3.5589">
        <ele>627.942</ele>
        <time>2013-03-09T10:50:59Z</time>
      </trkpt>
      <trkpt lat="43.76703" lon="3.55891">
        <ele>627.425</ele>
        <time>2013-03-09T10:51:15Z</time>
      </trkpt>
      <trkpt lat="43.76708" lon="3.55887">
        <ele>627.464</ele>
        <time>2013-03-09T10:51:24Z</time>
      </trkpt>
      <trkpt lat="43.76722" lon="3.55873">
        <ele>624.308</ele>
        <time>2013-03-09T10:51:41Z</time>
      </trkpt>
      <trkpt lat="43.76729" lon="3.55866">
        <ele>623.542</ele>
        <time>2013-03-09T10:51:48Z</time>
      </trkpt>
      <trkpt lat="43.76734" lon="3.5586">
        <ele>622.129</ele>
        <time>2013-03-09T10:51:54Z</time>
      </trkpt>
      <trkpt lat="43.76746" lon="3.55846">
        <ele>620.588</ele>
        <time>2013-03-09T10:52:08Z</time>
      </trkpt>
      <trkpt lat="43.76747" lon="3.55844">
        <ele>620.352</ele>
        <time>2013-03-09T10:52:10Z</time>
      </trkpt>
      <trkpt lat="43.76754" lon="3.55823">
        <ele>619.83</ele>
        <time>2013-03-09T10:52:26Z</time>
      </trkpt>
      <trkpt lat="43.76769" lon="3.55799">
        <ele>616.969</ele>
        <time>2013-03-09T10:52:47Z</time>
      </trkpt>
      <trkpt lat="43.7677" lon="3.55793">
        <ele>617.353</ele>
        <time>2013-03-09T10:52:53Z</time>
      </trkpt>
      <trkpt lat="43.7677" lon="3.55781">
        <ele>616.498</ele>
        <time>2013-03-09T10:53:04Z</time>
      </trkpt>
      <trkpt lat="43.76771" lon="3.55779">
        <ele>616.62</ele>
        <time>2013-03-09T10:53:06Z</time>
      </trkpt>
      <trkpt lat="43.76772" lon="3.55771">
        <ele>615.844</ele>
        <time>2013-03-09T10:53:11Z</time>
      </trkpt>
      <trkpt lat="43.76776" lon="3.55744">
        <ele>613.672</ele>
        <time>2013-03-09T10:53:28Z</time>
      </trkpt>
      <trkpt lat="43.76775" lon="3.55721">
        <ele>613.128</ele>
        <time>2013-03-09T10:53:45Z</time>
      </trkpt>
      <trkpt lat="43.76772" lon="3.55714">
        <ele>612.394</ele>
        <time>2013-03-09T10:53:58Z</time>
      </trkpt>
      <trkpt lat="43.76769" lon="3.55713">
        <ele>612.675</ele>
        <time>2013-03-09T10:54:01Z</time>
      </trkpt>
      <trkpt lat="43.76757" lon="3.55707">
        <ele>609.895</ele>
        <time>2013-03-09T10:54:15Z</time>
      </trkpt>
      <trkpt lat="43.76751" lon="3.55704">
        <ele>608.51</ele>
        <time>2013-03-09T10:54:20Z</time>
      </trkpt>
      <trkpt lat="43.76747" lon="3.55702">
        <ele>607.858</ele>
        <time>2013-03-09T10:54:24Z</time>
      </trkpt>
      <trkpt lat="43.76736" lon="3.55694">
        <ele>606.336</ele>
        <time>2013-03-09T10:54:36Z</time>
      </trkpt>
      <trkpt lat="43.76735" lon="3.55696">
        <ele>606.2</ele>
        <time>2013-03-09T10:54:38Z</time>
      </trkpt>
      <trkpt lat="43.76732" lon="3.55697">
        <ele>605.594</ele>
        <time>2013-03-09T10:54:40Z</time>
      </trkpt>
      <trkpt lat="43.76727" lon="3.55693">
        <ele>605.656</ele>
        <time>2013-03-09T10:54:45Z</time>
      </trkpt>
      <trkpt lat="43.76703" lon="3.55687">
        <ele>603.372</ele>
        <time>2013-03-09T10:55:06Z</time>
      </trkpt>
      <trkpt lat="43.76692" lon="3.55684">
        <ele>603.278</ele>
        <time>2013-03-09T10:55:16Z</time>
      </trkpt>
      <trkpt lat="43.76681" lon="3.55658">
        <ele>601.15</ele>
        <time>2013-03-09T10:55:36Z</time>
      </trkpt>
      <trkpt lat="43.7668" lon="3.55647">
        <ele>600.691</ele>
        <time>2013-03-09T10:55:49Z</time>
      </trkpt>
      <trkpt lat="43.76677" lon="3.55632">
        <ele>598.606</ele>
        <time>2013-03-09T10:55:58Z</time>
      </trkpt>
      <trkpt lat="43.76679" lon="3.55604">
        <ele>598.388</ele>
        <time>2013-03-09T10:56:17Z</time>
      </trkpt>
      <trkpt lat="43.76687" lon="3.55575">
        <ele>598.905</ele>
        <time>2013-03-09T10:56:35Z</time>
      </trkpt>
      <trkpt lat="43.76689" lon="3.5557">
        <ele>598.93</ele>
        <time>2013-03-09T10:56:39Z</time>
      </trkpt>
      <trkpt lat="43.767" lon="3.55549">
        <ele>599.068</ele>
        <time>2013-03-09T10:56:57Z</time>
      </trkpt>
      <trkpt lat="43.76706" lon="3.5553">
        <ele>598.337</ele>
        <time>2013-03-09T10:57:13Z</time>
      </trkpt>
      <trkpt lat="43.76705" lon="3.5552">
        <ele>597.736</ele>
        <time>2013-03-09T10:57:28Z</time>
      </trkpt>
      <trkpt lat="43.76705" lon="3.55525">
        <ele>598.213</ele>
        <time>2013-03-09T10:57:39Z</time>
      </trkpt>
      <trkpt lat="43.76704" lon="3.55531">
        <ele>597.716</ele>
        <time>2013-03-09T10:57:51Z</time>
      </trkpt>
      <trkpt lat="43.76696" lon="3.55548">
        <ele>595.764</ele>
        <time>2013-03-09T10:58:05Z</time>
      </trkpt>
      <trkpt lat="43.76684" lon="3.55562">
        <ele>594.104</ele>
        <time>2013-03-09T10:58:19Z</time>
      </trkpt>
      <trkpt lat="43.76677" lon="3.55582">
        <ele>592.087</ele>
        <time>2013-03-09T10:58:33Z</time>
      </trkpt>
      <trkpt lat="43.76676" lon="3.55585">
        <ele>592.096</ele>
        <time>2013-03-09T10:58:49Z</time>
      </trkpt>
      <trkpt lat="43.7667" lon="3.55598">
        <ele>591.571</ele>
        <time>2013-03-09T10:59:12Z</time>
      </trkpt>
      <trkpt lat="43.76664" lon="3.55618">
        <ele>589.464</ele>
        <time>2013-03-09T10:59:27Z</time>
      </trkpt>
      <trkpt lat="43.76659" lon="3.5563">
        <ele>587.579</ele>
        <time>2013-03-09T10:59:35Z</time>
      </trkpt>
      <trkpt lat="43.76659" lon="3.55652">
        <ele>585.975</ele>
        <time>2013-03-09T10:59:50Z</time>
      </trkpt>
      <trkpt lat="43.76661" lon="3.55676">
        <ele>584.569</ele>
        <time>2013-03-09T11:00:05Z</time>
      </trkpt>
      <trkpt lat="43.76663" lon="3.55707">
        <ele>582.807</ele>
        <time>2013-03-09T11:00:24Z</time>
      </trkpt>
      <trkpt lat="43.76663" lon="3.5571">
        <ele>582.921</ele>
        <time>2013-03-09T11:00:26Z</time>
      </trkpt>
      <trkpt lat="43.76658" lon="3.5571">
        <ele>581.647</ele>
        <time>2013-03-09T11:00:37Z</time>
      </trkpt>
      <trkpt lat="43.76647" lon="3.55698">
        <ele>579.835</ele>
        <time>2013-03-09T11:00:54Z</time>
      </trkpt>
      <trkpt lat="43.76643" lon="3.55693">
        <ele>578.008</ele>
        <time>2013-03-09T11:01:01Z</time>
      </trkpt>
      <trkpt lat="43.7664" lon="3.55685">
        <ele>576.772</ele>
        <time>2013-03-09T11:01:08Z</time>
      </trkpt>
      <trkpt lat="43.76635" lon="3.55674">
        <ele>573.607</ele>
        <time>2013-03-09T11:01:19Z</time>
      </trkpt>
      <trkpt lat="43.7663" lon="3.55666">
        <ele>570.477</ele>
        <time>2013-03-09T11:01:29Z</time>
      </trkpt>
      <trkpt lat="43.76622" lon="3.5565">
        <ele>568.063</ele>
        <time>2013-03-09T11:01:44Z</time>
      </trkpt>
      <trkpt lat="43.76617" lon="3.55634">
        <ele>564.483</ele>
        <time>2013-03-09T11:01:56Z</time>
      </trkpt>
      <trkpt lat="43.76614" lon="3.55622">
        <ele>562.51</ele>
        <time>2013-03-09T11:02:04Z</time>
      </trkpt>
      <trkpt lat="43.76613" lon="3.55596">
        <ele>559.684</ele>
        <time>2013-03-09T11:02:22Z</time>
      </trkpt>
      <trkpt lat="43.76609" lon="3.55569">
        <ele>557.292</ele>
        <time>2013-03-09T11:02:41Z</time>
      </trkpt>
      <trkpt lat="43.76601" lon="3.55544">
        <ele>554.54</ele>
        <time>2013-03-09T11:03:01Z</time>
      </trkpt>
      <trkpt lat="43.766" lon="3.55518">
        <ele>551.73</ele>
        <time>2013-03-09T11:03:19Z</time>
      </trkpt>
      <trkpt lat="43.76602" lon="3.55505">
        <ele>551.43</ele>
        <time>2013-03-09T11:03:28Z</time>
      </trkpt>
      <trkpt lat="43.76603" lon="3.55495">
        <ele>550.363</ele>
        <time>2013-03-09T11:03:34Z</time>
      </trkpt>
      <trkpt lat="43.76601" lon="3.55482">
        <ele>549.074</ele>
        <time>2013-03-09T11:03:43Z</time>
      </trkpt>
      <trkpt lat="43.76584" lon="3.55476">
        <ele>547.182</ele>
        <time>2013-03-09T11:04:01Z</time>
      </trkpt>
      <trkpt lat="43.76576" lon="3.55478">
        <ele>546.476</ele>
        <time>2013-03-09T11:04:13Z</time>
      </trkpt>
      <trkpt lat="43.76565" lon="3.55477">
        <ele>544.909</ele>
        <time>2013-03-09T11:04:24Z</time>
      </trkpt>
      <trkpt lat="43.76563" lon="3.55476">
        <ele>544.224</ele>
        <time>2013-03-09T11:04:26Z</time>
      </trkpt>
      <trkpt lat="43.7655" lon="3.55466">
        <ele>541.693</ele>
        <time>2013-03-09T11:04:42Z</time>
      </trkpt>
      <trkpt lat="43.76536" lon="3.55455">
        <ele>539.958</ele>
        <time>2013-03-09T11:04:58Z</time>
      </trkpt>
      <trkpt lat="43.76533" lon="3.5545">
        <ele>539.692</ele>
        <time>2013-03-09T11:05:12Z</time>
      </trkpt>
      <trkpt lat="43.76533" lon="3.5545">
        <ele>539.19</ele>
        <time>2013-03-09T11:05:26Z</time>
      </trkpt>
      <trkpt lat="43.76529" lon="3.55445">
        <ele>538.933</ele>
        <time>2013-03-09T11:05:42Z</time>
      </trkpt>
      <trkpt lat="43.76522" lon="3.5544">
        <ele>538.078</ele>
        <time>2013-03-09T11:05:54Z</time>
      </trkpt>
      <trkpt lat="43.76514" lon="3.5544">
        <ele>537.386</ele>
        <time>2013-03-09T11:06:04Z</time>
      </trkpt>
      <trkpt lat="43.7651" lon="3.5544">
        <ele>537.324</ele>
        <time>2013-03-09T11:06:08Z</time>
      </trkpt>
      <trkpt lat="43.76507" lon="3.55441">
        <ele>535.965</ele>
        <time>2013-03-09T11:06:11Z</time>
      </trkpt>
      <trkpt lat="43.76507" lon="3.55441">
        <ele>535.884</ele>
        <time>2013-03-09T11:06:12Z</time>
      </trkpt>
      <trkpt lat="43.76492" lon="3.55443">
        <ele>532.252</ele>
        <time>2013-03-09T11:06:28Z</time>
      </trkpt>
      <trkpt lat="43.76484" lon="3.55445">
        <ele>531.77</ele>
        <time>2013-03-09T11:06:39Z</time>
      </trkpt>
      <trkpt lat="43.76473" lon="3.55451">
        <ele>529.461</ele>
        <time>2013-03-09T11:06:53Z</time>
      </trkpt>
      <trkpt lat="43.76463" lon="3.55458">
        <ele>527.037</ele>
        <time>2013-03-09T11:07:06Z</time>
      </trkpt>
      <trkpt lat="43.76455" lon="3.55462">
        <ele>526.88</ele>
        <time>2013-03-09T11:07:16Z</time>
      </trkpt>
      <trkpt lat="43.76448" lon="3.55466">
        <ele>525.931</ele>
        <time>2013-03-09T11:07:23Z</time>
      </trkpt>
      <trkpt lat="43.76434" lon="3.55469">
        <ele>522.004</ele>
        <time>2013-03-09T11:07:35Z</time>
      </trkpt>
      <trkpt lat="43.76423" lon="3.5547">
        <ele>520.133</ele>
        <time>2013-03-09T11:07:48Z</time>
      </trkpt>
      <trkpt lat="43.7642" lon="3.55469">
        <ele>520.779</ele>
        <time>2013-03-09T11:08:16Z</time>
      </trkpt>
      <trkpt lat="43.7642" lon="3.55468">
        <ele>520.18</ele>
        <time>2013-03-09T11:08:32Z</time>
      </trkpt>
      <trkpt lat="43.7642" lon="3.55466">
        <ele>519.847</ele>
        <time>2013-03-09T11:08:44Z</time>
      </trkpt>
      <trkpt lat="43.7642" lon="3.55464">
        <ele>519.749</ele>
        <time>2013-03-09T11:08:56Z</time>
      </trkpt>
      <trkpt lat="43.76421" lon="3.55464">
        <ele>518.729</ele>
        <time>2013-03-09T11:09:13Z</time>
      </trkpt>
      <trkpt lat="43.7642" lon="3.55462">
        <ele>518.825</ele>
        <time>2013-03-09T11:09:37Z</time>
      </trkpt>
      <trkpt lat="43.7642" lon="3.55458">
        <ele>518.78</ele>
        <time>2013-03-09T11:09:49Z</time>
      </trkpt>
      <trkpt lat="43.7642" lon="3.55452">
        <ele>517.98</ele>
        <time>2013-03-09T11:10:01Z</time>
      </trkpt>
      <trkpt lat="43.76422" lon="3.55444">
        <ele>518.658</ele>
        <time>2013-03-09T11:10:14Z</time>
      </trkpt>
      <trkpt lat="43.76418" lon="3.55434">
        <ele>517.111</ele>
        <time>2013-03-09T11:10:25Z</time>
      </trkpt>
      <trkpt lat="43.76413" lon="3.55425">
        <ele>516.011</ele>
        <time>2013-03-09T11:10:36Z</time>
      </trkpt>
      <trkpt lat="43.76412" lon="3.55425">
        <ele>514.951</ele>
        <time>2013-03-09T11:10:37Z</time>
      </trkpt>
      <trkpt lat="43.76398" lon="3.55414">
        <ele>513.149</ele>
        <time>2013-03-09T11:10:53Z</time>
      </trkpt>
      <trkpt lat="43.76385" lon="3.55405">
        <ele>511.757</ele>
        <time>2013-03-09T11:11:06Z</time>
      </trkpt>
      <trkpt lat="43.76374" lon="3.55399">
        <ele>510.554</ele>
        <time>2013-03-09T11:11:17Z</time>
      </trkpt>
      <trkpt lat="43.76371" lon="3.55396">
        <ele>509.813</ele>
        <time>2013-03-09T11:11:20Z</time>
      </trkpt>
      <trkpt lat="43.7636" lon="3.55392">
        <ele>507.116</ele>
        <time>2013-03-09T11:11:35Z</time>
      </trkpt>
      <trkpt lat="43.76349" lon="3.55391">
        <ele>506.688</ele>
        <time>2013-03-09T11:11:50Z</time>
      </trkpt>
      <trkpt lat="43.76343" lon="3.55388">
        <ele>506.114</ele>
        <time>2013-03-09T11:11:57Z</time>
      </trkpt>
      <trkpt lat="43.7634" lon="3.55388">
        <ele>505.004</ele>
        <time>2013-03-09T11:12:08Z</time>
      </trkpt>
      <trkpt lat="43.76354" lon="3.55398">
        <ele>501.947</ele>
        <time>2013-03-09T11:12:26Z</time>
      </trkpt>
      <trkpt lat="43.76365" lon="3.55409">
        <ele>499.988</ele>
        <time>2013-03-09T11:12:40Z</time>
      </trkpt>
      <trkpt lat="43.76366" lon="3.5541">
        <ele>499.847</ele>
        <time>2013-03-09T11:12:41Z</time>
      </trkpt>
      <trkpt lat="43.76378" lon="3.55423">
        <ele>498.165</ele>
        <time>2013-03-09T11:12:55Z</time>
      </trkpt>
      <trkpt lat="43.7639" lon="3.55439">
        <ele>496.374</ele>
        <time>2013-03-09T11:13:12Z</time>
      </trkpt>
      <trkpt lat="43.7639" lon="3.55442">
        <ele>494.489</ele>
        <time>2013-03-09T11:13:21Z</time>
      </trkpt>
      <trkpt lat="43.76388" lon="3.5544">
        <ele>493.692</ele>
        <time>2013-03-09T11:13:25Z</time>
      </trkpt>
      <trkpt lat="43.76381" lon="3.55437">
        <ele>492.596</ele>
        <time>2013-03-09T11:13:34Z</time>
      </trkpt>
      <trkpt lat="43.76371" lon="3.55436">
        <ele>490.262</ele>
        <time>2013-03-09T11:13:44Z</time>
      </trkpt>
      <trkpt lat="43.76355" lon="3.55435">
        <ele>488.541</ele>
        <time>2013-03-09T11:13:59Z</time>
      </trkpt>
      <trkpt lat="43.76346" lon="3.5543">
        <ele>485.523</ele>
        <time>2013-03-09T11:14:10Z</time>
      </trkpt>
      <trkpt lat="43.76345" lon="3.5543">
        <ele>485.834</ele>
        <time>2013-03-09T11:14:11Z</time>
      </trkpt>
      <trkpt lat="43.7634" lon="3.5543">
        <ele>485.201</ele>
        <time>2013-03-09T11:14:16Z</time>
      </trkpt>
      <trkpt lat="43.76337" lon="3.55431">
        <ele>483.775</ele>
        <time>2013-03-09T11:14:19Z</time>
      </trkpt>
      <trkpt lat="43.76329" lon="3.55431">
        <ele>483.009</ele>
        <time>2013-03-09T11:14:33Z</time>
      </trkpt>
      <trkpt lat="43.76327" lon="3.5543">
        <ele>482.046</ele>
        <time>2013-03-09T11:14:54Z</time>
      </trkpt>
      <trkpt lat="43.76319" lon="3.55412">
        <ele>481.291</ele>
        <time>2013-03-09T11:15:08Z</time>
      </trkpt>
      <trkpt lat="43.76309" lon="3.55402">
        <ele>478.197</ele>
        <time>2013-03-09T11:15:20Z</time>
      </trkpt>
      <trkpt lat="43.76293" lon="3.554">
        <ele>476.165</ele>
        <time>2013-03-09T11:15:35Z</time>
      </trkpt>
      <trkpt lat="43.76285" lon="3.55405">
        <ele>474.588</ele>
        <time>2013-03-09T11:15:44Z</time>
      </trkpt>
      <trkpt lat="43.76275" lon="3.55417">
        <ele>472.132</ele>
        <time>2013-03-09T11:15:57Z</time>
      </trkpt>
      <trkpt lat="43.76268" lon="3.55429">
        <ele>469.545</ele>
        <time>2013-03-09T11:16:07Z</time>
      </trkpt>
      <trkpt lat="43.76265" lon="3.55434">
        <ele>468.377</ele>
        <time>2013-03-09T11:16:11Z</time>
      </trkpt>
      <trkpt lat="43.76258" lon="3.55437">
        <ele>467.003</ele>
        <time>2013-03-09T11:16:17Z</time>
      </trkpt>
      <trkpt lat="43.76256" lon="3.55437">
        <ele>466.451</ele>
        <time>2013-03-09T11:16:19Z</time>
      </trkpt>
      <trkpt lat="43.76242" lon="3.55438">
        <ele>464.527</ele>
        <time>2013-03-09T11:16:31Z</time>
      </trkpt>
      <trkpt lat="43.76227" lon="3.55446">
        <ele>460.117</ele>
        <time>2013-03-09T11:16:47Z</time>
      </trkpt>
      <trkpt lat="43.76226" lon="3.55447">
        <ele>459.781</ele>
        <time>2013-03-09T11:16:49Z</time>
      </trkpt>
      <trkpt lat="43.76224" lon="3.55449">
        <ele>459.859</ele>
        <time>2013-03-09T11:16:51Z</time>
      </trkpt>
      <trkpt lat="43.7622" lon="3.55456">
        <ele>459.212</ele>
        <time>2013-03-09T11:16:58Z</time>
      </trkpt>
      <trkpt lat="43.76206" lon="3.55465">
        <ele>455.714</ele>
        <time>2013-03-09T11:17:14Z</time>
      </trkpt>
      <trkpt lat="43.76205" lon="3.55465">
        <ele>455.712</ele>
        <time>2013-03-09T11:17:15Z</time>
      </trkpt>
      <trkpt lat="43.762" lon="3.5547">
        <ele>453.836</ele>
        <time>2013-03-09T11:17:22Z</time>
      </trkpt>
      <trkpt lat="43.76194" lon="3.55477">
        <ele>452.275</ele>
        <time>2013-03-09T11:17:28Z</time>
      </trkpt>
      <trkpt lat="43.7619" lon="3.55484">
        <ele>450.463</ele>
        <time>2013-03-09T11:17:34Z</time>
      </trkpt>
      <trkpt lat="43.76183" lon="3.55496">
        <ele>448.74</ele>
        <time>2013-03-09T11:17:45Z</time>
      </trkpt>
      <trkpt lat="43.76178" lon="3.55501">
        <ele>447.326</ele>
        <time>2013-03-09T11:17:53Z</time>
      </trkpt>
      <trkpt lat="43.76164" lon="3.55509">
        <ele>444.688</ele>
        <time>2013-03-09T11:18:08Z</time>
      </trkpt>
      <trkpt lat="43.76154" lon="3.55524">
        <ele>441.766</ele>
        <time>2013-03-09T11:18:23Z</time>
      </trkpt>
      <trkpt lat="43.76146" lon="3.55544">
        <ele>439.061</ele>
        <time>2013-03-09T11:18:38Z</time>
      </trkpt>
      <trkpt lat="43.76146" lon="3.55547">
        <ele>438.465</ele>
        <time>2013-03-09T11:18:40Z</time>
      </trkpt>
      <trkpt lat="43.76133" lon="3.55546">
        <ele>436.299</ele>
        <time>2013-03-09T11:18:53Z</time>
      </trkpt>
      <trkpt lat="43.76129" lon="3.55546">
        <ele>434.438</ele>
        <time>2013-03-09T11:18:57Z</time>
      </trkpt>
      <trkpt lat="43.76112" lon="3.55556">
        <ele>433.114</ele>
        <time>2013-03-09T11:19:14Z</time>
      </trkpt>
      <trkpt lat="43.76097" lon="3.5557">
        <ele>430.102</ele>
        <time>2013-03-09T11:19:29Z</time>
      </trkpt>
      <trkpt lat="43.76091" lon="3.55576">
        <ele>429.1</ele>
        <time>2013-03-09T11:19:35Z</time>
      </trkpt>
      <trkpt lat="43.7608" lon="3.55584">
        <ele>427.352</ele>
        <time>2013-03-09T11:19:48Z</time>
      </trkpt>
      <trkpt lat="43.76064" lon="3.55592">
        <ele>424.751</ele>
        <time>2013-03-09T11:20:04Z</time>
      </trkpt>
      <trkpt lat="43.76055" lon="3.55606">
        <ele>423.842</ele>
        <time>2013-03-09T11:20:17Z</time>
      </trkpt>
      <trkpt lat="43.76042" lon="3.55628">
        <ele>421.533</ele>
        <time>2013-03-09T11:20:35Z</time>
      </trkpt>
      <trkpt lat="43.76038" lon="3.55634">
        <ele>420.16</ele>
        <time>2013-03-09T11:20:40Z</time>
      </trkpt>
      <trkpt lat="43.76036" lon="3.55642">
        <ele>418.476</ele>
        <time>2013-03-09T11:20:46Z</time>
      </trkpt>
      <trkpt lat="43.76035" lon="3.55644">
        <ele>418.474</ele>
        <time>2013-03-09T11:20:48Z</time>
      </trkpt>
      <trkpt lat="43.76034" lon="3.55647">
        <ele>417.849</ele>
        <time>2013-03-09T11:20:50Z</time>
      </trkpt>
      <trkpt lat="43.76032" lon="3.55666">
        <ele>414.917</ele>
        <time>2013-03-09T11:21:04Z</time>
      </trkpt>
      <trkpt lat="43.76029" lon="3.55688">
        <ele>411.853</ele>
        <time>2013-03-09T11:21:19Z</time>
      </trkpt>
      <trkpt lat="43.7603" lon="3.55698">
        <ele>411.905</ele>
        <time>2013-03-09T11:21:26Z</time>
      </trkpt>
      <trkpt lat="43.76037" lon="3.55722">
        <ele>408.697</ele>
        <time>2013-03-09T11:21:44Z</time>
      </trkpt>
      <trkpt lat="43.76042" lon="3.55744">
        <ele>405.615</ele>
        <time>2013-03-09T11:22:02Z</time>
      </trkpt>
      <trkpt lat="43.76043" lon="3.55749">
        <ele>405.114</ele>
        <time>2013-03-09T11:22:06Z</time>
      </trkpt>
      <trkpt lat="43.7604" lon="3.55778">
        <ele>402.062</ele>
        <time>2013-03-09T11:22:26Z</time>
      </trkpt>
      <trkpt lat="43.76037" lon="3.55796">
        <ele>400.777</ele>
        <time>2013-03-09T11:22:37Z</time>
      </trkpt>
      <trkpt lat="43.76034" lon="3.55803">
        <ele>398.702</ele>
        <time>2013-03-09T11:22:42Z</time>
      </trkpt>
      <trkpt lat="43.76033" lon="3.55806">
        <ele>398.431</ele>
        <time>2013-03-09T11:22:44Z</time>
      </trkpt>
      <trkpt lat="43.76031" lon="3.55815">
        <ele>397.04</ele>
        <time>2013-03-09T11:22:50Z</time>
      </trkpt>
      <trkpt lat="43.7603" lon="3.55818">
        <ele>396.816</ele>
        <time>2013-03-09T11:22:52Z</time>
      </trkpt>
      <trkpt lat="43.7603" lon="3.55824">
        <ele>396.742</ele>
        <time>2013-03-09T11:22:56Z</time>
      </trkpt>
      <trkpt lat="43.76026" lon="3.5585">
        <ele>395.112</ele>
        <time>2013-03-09T11:23:13Z</time>
      </trkpt>
      <trkpt lat="43.76024" lon="3.5586">
        <ele>392.421</ele>
        <time>2013-03-09T11:23:19Z</time>
      </trkpt>
      <trkpt lat="43.76022" lon="3.55864">
        <ele>391.019</ele>
        <time>2013-03-09T11:23:22Z</time>
      </trkpt>
      <trkpt lat="43.76018" lon="3.55874">
        <ele>388.928</ele>
        <time>2013-03-09T11:23:29Z</time>
      </trkpt>
      <trkpt lat="43.76017" lon="3.55885">
        <ele>388.253</ele>
        <time>2013-03-09T11:23:37Z</time>
      </trkpt>
      <trkpt lat="43.76017" lon="3.55893">
        <ele>387.299</ele>
        <time>2013-03-09T11:23:42Z</time>
      </trkpt>
      <trkpt lat="43.76012" lon="3.55905">
        <ele>385.029</ele>
        <time>2013-03-09T11:23:51Z</time>
      </trkpt>
      <trkpt lat="43.76005" lon="3.55924">
        <ele>383.327</ele>
        <time>2013-03-09T11:24:03Z</time>
      </trkpt>
      <trkpt lat="43.76002" lon="3.55935">
        <ele>382.721</ele>
        <time>2013-03-09T11:24:10Z</time>
      </trkpt>
      <trkpt lat="43.75999" lon="3.55948">
        <ele>378.805</ele>
        <time>2013-03-09T11:24:18Z</time>
      </trkpt>
      <trkpt lat="43.75997" lon="3.55953">
        <ele>378.143</ele>
        <time>2013-03-09T11:24:21Z</time>
      </trkpt>
      <trkpt lat="43.75996" lon="3.55962">
        <ele>376.179</ele>
        <time>2013-03-09T11:24:26Z</time>
      </trkpt>
      <trkpt lat="43.75991" lon="3.55985">
        <ele>372.447</ele>
        <time>2013-03-09T11:24:40Z</time>
      </trkpt>
      <trkpt lat="43.75986" lon="3.56">
        <ele>371.398</ele>
        <time>2013-03-09T11:24:50Z</time>
      </trkpt>
      <trkpt lat="43.75976" lon="3.56022">
        <ele>370.02</ele>
        <time>2013-03-09T11:25:05Z</time>
      </trkpt>
      <trkpt lat="43.75964" lon="3.5604">
        <ele>368.844</ele>
        <time>2013-03-09T11:25:20Z</time>
      </trkpt>
      <trkpt lat="43.75953" lon="3.56059">
        <ele>367.279</ele>
        <time>2013-03-09T11:25:35Z</time>
      </trkpt>
      <trkpt lat="43.75942" lon="3.56084">
        <ele>364.165</ele>
        <time>2013-03-09T11:25:51Z</time>
      </trkpt>
      <trkpt lat="43.75936" lon="3.56096">
        <ele>361.14</ele>
        <time>2013-03-09T11:25:59Z</time>
      </trkpt>
      <trkpt lat="43.75926" lon="3.56119">
        <ele>359.607</ele>
        <time>2013-03-09T11:26:15Z</time>
      </trkpt>
      <trkpt lat="43.75921" lon="3.5613">
        <ele>358.848</ele>
        <time>2013-03-09T11:26:23Z</time>
      </trkpt>
      <trkpt lat="43.75912" lon="3.5615">
        <ele>355.947</ele>
        <time>2013-03-09T11:26:38Z</time>
      </trkpt>
      <trkpt lat="43.75909" lon="3.56159">
        <ele>355.299</ele>
        <time>2013-03-09T11:26:44Z</time>
      </trkpt>
      <trkpt lat="43.75907" lon="3.56165">
        <ele>354.192</ele>
        <time>2013-03-09T11:26:48Z</time>
      </trkpt>
      <trkpt lat="43.75903" lon="3.56173">
        <ele>353.136</ele>
        <time>2013-03-09T11:26:54Z</time>
      </trkpt>
      <trkpt lat="43.75899" lon="3.56184">
        <ele>350.779</ele>
        <time>2013-03-09T11:27:01Z</time>
      </trkpt>
      <trkpt lat="43.75891" lon="3.56201">
        <ele>348.338</ele>
        <time>2013-03-09T11:27:16Z</time>
      </trkpt>
      <trkpt lat="43.75887" lon="3.56203">
        <ele>348.056</ele>
        <time>2013-03-09T11:27:27Z</time>
      </trkpt>
      <trkpt lat="43.75876" lon="3.562">
        <ele>346.932</ele>
        <time>2013-03-09T11:27:37Z</time>
      </trkpt>
      <trkpt lat="43.7586" lon="3.56189">
        <ele>345.323</ele>
        <time>2013-03-09T11:27:53Z</time>
      </trkpt>
      <trkpt lat="43.75854" lon="3.5618">
        <ele>344.073</ele>
        <time>2013-03-09T11:28:02Z</time>
      </trkpt>
      <trkpt lat="43.75845" lon="3.56175">
        <ele>342.92</ele>
        <time>2013-03-09T11:28:12Z</time>
      </trkpt>
      <trkpt lat="43.75842" lon="3.56179">
        <ele>342.076</ele>
        <time>2013-03-09T11:28:17Z</time>
      </trkpt>
      <trkpt lat="43.75839" lon="3.56187">
        <ele>341.087</ele>
        <time>2013-03-09T11:28:23Z</time>
      </trkpt>
      <trkpt lat="43.75838" lon="3.56192">
        <ele>340.937</ele>
        <time>2013-03-09T11:28:26Z</time>
      </trkpt>
      <trkpt lat="43.75827" lon="3.56208">
        <ele>338.78</ele>
        <time>2013-03-09T11:28:40Z</time>
      </trkpt>
      <trkpt lat="43.75822" lon="3.56212">
        <ele>338.945</ele>
        <time>2013-03-09T11:28:53Z</time>
      </trkpt>
      <trkpt lat="43.7582" lon="3.56208">
        <ele>338.67</ele>
        <time>2013-03-09T11:29:01Z</time>
      </trkpt>
      <trkpt lat="43.75822" lon="3.56191">
        <ele>339.519</ele>
        <time>2013-03-09T11:29:16Z</time>
      </trkpt>
      <trkpt lat="43.75822" lon="3.56178">
        <ele>340.305</ele>
        <time>2013-03-09T11:29:30Z</time>
      </trkpt>
      <trkpt lat="43.75817" lon="3.56151">
        <ele>340.548</ele>
        <time>2013-03-09T11:29:48Z</time>
      </trkpt>
      <trkpt lat="43.75816" lon="3.56136">
        <ele>341.854</ele>
        <time>2013-03-09T11:30:01Z</time>
      </trkpt>
      <trkpt lat="43.75812" lon="3.56124">
        <ele>342.203</ele>
        <time>2013-03-09T11:30:13Z</time>
      </trkpt>
      <trkpt lat="43.75812" lon="3.56113">
        <ele>343.136</ele>
        <time>2013-03-09T11:30:23Z</time>
      </trkpt>
      <trkpt lat="43.75809" lon="3.56104">
        <ele>343.781</ele>
        <time>2013-03-09T11:30:30Z</time>
      </trkpt>
      <trkpt lat="43.75806" lon="3.561">
        <ele>342.628</ele>
        <time>2013-03-09T11:30:34Z</time>
      </trkpt>
      <trkpt lat="43.75806" lon="3.56093">
        <ele>342.717</ele>
        <time>2013-03-09T11:30:38Z</time>
      </trkpt>
      <trkpt lat="43.75805" lon="3.5609">
        <ele>342.989</ele>
        <time>2013-03-09T11:30:41Z</time>
      </trkpt>
      <trkpt lat="43.758" lon="3.56069">
        <ele>342.658</ele>
        <time>2013-03-09T11:30:57Z</time>
      </trkpt>
      <trkpt lat="43.75795" lon="3.56044">
        <ele>342.358</ele>
        <time>2013-03-09T11:31:14Z</time>
      </trkpt>
      <trkpt lat="43.75785" lon="3.56019">
        <ele>343.765</ele>
        <time>2013-03-09T11:31:31Z</time>
      </trkpt>
      <trkpt lat="43.75773" lon="3.55998">
        <ele>345.874</ele>
        <time>2013-03-09T11:31:49Z</time>
      </trkpt>
      <trkpt lat="43.75763" lon="3.55983">
        <ele>346.595</ele>
        <time>2013-03-09T11:32:03Z</time>
      </trkpt>
      <trkpt lat="43.75755" lon="3.55966">
        <ele>348.189</ele>
        <time>2013-03-09T11:32:19Z</time>
      </trkpt>
      <trkpt lat="43.75752" lon="3.55958">
        <ele>348.122</ele>
        <time>2013-03-09T11:32:27Z</time>
      </trkpt>
      <trkpt lat="43.75748" lon="3.55955">
        <ele>348.073</ele>
        <time>2013-03-09T11:32:31Z</time>
      </trkpt>
      <trkpt lat="43.75743" lon="3.55941">
        <ele>348.785</ele>
        <time>2013-03-09T11:32:41Z</time>
      </trkpt>
      <trkpt lat="43.75742" lon="3.55937">
        <ele>349.205</ele>
        <time>2013-03-09T11:32:44Z</time>
      </trkpt>
      <trkpt lat="43.75727" lon="3.55912">
        <ele>348.32</ele>
        <time>2013-03-09T11:33:04Z</time>
      </trkpt>
      <trkpt lat="43.75716" lon="3.55887">
        <ele>349.462</ele>
        <time>2013-03-09T11:33:24Z</time>
      </trkpt>
      <trkpt lat="43.7571" lon="3.55873">
        <ele>351.582</ele>
        <time>2013-03-09T11:33:37Z</time>
      </trkpt>
      <trkpt lat="43.75708" lon="3.55871">
        <ele>352.245</ele>
        <time>2013-03-09T11:33:39Z</time>
      </trkpt>
      <trkpt lat="43.75705" lon="3.55862">
        <ele>352.892</ele>
        <time>2013-03-09T11:33:45Z</time>
      </trkpt>
      <trkpt lat="43.75697" lon="3.55844">
        <ele>353.934</ele>
        <time>2013-03-09T11:33:58Z</time>
      </trkpt>
      <trkpt lat="43.75699" lon="3.5583">
        <ele>353.152</ele>
        <time>2013-03-09T11:34:08Z</time>
      </trkpt>
      <trkpt lat="43.75701" lon="3.5581">
        <ele>353.603</ele>
        <time>2013-03-09T11:34:22Z</time>
      </trkpt>
      <trkpt lat="43.75703" lon="3.55783">
        <ele>353.636</ele>
        <time>2013-03-09T11:34:38Z</time>
      </trkpt>
      <trkpt lat="43.75704" lon="3.55781">
        <ele>353.895</ele>
        <time>2013-03-09T11:34:39Z</time>
      </trkpt>
      <trkpt lat="43.75705" lon="3.55769">
        <ele>353.49</ele>
        <time>2013-03-09T11:34:50Z</time>
      </trkpt>
      <trkpt lat="43.75703" lon="3.55747">
        <ele>353.37</ele>
        <time>2013-03-09T11:35:05Z</time>
      </trkpt>
      <trkpt lat="43.75701" lon="3.55733">
        <ele>354.455</ele>
        <time>2013-03-09T11:35:21Z</time>
      </trkpt>
      <trkpt lat="43.75695" lon="3.5572">
        <ele>355.636</ele>
        <time>2013-03-09T11:35:33Z</time>
      </trkpt>
      <trkpt lat="43.75687" lon="3.55699">
        <ele>355.516</ele>
        <time>2013-03-09T11:35:49Z</time>
      </trkpt>
      <trkpt lat="43.75683" lon="3.55683">
        <ele>355.463</ele>
        <time>2013-03-09T11:36:03Z</time>
      </trkpt>
      <trkpt lat="43.75683" lon="3.55675">
        <ele>356.46</ele>
        <time>2013-03-09T11:36:08Z</time>
      </trkpt>
      <trkpt lat="43.75684" lon="3.55667">
        <ele>357.608</ele>
        <time>2013-03-09T11:36:14Z</time>
      </trkpt>
      <trkpt lat="43.75685" lon="3.55666">
        <ele>357.9</ele>
        <time>2013-03-09T11:36:15Z</time>
      </trkpt>
      <trkpt lat="43.75684" lon="3.55662">
        <ele>357.245</ele>
        <time>2013-03-09T11:36:18Z</time>
      </trkpt>
      <trkpt lat="43.75682" lon="3.55655">
        <ele>356.775</ele>
        <time>2013-03-09T11:36:23Z</time>
      </trkpt>
      <trkpt lat="43.75682" lon="3.55652">
        <ele>356.937</ele>
        <time>2013-03-09T11:36:25Z</time>
      </trkpt>
      <trkpt lat="43.75684" lon="3.5565">
        <ele>356.647</ele>
        <time>2013-03-09T11:36:28Z</time>
      </trkpt>
      <trkpt lat="43.75688" lon="3.5562">
        <ele>354.43</ele>
        <time>2013-03-09T11:36:48Z</time>
      </trkpt>
      <trkpt lat="43.75688" lon="3.55615">
        <ele>354.599</ele>
        <time>2013-03-09T11:36:51Z</time>
      </trkpt>
      <trkpt lat="43.75686" lon="3.55591">
        <ele>352.726</ele>
        <time>2013-03-09T11:37:08Z</time>
      </trkpt>
      <trkpt lat="43.75687" lon="3.55576">
        <ele>351.137</ele>
        <time>2013-03-09T11:37:18Z</time>
      </trkpt>
      <trkpt lat="43.75686" lon="3.55574">
        <ele>350.943</ele>
        <time>2013-03-09T11:37:20Z</time>
      </trkpt>
      <trkpt lat="43.75685" lon="3.55565">
        <ele>348.791</ele>
        <time>2013-03-09T11:37:27Z</time>
      </trkpt>
      <trkpt lat="43.75686" lon="3.55559">
        <ele>348.337</ele>
        <time>2013-03-09T11:37:32Z</time>
      </trkpt>
      <trkpt lat="43.75686" lon="3.55549">
        <ele>346.997</ele>
        <time>2013-03-09T11:37:38Z</time>
      </trkpt>
      <trkpt lat="43.75684" lon="3.55534">
        <ele>346.034</ele>
        <time>2013-03-09T11:37:47Z</time>
      </trkpt>
      <trkpt lat="43.75682" lon="3.55531">
        <ele>345.817</ele>
        <time>2013-03-09T11:37:50Z</time>
      </trkpt>
      <trkpt lat="43.75682" lon="3.55526">
        <ele>345.956</ele>
        <time>2013-03-09T11:37:53Z</time>
      </trkpt>
      <trkpt lat="43.75682" lon="3.55523">
        <ele>345.525</ele>
        <time>2013-03-09T11:37:55Z</time>
      </trkpt>
      <trkpt lat="43.75682" lon="3.5552">
        <ele>346.098</ele>
        <time>2013-03-09T11:37:57Z</time>
      </trkpt>
      <trkpt lat="43.75679" lon="3.55513">
        <ele>346.083</ele>
        <time>2013-03-09T11:38:02Z</time>
      </trkpt>
      <trkpt lat="43.75676" lon="3.55511">
        <ele>345.911</ele>
        <time>2013-03-09T11:38:05Z</time>
      </trkpt>
      <trkpt lat="43.75667" lon="3.555">
        <ele>345.085</ele>
        <time>2013-03-09T11:38:19Z</time>
      </trkpt>
      <trkpt lat="43.75661" lon="3.55509">
        <ele>345.359</ele>
        <time>2013-03-09T11:38:34Z</time>
      </trkpt>
      <trkpt lat="43.75662" lon="3.55509">
        <ele>344.559</ele>
        <time>2013-03-09T11:39:17Z</time>
      </trkpt>
      <trkpt lat="43.75662" lon="3.55509">
        <ele>344.803</ele>
        <time>2013-03-09T11:39:36Z</time>
      </trkpt>
      <trkpt lat="43.75662" lon="3.55508">
        <ele>346.163</ele>
        <time>2013-03-09T11:39:57Z</time>
      </trkpt>
      <trkpt lat="43.75662" lon="3.55508">
        <ele>345.134</ele>
        <time>2013-03-09T11:40:18Z</time>
      </trkpt>
      <trkpt lat="43.75662" lon="3.55508">
        <ele>343.794</ele>
        <time>2013-03-09T11:40:51Z</time>
      </trkpt>
      <trkpt lat="43.75661" lon="3.55507">
        <ele>344.465</ele>
        <time>2013-03-09T11:41:15Z</time>
      </trkpt>
      <trkpt lat="43.75662" lon="3.55505">
        <ele>347.494</ele>
        <time>2013-03-09T11:42:31Z</time>
      </trkpt>
      <trkpt lat="43.75662" lon="3.55505">
        <ele>343.917</ele>
        <time>2013-03-09T11:42:36Z</time>
      </trkpt>
      <trkpt lat="43.75662" lon="3.55505">
        <ele>347.369</ele>
        <time>2013-03-09T11:42:37Z</time>
      </trkpt>
      <trkpt lat="43.75662" lon="3.55506">
        <ele>343.819</ele>
        <time>2013-03-09T11:42:47Z</time>
      </trkpt>
      <trkpt lat="43.7566" lon="3.55504">
        <ele>344.026</ele>
        <time>2013-03-09T11:43:57Z</time>
      </trkpt>
      <trkpt lat="43.7566" lon="3.55503">
        <ele>347.632</ele>
        <time>2013-03-09T11:44:11Z</time>
      </trkpt>
      <trkpt lat="43.75662" lon="3.55506">
        <ele>344.031</ele>
        <time>2013-03-09T11:44:52Z</time>
      </trkpt>
      <trkpt lat="43.75662" lon="3.55507">
        <ele>344.052</ele>
        <time>2013-03-09T11:46:08Z</time>
      </trkpt>
      <trkpt lat="43.75661" lon="3.55506">
        <ele>344.04</ele>
        <time>2013-03-09T11:47:10Z</time>
      </trkpt>
      <trkpt lat="43.75661" lon="3.55504">
        <ele>343.722</ele>
        <time>2013-03-09T11:48:45Z</time>
      </trkpt>
      <trkpt lat="43.75662" lon="3.55504">
        <ele>343.975</ele>
        <time>2013-03-09T11:51:11Z</time>
      </trkpt>
      <trkpt lat="43.75662" lon="3.55506">
        <ele>343.154</ele>
        <time>2013-03-09T11:57:28Z</time>
      </trkpt>
      <trkpt lat="43.75659" lon="3.55508">
        <ele>343.004</ele>
        <time>2013-03-09T11:58:58Z</time>
      </trkpt>
      <trkpt lat="43.75661" lon="3.55506">
        <ele>343.163</ele>
        <time>2013-03-09T12:00:33Z</time>
      </trkpt>
      <trkpt lat="43.75664" lon="3.55506">
        <ele>344.213</ele>
        <time>2013-03-09T12:03:05Z</time>
      </trkpt>
      <trkpt lat="43.75662" lon="3.55506">
        <ele>344.778</ele>
        <time>2013-03-09T12:07:37Z</time>
      </trkpt>
      <trkpt lat="43.75661" lon="3.55506">
        <ele>344.044</ele>
        <time>2013-03-09T12:09:07Z</time>
      </trkpt>
      <trkpt lat="43.75662" lon="3.55506">
        <ele>344.544</ele>
        <time>2013-03-09T12:10:20Z</time>
      </trkpt>
      <trkpt lat="43.75661" lon="3.55504">
        <ele>343.618</ele>
        <time>2013-03-09T12:10:51Z</time>
      </trkpt>
      <trkpt lat="43.75661" lon="3.55505">
        <ele>343.262</ele>
        <time>2013-03-09T12:11:32Z</time>
      </trkpt>
      <trkpt lat="43.75661" lon="3.55504">
        <ele>343.664</ele>
        <time>2013-03-09T12:11:52Z</time>
      </trkpt>
      <trkpt lat="43.75661" lon="3.55507">
        <ele>344.948</ele>
        <time>2013-03-09T12:12:08Z</time>
      </trkpt>
      <trkpt lat="43.75661" lon="3.55507">
        <ele>344.161</ele>
        <time>2013-03-09T12:13:19Z</time>
      </trkpt>
      <trkpt lat="43.75661" lon="3.55506">
        <ele>343.694</ele>
        <time>2013-03-09T12:13:58Z</time>
      </trkpt>
      <trkpt lat="43.75661" lon="3.55506">
        <ele>342.62</ele>
        <time>2013-03-09T12:14:28Z</time>
      </trkpt>
      <trkpt lat="43.75661" lon="3.55507">
        <ele>341.844</ele>
        <time>2013-03-09T12:15:02Z</time>
      </trkpt>
      <trkpt lat="43.75661" lon="3.55509">
        <ele>343.5</ele>
        <time>2013-03-09T12:15:19Z</time>
      </trkpt>
      <trkpt lat="43.75661" lon="3.55506">
        <ele>342.669</ele>
        <time>2013-03-09T12:17:16Z</time>
      </trkpt>
      <trkpt lat="43.75661" lon="3.55507">
        <ele>342.463</ele>
        <time>2013-03-09T12:18:33Z</time>
      </trkpt>
      <trkpt lat="43.7566" lon="3.55503">
        <ele>341.786</ele>
        <time>2013-03-09T12:19:14Z</time>
      </trkpt>
      <trkpt lat="43.75663" lon="3.55507">
        <ele>342.243</ele>
        <time>2013-03-09T12:21:18Z</time>
      </trkpt>
      <trkpt lat="43.75661" lon="3.55508">
        <ele>340.584</ele>
        <time>2013-03-09T12:27:36Z</time>
      </trkpt>
      <trkpt lat="43.75662" lon="3.55508">
        <ele>342.136</ele>
        <time>2013-03-09T12:28:34Z</time>
      </trkpt>
      <trkpt lat="43.75662" lon="3.55509">
        <ele>338.946</ele>
        <time>2013-03-09T12:35:20Z</time>
      </trkpt>
      <trkpt lat="43.75662" lon="3.55507">
        <ele>341.066</ele>
        <time>2013-03-09T12:35:36Z</time>
      </trkpt>
      <trkpt lat="43.75662" lon="3.55505">
        <ele>341.987</ele>
        <time>2013-03-09T12:35:58Z</time>
      </trkpt>
      <trkpt lat="43.75661" lon="3.55505">
        <ele>342.117</ele>
        <time>2013-03-09T12:36:33Z</time>
      </trkpt>
      <trkpt lat="43.75662" lon="3.55505">
        <ele>342.462</ele>
        <time>2013-03-09T12:36:50Z</time>
      </trkpt>
      <trkpt lat="43.75662" lon="3.55506">
        <ele>342.015</ele>
        <time>2013-03-09T12:37:06Z</time>
      </trkpt>
      <trkpt lat="43.75662" lon="3.55506">
        <ele>342.305</ele>
        <time>2013-03-09T12:37:38Z</time>
      </trkpt>
      <trkpt lat="43.75665" lon="3.555">
        <ele>342.202</ele>
        <time>2013-03-09T12:38:02Z</time>
      </trkpt>
      <trkpt lat="43.75666" lon="3.55499">
        <ele>341.824</ele>
        <time>2013-03-09T12:38:04Z</time>
      </trkpt>
      <trkpt lat="43.75673" lon="3.55479">
        <ele>340.132</ele>
        <time>2013-03-09T12:38:20Z</time>
      </trkpt>
      <trkpt lat="43.75675" lon="3.55473">
        <ele>338.76</ele>
        <time>2013-03-09T12:38:31Z</time>
      </trkpt>
      <trkpt lat="43.75676" lon="3.55465">
        <ele>337.928</ele>
        <time>2013-03-09T12:38:38Z</time>
      </trkpt>
      <trkpt lat="43.75677" lon="3.55452">
        <ele>334.803</ele>
        <time>2013-03-09T12:38:50Z</time>
      </trkpt>
      <trkpt lat="43.7568" lon="3.55443">
        <ele>333.286</ele>
        <time>2013-03-09T12:38:57Z</time>
      </trkpt>
      <trkpt lat="43.75681" lon="3.55435">
        <ele>332.813</ele>
        <time>2013-03-09T12:39:03Z</time>
      </trkpt>
      <trkpt lat="43.7568" lon="3.55413">
        <ele>330.825</ele>
        <time>2013-03-09T12:39:18Z</time>
      </trkpt>
      <trkpt lat="43.75679" lon="3.55412">
        <ele>330.569</ele>
        <time>2013-03-09T12:39:19Z</time>
      </trkpt>
      <trkpt lat="43.75678" lon="3.55408">
        <ele>330.634</ele>
        <time>2013-03-09T12:39:22Z</time>
      </trkpt>
      <trkpt lat="43.75676" lon="3.55405">
        <ele>330.037</ele>
        <time>2013-03-09T12:39:25Z</time>
      </trkpt>
      <trkpt lat="43.75674" lon="3.55381">
        <ele>327.318</ele>
        <time>2013-03-09T12:39:42Z</time>
      </trkpt>
      <trkpt lat="43.75673" lon="3.55379">
        <ele>327.386</ele>
        <time>2013-03-09T12:39:44Z</time>
      </trkpt>
      <trkpt lat="43.7567" lon="3.55363">
        <ele>328.042</ele>
        <time>2013-03-09T12:39:57Z</time>
      </trkpt>
      <trkpt lat="43.75667" lon="3.55361">
        <ele>327.409</ele>
        <time>2013-03-09T12:40:03Z</time>
      </trkpt>
      <trkpt lat="43.75652" lon="3.55357">
        <ele>330.413</ele>
        <time>2013-03-09T12:40:22Z</time>
      </trkpt>
      <trkpt lat="43.75647" lon="3.55356">
        <ele>332.21</ele>
        <time>2013-03-09T12:40:27Z</time>
      </trkpt>
      <trkpt lat="43.75631" lon="3.55358">
        <ele>331.502</ele>
        <time>2013-03-09T12:40:43Z</time>
      </trkpt>
      <trkpt lat="43.75616" lon="3.5536">
        <ele>330.458</ele>
        <time>2013-03-09T12:40:57Z</time>
      </trkpt>
      <trkpt lat="43.75609" lon="3.55359">
        <ele>330.372</ele>
        <time>2013-03-09T12:41:03Z</time>
      </trkpt>
      <trkpt lat="43.75604" lon="3.55358">
        <ele>329.998</ele>
        <time>2013-03-09T12:41:07Z</time>
      </trkpt>
      <trkpt lat="43.756" lon="3.55357">
        <ele>330.967</ele>
        <time>2013-03-09T12:41:12Z</time>
      </trkpt>
      <trkpt lat="43.7559" lon="3.55355">
        <ele>332.001</ele>
        <time>2013-03-09T12:41:25Z</time>
      </trkpt>
      <trkpt lat="43.75579" lon="3.55357">
        <ele>332.998</ele>
        <time>2013-03-09T12:41:39Z</time>
      </trkpt>
      <trkpt lat="43.7557" lon="3.55363">
        <ele>334.082</ele>
        <time>2013-03-09T12:41:52Z</time>
      </trkpt>
      <trkpt lat="43.7557" lon="3.55364">
        <ele>334.322</ele>
        <time>2013-03-09T12:41:53Z</time>
      </trkpt>
      <trkpt lat="43.7556" lon="3.55375">
        <ele>335.462</ele>
        <time>2013-03-09T12:42:06Z</time>
      </trkpt>
      <trkpt lat="43.75558" lon="3.55378">
        <ele>335.479</ele>
        <time>2013-03-09T12:42:11Z</time>
      </trkpt>
      <trkpt lat="43.75548" lon="3.55381">
        <ele>337.058</ele>
        <time>2013-03-09T12:42:24Z</time>
      </trkpt>
      <trkpt lat="43.75539" lon="3.55384">
        <ele>337.128</ele>
        <time>2013-03-09T12:42:39Z</time>
      </trkpt>
      <trkpt lat="43.75532" lon="3.55385">
        <ele>339.277</ele>
        <time>2013-03-09T12:42:56Z</time>
      </trkpt>
      <trkpt lat="43.75525" lon="3.55384">
        <ele>339.825</ele>
        <time>2013-03-09T12:43:09Z</time>
      </trkpt>
      <trkpt lat="43.75523" lon="3.55384">
        <ele>338.897</ele>
        <time>2013-03-09T12:43:13Z</time>
      </trkpt>
      <trkpt lat="43.75512" lon="3.55386">
        <ele>339.947</ele>
        <time>2013-03-09T12:43:23Z</time>
      </trkpt>
      <trkpt lat="43.755" lon="3.55394">
        <ele>340.132</ele>
        <time>2013-03-09T12:43:38Z</time>
      </trkpt>
      <trkpt lat="43.75494" lon="3.55398">
        <ele>340.433</ele>
        <time>2013-03-09T12:43:45Z</time>
      </trkpt>
      <trkpt lat="43.75487" lon="3.55404">
        <ele>338.982</ele>
        <time>2013-03-09T12:43:53Z</time>
      </trkpt>
      <trkpt lat="43.75477" lon="3.55403">
        <ele>340.409</ele>
        <time>2013-03-09T12:44:02Z</time>
      </trkpt>
      <trkpt lat="43.75464" lon="3.55402">
        <ele>340.276</ele>
        <time>2013-03-09T12:44:17Z</time>
      </trkpt>
      <trkpt lat="43.75448" lon="3.55395">
        <ele>338.258</ele>
        <time>2013-03-09T12:44:34Z</time>
      </trkpt>
      <trkpt lat="43.75434" lon="3.55387">
        <ele>338.307</ele>
        <time>2013-03-09T12:44:49Z</time>
      </trkpt>
      <trkpt lat="43.75423" lon="3.5538">
        <ele>337.281</ele>
        <time>2013-03-09T12:45:04Z</time>
      </trkpt>
      <trkpt lat="43.7542" lon="3.55377">
        <ele>335.876</ele>
        <time>2013-03-09T12:45:09Z</time>
      </trkpt>
      <trkpt lat="43.75403" lon="3.55371">
        <ele>335.884</ele>
        <time>2013-03-09T12:45:25Z</time>
      </trkpt>
      <trkpt lat="43.75391" lon="3.55367">
        <ele>335.25</ele>
        <time>2013-03-09T12:45:37Z</time>
      </trkpt>
      <trkpt lat="43.75378" lon="3.55361">
        <ele>334.138</ele>
        <time>2013-03-09T12:45:49Z</time>
      </trkpt>
      <trkpt lat="43.75371" lon="3.55353">
        <ele>333.593</ele>
        <time>2013-03-09T12:45:58Z</time>
      </trkpt>
      <trkpt lat="43.75365" lon="3.55345">
        <ele>332.356</ele>
        <time>2013-03-09T12:46:07Z</time>
      </trkpt>
      <trkpt lat="43.7536" lon="3.55332">
        <ele>330.202</ele>
        <time>2013-03-09T12:46:22Z</time>
      </trkpt>
      <trkpt lat="43.75355" lon="3.55318">
        <ele>327.171</ele>
        <time>2013-03-09T12:46:36Z</time>
      </trkpt>
      <trkpt lat="43.75351" lon="3.55312">
        <ele>324.551</ele>
        <time>2013-03-09T12:46:50Z</time>
      </trkpt>
      <trkpt lat="43.75351" lon="3.5531">
        <ele>323</ele>
        <time>2013-03-09T12:46:52Z</time>
      </trkpt>
      <trkpt lat="43.75349" lon="3.55308">
        <ele>321.801</ele>
        <time>2013-03-09T12:46:55Z</time>
      </trkpt>
      <trkpt lat="43.75345" lon="3.55298">
        <ele>318.904</ele>
        <time>2013-03-09T12:47:04Z</time>
      </trkpt>
      <trkpt lat="43.75339" lon="3.55283">
        <ele>315.917</ele>
        <time>2013-03-09T12:47:18Z</time>
      </trkpt>
      <trkpt lat="43.75334" lon="3.55259">
        <ele>315.427</ele>
        <time>2013-03-09T12:47:34Z</time>
      </trkpt>
      <trkpt lat="43.75326" lon="3.55252">
        <ele>313.602</ele>
        <time>2013-03-09T12:47:42Z</time>
      </trkpt>
      <trkpt lat="43.75323" lon="3.55246">
        <ele>312.598</ele>
        <time>2013-03-09T12:47:47Z</time>
      </trkpt>
      <trkpt lat="43.75322" lon="3.55236">
        <ele>311.928</ele>
        <time>2013-03-09T12:47:54Z</time>
      </trkpt>
      <trkpt lat="43.75319" lon="3.55233">
        <ele>311.098</ele>
        <time>2013-03-09T12:47:58Z</time>
      </trkpt>
      <trkpt lat="43.75311" lon="3.55222">
        <ele>310.639</ele>
        <time>2013-03-09T12:48:07Z</time>
      </trkpt>
      <trkpt lat="43.75303" lon="3.55219">
        <ele>310.617</ele>
        <time>2013-03-09T12:48:14Z</time>
      </trkpt>
      <trkpt lat="43.75296" lon="3.55219">
        <ele>310.987</ele>
        <time>2013-03-09T12:48:20Z</time>
      </trkpt>
      <trkpt lat="43.75289" lon="3.55215">
        <ele>311.682</ele>
        <time>2013-03-09T12:48:27Z</time>
      </trkpt>
      <trkpt lat="43.75279" lon="3.55212">
        <ele>315.37</ele>
        <time>2013-03-09T12:48:39Z</time>
      </trkpt>
      <trkpt lat="43.75278" lon="3.55212">
        <ele>315.574</ele>
        <time>2013-03-09T12:48:40Z</time>
      </trkpt>
      <trkpt lat="43.75272" lon="3.55217">
        <ele>316.585</ele>
        <time>2013-03-09T12:48:49Z</time>
      </trkpt>
      <trkpt lat="43.75267" lon="3.55222">
        <ele>316.916</ele>
        <time>2013-03-09T12:48:56Z</time>
      </trkpt>
      <trkpt lat="43.75265" lon="3.55231">
        <ele>316.398</ele>
        <time>2013-03-09T12:49:04Z</time>
      </trkpt>
      <trkpt lat="43.75264" lon="3.55235">
        <ele>316.761</ele>
        <time>2013-03-09T12:49:07Z</time>
      </trkpt>
      <trkpt lat="43.75257" lon="3.55239">
        <ele>317.106</ele>
        <time>2013-03-09T12:49:14Z</time>
      </trkpt>
      <trkpt lat="43.75243" lon="3.5525">
        <ele>317.146</ele>
        <time>2013-03-09T12:49:31Z</time>
      </trkpt>
      <trkpt lat="43.75225" lon="3.55255">
        <ele>316.939</ele>
        <time>2013-03-09T12:49:47Z</time>
      </trkpt>
      <trkpt lat="43.75208" lon="3.5525">
        <ele>316.953</ele>
        <time>2013-03-09T12:50:03Z</time>
      </trkpt>
      <trkpt lat="43.75204" lon="3.55251">
        <ele>316.987</ele>
        <time>2013-03-09T12:50:07Z</time>
      </trkpt>
      <trkpt lat="43.752" lon="3.5526">
        <ele>315.124</ele>
        <time>2013-03-09T12:50:14Z</time>
      </trkpt>
      <trkpt lat="43.75197" lon="3.55262">
        <ele>313.595</ele>
        <time>2013-03-09T12:50:17Z</time>
      </trkpt>
      <trkpt lat="43.75192" lon="3.55266">
        <ele>314.815</ele>
        <time>2013-03-09T12:50:22Z</time>
      </trkpt>
      <trkpt lat="43.7519" lon="3.55268">
        <ele>314.701</ele>
        <time>2013-03-09T12:50:24Z</time>
      </trkpt>
      <trkpt lat="43.75177" lon="3.55269">
        <ele>317.085</ele>
        <time>2013-03-09T12:50:39Z</time>
      </trkpt>
      <trkpt lat="43.75177" lon="3.55269">
        <ele>317.075</ele>
        <time>2013-03-09T12:50:40Z</time>
      </trkpt>
      <trkpt lat="43.75176" lon="3.5527">
        <ele>316.035</ele>
        <time>2013-03-09T12:50:52Z</time>
      </trkpt>
      <trkpt lat="43.75175" lon="3.5527">
        <ele>314.137</ele>
        <time>2013-03-09T12:51:24Z</time>
      </trkpt>
      <trkpt lat="43.75175" lon="3.55269">
        <ele>316.195</ele>
        <time>2013-03-09T12:51:27Z</time>
      </trkpt>
      <trkpt lat="43.75175" lon="3.5527">
        <ele>315.186</ele>
        <time>2013-03-09T12:51:33Z</time>
      </trkpt>
      <trkpt lat="43.75175" lon="3.5527">
        <ele>307.525</ele>
        <time>2013-03-09T12:51:34Z</time>
      </trkpt>
      <trkpt lat="43.75174" lon="3.55269">
        <ele>318.041</ele>
        <time>2013-03-09T12:51:35Z</time>
      </trkpt>
      <trkpt lat="43.75174" lon="3.55269">
        <ele>314.242</ele>
        <time>2013-03-09T12:51:36Z</time>
      </trkpt>
      <trkpt lat="43.75171" lon="3.55272">
        <ele>316.761</ele>
        <time>2013-03-09T12:51:48Z</time>
      </trkpt>
      <trkpt lat="43.75162" lon="3.55271">
        <ele>316.111</ele>
        <time>2013-03-09T12:51:59Z</time>
      </trkpt>
      <trkpt lat="43.75147" lon="3.55268">
        <ele>316.202</ele>
        <time>2013-03-09T12:52:15Z</time>
      </trkpt>
      <trkpt lat="43.75147" lon="3.55267">
        <ele>315.642</ele>
        <time>2013-03-09T12:52:16Z</time>
      </trkpt>
      <trkpt lat="43.75142" lon="3.55264">
        <ele>315.23</ele>
        <time>2013-03-09T12:52:31Z</time>
      </trkpt>
      <trkpt lat="43.75142" lon="3.55264">
        <ele>315.343</ele>
        <time>2013-03-09T12:52:47Z</time>
      </trkpt>
      <trkpt lat="43.75144" lon="3.5526">
        <ele>315.211</ele>
        <time>2013-03-09T12:53:01Z</time>
      </trkpt>
      <trkpt lat="43.75141" lon="3.55255">
        <ele>314.86</ele>
        <time>2013-03-09T12:53:07Z</time>
      </trkpt>
      <trkpt lat="43.75136" lon="3.55255">
        <ele>314.812</ele>
        <time>2013-03-09T12:53:11Z</time>
      </trkpt>
      <trkpt lat="43.7513" lon="3.5525">
        <ele>314.613</ele>
        <time>2013-03-09T12:53:17Z</time>
      </trkpt>
      <trkpt lat="43.75121" lon="3.55243">
        <ele>313.452</ele>
        <time>2013-03-09T12:53:27Z</time>
      </trkpt>
      <trkpt lat="43.75108" lon="3.55244">
        <ele>313.61</ele>
        <time>2013-03-09T12:53:39Z</time>
      </trkpt>
      <trkpt lat="43.751" lon="3.55241">
        <ele>313.098</ele>
        <time>2013-03-09T12:53:46Z</time>
      </trkpt>
      <trkpt lat="43.75096" lon="3.55236">
        <ele>312.844</ele>
        <time>2013-03-09T12:53:52Z</time>
      </trkpt>
      <trkpt lat="43.75092" lon="3.55217">
        <ele>311.375</ele>
        <time>2013-03-09T12:54:08Z</time>
      </trkpt>
      <trkpt lat="43.75092" lon="3.55203">
        <ele>310.048</ele>
        <time>2013-03-09T12:54:20Z</time>
      </trkpt>
      <trkpt lat="43.75092" lon="3.55189">
        <ele>307.814</ele>
        <time>2013-03-09T12:54:31Z</time>
      </trkpt>
      <trkpt lat="43.75092" lon="3.55183">
        <ele>307.982</ele>
        <time>2013-03-09T12:54:38Z</time>
      </trkpt>
      <trkpt lat="43.75089" lon="3.55171">
        <ele>306.427</ele>
        <time>2013-03-09T12:54:51Z</time>
      </trkpt>
      <trkpt lat="43.75087" lon="3.55169">
        <ele>306.416</ele>
        <time>2013-03-09T12:54:54Z</time>
      </trkpt>
      <trkpt lat="43.75085" lon="3.55168">
        <ele>305.765</ele>
        <time>2013-03-09T12:54:56Z</time>
      </trkpt>
      <trkpt lat="43.75076" lon="3.55159">
        <ele>305.293</ele>
        <time>2013-03-09T12:55:11Z</time>
      </trkpt>
      <trkpt lat="43.75072" lon="3.55151">
        <ele>304.176</ele>
        <time>2013-03-09T12:55:24Z</time>
      </trkpt>
      <trkpt lat="43.75071" lon="3.55148">
        <ele>303.906</ele>
        <time>2013-03-09T12:55:27Z</time>
      </trkpt>
      <trkpt lat="43.75069" lon="3.55143">
        <ele>303.826</ele>
        <time>2013-03-09T12:55:31Z</time>
      </trkpt>
      <trkpt lat="43.75062" lon="3.55127">
        <ele>302.492</ele>
        <time>2013-03-09T12:55:48Z</time>
      </trkpt>
      <trkpt lat="43.75062" lon="3.55113">
        <ele>300.715</ele>
        <time>2013-03-09T12:56:05Z</time>
      </trkpt>
      <trkpt lat="43.75065" lon="3.55111">
        <ele>301.104</ele>
        <time>2013-03-09T12:56:13Z</time>
      </trkpt>
      <trkpt lat="43.75069" lon="3.55111">
        <ele>302.65</ele>
        <time>2013-03-09T12:56:23Z</time>
      </trkpt>
      <trkpt lat="43.75067" lon="3.55118">
        <ele>302.755</ele>
        <time>2013-03-09T12:56:36Z</time>
      </trkpt>
      <trkpt lat="43.75067" lon="3.55116">
        <ele>302.667</ele>
        <time>2013-03-09T12:56:45Z</time>
      </trkpt>
      <trkpt lat="43.7507" lon="3.55121">
        <ele>304.453</ele>
        <time>2013-03-09T12:56:50Z</time>
      </trkpt>
      <trkpt lat="43.75072" lon="3.55122">
        <ele>305.157</ele>
        <time>2013-03-09T12:56:52Z</time>
      </trkpt>
      <trkpt lat="43.75072" lon="3.55122">
        <ele>304.877</ele>
        <time>2013-03-09T12:56:53Z</time>
      </trkpt>
      <trkpt lat="43.75074" lon="3.55124">
        <ele>306.717</ele>
        <time>2013-03-09T12:56:55Z</time>
      </trkpt>
      <trkpt lat="43.75074" lon="3.5513">
        <ele>306.304</ele>
        <time>2013-03-09T12:57:08Z</time>
      </trkpt>
      <trkpt lat="43.75072" lon="3.55128">
        <ele>305.869</ele>
        <time>2013-03-09T12:57:12Z</time>
      </trkpt>
      <trkpt lat="43.75071" lon="3.5512">
        <ele>304.733</ele>
        <time>2013-03-09T12:57:19Z</time>
      </trkpt>
      <trkpt lat="43.75069" lon="3.55112">
        <ele>303.427</ele>
        <time>2013-03-09T12:57:30Z</time>
      </trkpt>
      <trkpt lat="43.75069" lon="3.55111">
        <ele>302.179</ele>
        <time>2013-03-09T12:57:46Z</time>
      </trkpt>
      <trkpt lat="43.75071" lon="3.55108">
        <ele>302.523</ele>
        <time>2013-03-09T12:58:19Z</time>
      </trkpt>
      <trkpt lat="43.75073" lon="3.55106">
        <ele>304.075</ele>
        <time>2013-03-09T12:58:21Z</time>
      </trkpt>
      <trkpt lat="43.75075" lon="3.55106">
        <ele>305.764</ele>
        <time>2013-03-09T12:58:36Z</time>
      </trkpt>
      <trkpt lat="43.75077" lon="3.55103">
        <ele>306.589</ele>
        <time>2013-03-09T12:59:04Z</time>
      </trkpt>
      <trkpt lat="43.75066" lon="3.5511">
        <ele>310.132</ele>
        <time>2013-03-09T12:59:24Z</time>
      </trkpt>
      <trkpt lat="43.75066" lon="3.5511">
        <ele>309.604</ele>
        <time>2013-03-09T12:59:25Z</time>
      </trkpt>
      <trkpt lat="43.75066" lon="3.5511">
        <ele>308.948</ele>
        <time>2013-03-09T12:59:36Z</time>
      </trkpt>
      <trkpt lat="43.75058" lon="3.55105">
        <ele>308.8</ele>
        <time>2013-03-09T13:02:35Z</time>
      </trkpt>
      <trkpt lat="43.75065" lon="3.55101">
        <ele>306.003</ele>
        <time>2013-03-09T13:03:26Z</time>
      </trkpt>
      <trkpt lat="43.75055" lon="3.55114">
        <ele>306.324</ele>
        <time>2013-03-09T13:03:42Z</time>
      </trkpt>
      <trkpt lat="43.75067" lon="3.55113">
        <ele>305.824</ele>
        <time>2013-03-09T13:05:06Z</time>
      </trkpt>
      <trkpt lat="43.75068" lon="3.55113">
        <ele>304.254</ele>
        <time>2013-03-09T13:05:26Z</time>
      </trkpt>
      <trkpt lat="43.75068" lon="3.55112">
        <ele>304.107</ele>
        <time>2013-03-09T13:05:31Z</time>
      </trkpt>
      <trkpt lat="43.75067" lon="3.5512">
        <ele>305.728</ele>
        <time>2013-03-09T13:05:40Z</time>
      </trkpt>
      <trkpt lat="43.75068" lon="3.55123">
        <ele>304.61</ele>
        <time>2013-03-09T13:05:42Z</time>
      </trkpt>
      <trkpt lat="43.75075" lon="3.55129">
        <ele>306.591</ele>
        <time>2013-03-09T13:05:51Z</time>
      </trkpt>
      <trkpt lat="43.75075" lon="3.55132">
        <ele>306.726</ele>
        <time>2013-03-09T13:06:03Z</time>
      </trkpt>
      <trkpt lat="43.75079" lon="3.55132">
        <ele>306.144</ele>
        <time>2013-03-09T13:06:18Z</time>
      </trkpt>
      <trkpt lat="43.75076" lon="3.55136">
        <ele>307.01</ele>
        <time>2013-03-09T13:06:31Z</time>
      </trkpt>
      <trkpt lat="43.75078" lon="3.55139">
        <ele>308.779</ele>
        <time>2013-03-09T13:06:35Z</time>
      </trkpt>
      <trkpt lat="43.75083" lon="3.55144">
        <ele>309.542</ele>
        <time>2013-03-09T13:06:42Z</time>
      </trkpt>
      <trkpt lat="43.75087" lon="3.55143">
        <ele>312.837</ele>
        <time>2013-03-09T13:06:49Z</time>
      </trkpt>
      <trkpt lat="43.75092" lon="3.55143">
        <ele>314.232</ele>
        <time>2013-03-09T13:07:02Z</time>
      </trkpt>
      <trkpt lat="43.75095" lon="3.55138">
        <ele>315.105</ele>
        <time>2013-03-09T13:07:22Z</time>
      </trkpt>
      <trkpt lat="43.75108" lon="3.55163">
        <ele>315.279</ele>
        <time>2013-03-09T13:07:38Z</time>
      </trkpt>
      <trkpt lat="43.75088" lon="3.55143">
        <ele>313.876</ele>
        <time>2013-03-09T13:07:55Z</time>
      </trkpt>
      <trkpt lat="43.75092" lon="3.55138">
        <ele>314.092</ele>
        <time>2013-03-09T13:08:24Z</time>
      </trkpt>
      <trkpt lat="43.75094" lon="3.55136">
        <ele>313.959</ele>
        <time>2013-03-09T13:08:47Z</time>
      </trkpt>
      <trkpt lat="43.75094" lon="3.55136">
        <ele>315.386</ele>
        <time>2013-03-09T13:09:08Z</time>
      </trkpt>
      <trkpt lat="43.7509" lon="3.55138">
        <ele>312.134</ele>
        <time>2013-03-09T13:09:27Z</time>
      </trkpt>
      <trkpt lat="43.75089" lon="3.55137">
        <ele>308.591</ele>
        <time>2013-03-09T13:09:38Z</time>
      </trkpt>
      <trkpt lat="43.75086" lon="3.55141">
        <ele>308.585</ele>
        <time>2013-03-09T13:09:59Z</time>
      </trkpt>
      <trkpt lat="43.75082" lon="3.55144">
        <ele>307.429</ele>
        <time>2013-03-09T13:10:18Z</time>
      </trkpt>
      <trkpt lat="43.75081" lon="3.55143">
        <ele>308.691</ele>
        <time>2013-03-09T13:10:41Z</time>
      </trkpt>
      <trkpt lat="43.75079" lon="3.55133">
        <ele>306.01</ele>
        <time>2013-03-09T13:10:58Z</time>
      </trkpt>
      <trkpt lat="43.75077" lon="3.55137">
        <ele>306.012</ele>
        <time>2013-03-09T13:11:19Z</time>
      </trkpt>
      <trkpt lat="43.75078" lon="3.55138">
        <ele>306.047</ele>
        <time>2013-03-09T13:12:21Z</time>
      </trkpt>
      <trkpt lat="43.75075" lon="3.55131">
        <ele>307.471</ele>
        <time>2013-03-09T13:12:41Z</time>
      </trkpt>
      <trkpt lat="43.75075" lon="3.55124">
        <ele>305.617</ele>
        <time>2013-03-09T13:12:58Z</time>
      </trkpt>
      <trkpt lat="43.75074" lon="3.55123">
        <ele>304.952</ele>
        <time>2013-03-09T13:13:00Z</time>
      </trkpt>
      <trkpt lat="43.7507" lon="3.55116">
        <ele>303.796</ele>
        <time>2013-03-09T13:13:16Z</time>
      </trkpt>
      <trkpt lat="43.7507" lon="3.55108">
        <ele>301.795</ele>
        <time>2013-03-09T13:13:34Z</time>
      </trkpt>
      <trkpt lat="43.75067" lon="3.55108">
        <ele>301.659</ele>
        <time>2013-03-09T13:13:48Z</time>
      </trkpt>
      <trkpt lat="43.75065" lon="3.55104">
        <ele>298.067</ele>
        <time>2013-03-09T13:14:01Z</time>
      </trkpt>
      <trkpt lat="43.75065" lon="3.55102">
        <ele>298.817</ele>
        <time>2013-03-09T13:14:03Z</time>
      </trkpt>
      <trkpt lat="43.75065" lon="3.55094">
        <ele>296.621</ele>
        <time>2013-03-09T13:14:09Z</time>
      </trkpt>
      <trkpt lat="43.75061" lon="3.55092">
        <ele>297.222</ele>
        <time>2013-03-09T13:14:14Z</time>
      </trkpt>
      <trkpt lat="43.75054" lon="3.55094">
        <ele>296.092</ele>
        <time>2013-03-09T13:14:30Z</time>
      </trkpt>
      <trkpt lat="43.75049" lon="3.55087">
        <ele>295.637</ele>
        <time>2013-03-09T13:14:38Z</time>
      </trkpt>
      <trkpt lat="43.75042" lon="3.55081">
        <ele>295.874</ele>
        <time>2013-03-09T13:14:45Z</time>
      </trkpt>
      <trkpt lat="43.75036" lon="3.5507">
        <ele>296.019</ele>
        <time>2013-03-09T13:14:59Z</time>
      </trkpt>
      <trkpt lat="43.75031" lon="3.55062">
        <ele>294.645</ele>
        <time>2013-03-09T13:15:08Z</time>
      </trkpt>
      <trkpt lat="43.75024" lon="3.55051">
        <ele>293.898</ele>
        <time>2013-03-09T13:15:20Z</time>
      </trkpt>
      <trkpt lat="43.75015" lon="3.55039">
        <ele>293.672</ele>
        <time>2013-03-09T13:15:31Z</time>
      </trkpt>
      <trkpt lat="43.7501" lon="3.55035">
        <ele>293.311</ele>
        <time>2013-03-09T13:15:36Z</time>
      </trkpt>
      <trkpt lat="43.75007" lon="3.55031">
        <ele>293.419</ele>
        <time>2013-03-09T13:15:40Z</time>
      </trkpt>
      <trkpt lat="43.74994" lon="3.55023">
        <ele>290.318</ele>
        <time>2013-03-09T13:15:56Z</time>
      </trkpt>
      <trkpt lat="43.7499" lon="3.5501">
        <ele>288.42</ele>
        <time>2013-03-09T13:16:10Z</time>
      </trkpt>
      <trkpt lat="43.7499" lon="3.55007">
        <ele>287.134</ele>
        <time>2013-03-09T13:16:12Z</time>
      </trkpt>
      <trkpt lat="43.74989" lon="3.55004">
        <ele>286.509</ele>
        <time>2013-03-09T13:16:14Z</time>
      </trkpt>
      <trkpt lat="43.74994" lon="3.54991">
        <ele>287.581</ele>
        <time>2013-03-09T13:16:26Z</time>
      </trkpt>
      <trkpt lat="43.74995" lon="3.54989">
        <ele>287.235</ele>
        <time>2013-03-09T13:16:42Z</time>
      </trkpt>
      <trkpt lat="43.74995" lon="3.54988">
        <ele>287.684</ele>
        <time>2013-03-09T13:16:49Z</time>
      </trkpt>
      <trkpt lat="43.74996" lon="3.5498">
        <ele>286.701</ele>
        <time>2013-03-09T13:16:56Z</time>
      </trkpt>
      <trkpt lat="43.75" lon="3.54976">
        <ele>286.345</ele>
        <time>2013-03-09T13:17:00Z</time>
      </trkpt>
      <trkpt lat="43.75002" lon="3.54971">
        <ele>286.431</ele>
        <time>2013-03-09T13:17:04Z</time>
      </trkpt>
      <trkpt lat="43.75003" lon="3.54959">
        <ele>285.633</ele>
        <time>2013-03-09T13:17:12Z</time>
      </trkpt>
      <trkpt lat="43.75001" lon="3.54957">
        <ele>284.408</ele>
        <time>2013-03-09T13:17:15Z</time>
      </trkpt>
      <trkpt lat="43.75003" lon="3.54943">
        <ele>285.645</ele>
        <time>2013-03-09T13:17:29Z</time>
      </trkpt>
      <trkpt lat="43.75005" lon="3.54931">
        <ele>286.307</ele>
        <time>2013-03-09T13:17:51Z</time>
      </trkpt>
      <trkpt lat="43.75014" lon="3.54916">
        <ele>285.926</ele>
        <time>2013-03-09T13:18:05Z</time>
      </trkpt>
      <trkpt lat="43.75021" lon="3.54901">
        <ele>286.6</ele>
        <time>2013-03-09T13:18:19Z</time>
      </trkpt>
      <trkpt lat="43.75023" lon="3.54893">
        <ele>286.485</ele>
        <time>2013-03-09T13:18:30Z</time>
      </trkpt>
      <trkpt lat="43.75023" lon="3.5489">
        <ele>287.286</ele>
        <time>2013-03-09T13:18:32Z</time>
      </trkpt>
      <trkpt lat="43.75024" lon="3.54884">
        <ele>286.973</ele>
        <time>2013-03-09T13:18:37Z</time>
      </trkpt>
      <trkpt lat="43.75029" lon="3.54879">
        <ele>288.062</ele>
        <time>2013-03-09T13:18:41Z</time>
      </trkpt>
      <trkpt lat="43.75033" lon="3.5487">
        <ele>287.136</ele>
        <time>2013-03-09T13:18:48Z</time>
      </trkpt>
      <trkpt lat="43.75034" lon="3.54868">
        <ele>286.975</ele>
        <time>2013-03-09T13:18:50Z</time>
      </trkpt>
      <trkpt lat="43.75041" lon="3.54861">
        <ele>287.249</ele>
        <time>2013-03-09T13:19:03Z</time>
      </trkpt>
      <trkpt lat="43.75047" lon="3.54854">
        <ele>287.861</ele>
        <time>2013-03-09T13:19:15Z</time>
      </trkpt>
      <trkpt lat="43.75054" lon="3.54844">
        <ele>290.13</ele>
        <time>2013-03-09T13:19:33Z</time>
      </trkpt>
      <trkpt lat="43.75062" lon="3.54837">
        <ele>289.087</ele>
        <time>2013-03-09T13:19:44Z</time>
      </trkpt>
      <trkpt lat="43.75074" lon="3.54839">
        <ele>290.524</ele>
        <time>2013-03-09T13:19:55Z</time>
      </trkpt>
      <trkpt lat="43.75083" lon="3.54828">
        <ele>290.761</ele>
        <time>2013-03-09T13:20:08Z</time>
      </trkpt>
      <trkpt lat="43.75094" lon="3.54816">
        <ele>290.539</ele>
        <time>2013-03-09T13:20:22Z</time>
      </trkpt>
      <trkpt lat="43.75098" lon="3.54813">
        <ele>291.457</ele>
        <time>2013-03-09T13:20:28Z</time>
      </trkpt>
      <trkpt lat="43.75108" lon="3.54816">
        <ele>290.822</ele>
        <time>2013-03-09T13:20:41Z</time>
      </trkpt>
      <trkpt lat="43.75115" lon="3.54812">
        <ele>290.946</ele>
        <time>2013-03-09T13:20:55Z</time>
      </trkpt>
      <trkpt lat="43.75122" lon="3.54812">
        <ele>291.191</ele>
        <time>2013-03-09T13:21:11Z</time>
      </trkpt>
      <trkpt lat="43.75131" lon="3.54812">
        <ele>290.531</ele>
        <time>2013-03-09T13:21:22Z</time>
      </trkpt>
      <trkpt lat="43.75134" lon="3.54812">
        <ele>291.173</ele>
        <time>2013-03-09T13:21:25Z</time>
      </trkpt>
      <trkpt lat="43.75143" lon="3.54805">
        <ele>292.378</ele>
        <time>2013-03-09T13:21:37Z</time>
      </trkpt>
      <trkpt lat="43.75147" lon="3.54797">
        <ele>292.094</ele>
        <time>2013-03-09T13:21:48Z</time>
      </trkpt>
      <trkpt lat="43.75151" lon="3.5479">
        <ele>291.885</ele>
        <time>2013-03-09T13:21:58Z</time>
      </trkpt>
      <trkpt lat="43.75153" lon="3.54785">
        <ele>292.161</ele>
        <time>2013-03-09T13:22:02Z</time>
      </trkpt>
      <trkpt lat="43.75156" lon="3.54772">
        <ele>293.353</ele>
        <time>2013-03-09T13:22:16Z</time>
      </trkpt>
      <trkpt lat="43.75158" lon="3.54763">
        <ele>293.98</ele>
        <time>2013-03-09T13:22:25Z</time>
      </trkpt>
      <trkpt lat="43.75165" lon="3.54758">
        <ele>294.881</ele>
        <time>2013-03-09T13:22:37Z</time>
      </trkpt>
      <trkpt lat="43.7517" lon="3.54751">
        <ele>295.344</ele>
        <time>2013-03-09T13:22:51Z</time>
      </trkpt>
      <trkpt lat="43.75176" lon="3.54746">
        <ele>296.07</ele>
        <time>2013-03-09T13:23:07Z</time>
      </trkpt>
      <trkpt lat="43.75177" lon="3.54733">
        <ele>298.055</ele>
        <time>2013-03-09T13:23:22Z</time>
      </trkpt>
      <trkpt lat="43.75183" lon="3.54721">
        <ele>300.001</ele>
        <time>2013-03-09T13:23:35Z</time>
      </trkpt>
      <trkpt lat="43.75192" lon="3.54711">
        <ele>301.384</ele>
        <time>2013-03-09T13:23:46Z</time>
      </trkpt>
      <trkpt lat="43.75201" lon="3.54703">
        <ele>301.608</ele>
        <time>2013-03-09T13:23:59Z</time>
      </trkpt>
      <trkpt lat="43.75205" lon="3.54692">
        <ele>303.018</ele>
        <time>2013-03-09T13:24:10Z</time>
      </trkpt>
      <trkpt lat="43.75209" lon="3.54684">
        <ele>306.164</ele>
        <time>2013-03-09T13:24:28Z</time>
      </trkpt>
      <trkpt lat="43.75209" lon="3.54683">
        <ele>303.022</ele>
        <time>2013-03-09T13:24:57Z</time>
      </trkpt>
      <trkpt lat="43.75209" lon="3.54682">
        <ele>306.884</ele>
        <time>2013-03-09T13:25:00Z</time>
      </trkpt>
      <trkpt lat="43.75209" lon="3.54682">
        <ele>301.216</ele>
        <time>2013-03-09T13:25:02Z</time>
      </trkpt>
      <trkpt lat="43.75209" lon="3.54682">
        <ele>305.676</ele>
        <time>2013-03-09T13:25:03Z</time>
      </trkpt>
      <trkpt lat="43.75211" lon="3.54677">
        <ele>305.765</ele>
        <time>2013-03-09T13:25:47Z</time>
      </trkpt>
      <trkpt lat="43.75213" lon="3.54673">
        <ele>307.838</ele>
        <time>2013-03-09T13:25:56Z</time>
      </trkpt>
      <trkpt lat="43.75217" lon="3.54667">
        <ele>308.425</ele>
        <time>2013-03-09T13:26:07Z</time>
      </trkpt>
      <trkpt lat="43.75219" lon="3.54662">
        <ele>308.371</ele>
        <time>2013-03-09T13:26:24Z</time>
      </trkpt>
      <trkpt lat="43.75222" lon="3.54658">
        <ele>308.699</ele>
        <time>2013-03-09T13:26:38Z</time>
      </trkpt>
      <trkpt lat="43.75223" lon="3.54654">
        <ele>309.658</ele>
        <time>2013-03-09T13:26:45Z</time>
      </trkpt>
      <trkpt lat="43.75233" lon="3.54648">
        <ele>310.962</ele>
        <time>2013-03-09T13:27:01Z</time>
      </trkpt>
      <trkpt lat="43.75237" lon="3.54644">
        <ele>310.898</ele>
        <time>2013-03-09T13:27:10Z</time>
      </trkpt>
      <trkpt lat="43.75243" lon="3.54643">
        <ele>310.909</ele>
        <time>2013-03-09T13:27:18Z</time>
      </trkpt>
      <trkpt lat="43.75244" lon="3.54643">
        <ele>311.104</ele>
        <time>2013-03-09T13:27:19Z</time>
      </trkpt>
      <trkpt lat="43.75249" lon="3.54642">
        <ele>311.979</ele>
        <time>2013-03-09T13:27:23Z</time>
      </trkpt>
      <trkpt lat="43.75251" lon="3.54643">
        <ele>311.473</ele>
        <time>2013-03-09T13:27:25Z</time>
      </trkpt>
      <trkpt lat="43.75256" lon="3.54643">
        <ele>312.727</ele>
        <time>2013-03-09T13:27:31Z</time>
      </trkpt>
      <trkpt lat="43.75258" lon="3.54642">
        <ele>312.177</ele>
        <time>2013-03-09T13:27:33Z</time>
      </trkpt>
      <trkpt lat="43.7526" lon="3.54641">
        <ele>311.312</ele>
        <time>2013-03-09T13:27:35Z</time>
      </trkpt>
      <trkpt lat="43.75266" lon="3.54636">
        <ele>311.892</ele>
        <time>2013-03-09T13:27:47Z</time>
      </trkpt>
      <trkpt lat="43.75267" lon="3.54635">
        <ele>313.43</ele>
        <time>2013-03-09T13:27:49Z</time>
      </trkpt>
      <trkpt lat="43.75274" lon="3.54636">
        <ele>314.38</ele>
        <time>2013-03-09T13:28:00Z</time>
      </trkpt>
      <trkpt lat="43.75278" lon="3.54638">
        <ele>315.033</ele>
        <time>2013-03-09T13:28:04Z</time>
      </trkpt>
      <trkpt lat="43.75285" lon="3.54634">
        <ele>314.303</ele>
        <time>2013-03-09T13:28:13Z</time>
      </trkpt>
      <trkpt lat="43.75287" lon="3.54631">
        <ele>310.881</ele>
        <time>2013-03-09T13:28:18Z</time>
      </trkpt>
      <trkpt lat="43.75288" lon="3.54628">
        <ele>317.325</ele>
        <time>2013-03-09T13:28:20Z</time>
      </trkpt>
      <trkpt lat="43.75288" lon="3.54627">
        <ele>315.618</ele>
        <time>2013-03-09T13:28:21Z</time>
      </trkpt>
      <trkpt lat="43.7529" lon="3.54615">
        <ele>316.458</ele>
        <time>2013-03-09T13:28:34Z</time>
      </trkpt>
      <trkpt lat="43.75292" lon="3.5461">
        <ele>312.433</ele>
        <time>2013-03-09T13:28:39Z</time>
      </trkpt>
      <trkpt lat="43.75292" lon="3.54609">
        <ele>318.932</ele>
        <time>2013-03-09T13:28:40Z</time>
      </trkpt>
      <trkpt lat="43.75293" lon="3.54608">
        <ele>312.626</ele>
        <time>2013-03-09T13:28:41Z</time>
      </trkpt>
      <trkpt lat="43.75293" lon="3.54607">
        <ele>319.29</ele>
        <time>2013-03-09T13:28:42Z</time>
      </trkpt>
      <trkpt lat="43.75294" lon="3.54607">
        <ele>315.887</ele>
        <time>2013-03-09T13:28:44Z</time>
      </trkpt>
      <trkpt lat="43.75294" lon="3.54606">
        <ele>319.071</ele>
        <time>2013-03-09T13:28:45Z</time>
      </trkpt>
      <trkpt lat="43.75295" lon="3.54605">
        <ele>315.031</ele>
        <time>2013-03-09T13:28:48Z</time>
      </trkpt>
      <trkpt lat="43.75296" lon="3.54605">
        <ele>317.16</ele>
        <time>2013-03-09T13:28:51Z</time>
      </trkpt>
      <trkpt lat="43.75297" lon="3.546">
        <ele>317.183</ele>
        <time>2013-03-09T13:29:31Z</time>
      </trkpt>
      <trkpt lat="43.75298" lon="3.54601">
        <ele>314.112</ele>
        <time>2013-03-09T13:29:32Z</time>
      </trkpt>
      <trkpt lat="43.75298" lon="3.54601">
        <ele>313.894</ele>
        <time>2013-03-09T13:29:33Z</time>
      </trkpt>
      <trkpt lat="43.75299" lon="3.54604">
        <ele>315.673</ele>
        <time>2013-03-09T13:29:35Z</time>
      </trkpt>
      <trkpt lat="43.75299" lon="3.54596">
        <ele>317.657</ele>
        <time>2013-03-09T13:29:46Z</time>
      </trkpt>
      <trkpt lat="43.75303" lon="3.54585">
        <ele>319.97</ele>
        <time>2013-03-09T13:29:57Z</time>
      </trkpt>
      <trkpt lat="43.75306" lon="3.54572">
        <ele>321.111</ele>
        <time>2013-03-09T13:30:08Z</time>
      </trkpt>
      <trkpt lat="43.75305" lon="3.54566">
        <ele>321.526</ele>
        <time>2013-03-09T13:30:12Z</time>
      </trkpt>
      <trkpt lat="43.75307" lon="3.54563">
        <ele>323.05</ele>
        <time>2013-03-09T13:30:15Z</time>
      </trkpt>
      <trkpt lat="43.75308" lon="3.54562">
        <ele>322.093</ele>
        <time>2013-03-09T13:30:16Z</time>
      </trkpt>
      <trkpt lat="43.75309" lon="3.54553">
        <ele>323.35</ele>
        <time>2013-03-09T13:30:24Z</time>
      </trkpt>
      <trkpt lat="43.75312" lon="3.54552">
        <ele>324.555</ele>
        <time>2013-03-09T13:30:26Z</time>
      </trkpt>
      <trkpt lat="43.75311" lon="3.54543">
        <ele>325.697</ele>
        <time>2013-03-09T13:30:37Z</time>
      </trkpt>
      <trkpt lat="43.75314" lon="3.54541">
        <ele>326.239</ele>
        <time>2013-03-09T13:30:42Z</time>
      </trkpt>
      <trkpt lat="43.75315" lon="3.54525">
        <ele>325.968</ele>
        <time>2013-03-09T13:31:01Z</time>
      </trkpt>
      <trkpt lat="43.75314" lon="3.54522">
        <ele>327.389</ele>
        <time>2013-03-09T13:31:05Z</time>
      </trkpt>
      <trkpt lat="43.75313" lon="3.54514">
        <ele>328.609</ele>
        <time>2013-03-09T13:31:30Z</time>
      </trkpt>
      <trkpt lat="43.75314" lon="3.54506">
        <ele>331.745</ele>
        <time>2013-03-09T13:31:40Z</time>
      </trkpt>
      <trkpt lat="43.7531" lon="3.54506">
        <ele>333.879</ele>
        <time>2013-03-09T13:31:47Z</time>
      </trkpt>
      <trkpt lat="43.75304" lon="3.5451">
        <ele>335.422</ele>
        <time>2013-03-09T13:32:01Z</time>
      </trkpt>
      <trkpt lat="43.75299" lon="3.54514">
        <ele>338.443</ele>
        <time>2013-03-09T13:32:10Z</time>
      </trkpt>
      <trkpt lat="43.75298" lon="3.54515">
        <ele>339.636</ele>
        <time>2013-03-09T13:32:14Z</time>
      </trkpt>
      <trkpt lat="43.75295" lon="3.54511">
        <ele>343.064</ele>
        <time>2013-03-09T13:32:20Z</time>
      </trkpt>
      <trkpt lat="43.75296" lon="3.54511">
        <ele>343.062</ele>
        <time>2013-03-09T13:32:21Z</time>
      </trkpt>
      <trkpt lat="43.75297" lon="3.54509">
        <ele>343.643</ele>
        <time>2013-03-09T13:32:31Z</time>
      </trkpt>
      <trkpt lat="43.75297" lon="3.545">
        <ele>345.779</ele>
        <time>2013-03-09T13:32:49Z</time>
      </trkpt>
      <trkpt lat="43.75297" lon="3.54495">
        <ele>346.894</ele>
        <time>2013-03-09T13:33:09Z</time>
      </trkpt>
      <trkpt lat="43.75295" lon="3.54495">
        <ele>347.043</ele>
        <time>2013-03-09T13:33:26Z</time>
      </trkpt>
      <trkpt lat="43.75294" lon="3.54496">
        <ele>347.312</ele>
        <time>2013-03-09T13:33:44Z</time>
      </trkpt>
      <trkpt lat="43.75293" lon="3.54494">
        <ele>350.356</ele>
        <time>2013-03-09T13:33:54Z</time>
      </trkpt>
      <trkpt lat="43.75293" lon="3.54494">
        <ele>349.085</ele>
        <time>2013-03-09T13:33:57Z</time>
      </trkpt>
      <trkpt lat="43.75289" lon="3.54489">
        <ele>352.047</ele>
        <time>2013-03-09T13:34:12Z</time>
      </trkpt>
      <trkpt lat="43.75291" lon="3.54487">
        <ele>348.298</ele>
        <time>2013-03-09T13:34:22Z</time>
      </trkpt>
      <trkpt lat="43.75291" lon="3.54487">
        <ele>353.313</ele>
        <time>2013-03-09T13:34:23Z</time>
      </trkpt>
      <trkpt lat="43.75292" lon="3.54486">
        <ele>349.921</ele>
        <time>2013-03-09T13:34:28Z</time>
      </trkpt>
      <trkpt lat="43.75292" lon="3.54486">
        <ele>350.441</ele>
        <time>2013-03-09T13:34:29Z</time>
      </trkpt>
      <trkpt lat="43.75292" lon="3.54484">
        <ele>347.22</ele>
        <time>2013-03-09T13:34:33Z</time>
      </trkpt>
      <trkpt lat="43.75293" lon="3.54484">
        <ele>353.025</ele>
        <time>2013-03-09T13:34:35Z</time>
      </trkpt>
      <trkpt lat="43.75293" lon="3.54484">
        <ele>351.266</ele>
        <time>2013-03-09T13:34:36Z</time>
      </trkpt>
      <trkpt lat="43.75293" lon="3.54483">
        <ele>351.218</ele>
        <time>2013-03-09T13:34:39Z</time>
      </trkpt>
      <trkpt lat="43.75293" lon="3.54481">
        <ele>348.682</ele>
        <time>2013-03-09T13:34:41Z</time>
      </trkpt>
      <trkpt lat="43.75292" lon="3.54479">
        <ele>352.247</ele>
        <time>2013-03-09T13:34:43Z</time>
      </trkpt>
      <trkpt lat="43.75292" lon="3.54477">
        <ele>351.606</ele>
        <time>2013-03-09T13:34:44Z</time>
      </trkpt>
      <trkpt lat="43.75292" lon="3.54476">
        <ele>352.578</ele>
        <time>2013-03-09T13:34:49Z</time>
      </trkpt>
      <trkpt lat="43.75291" lon="3.54475">
        <ele>352.299</ele>
        <time>2013-03-09T13:35:02Z</time>
      </trkpt>
      <trkpt lat="43.7529" lon="3.54477">
        <ele>352.379</ele>
        <time>2013-03-09T13:35:15Z</time>
      </trkpt>
      <trkpt lat="43.75286" lon="3.54477">
        <ele>351.571</ele>
        <time>2013-03-09T13:36:03Z</time>
      </trkpt>
      <trkpt lat="43.75284" lon="3.54477">
        <ele>352.888</ele>
        <time>2013-03-09T13:36:14Z</time>
      </trkpt>
      <trkpt lat="43.75283" lon="3.5448">
        <ele>356.068</ele>
        <time>2013-03-09T13:36:19Z</time>
      </trkpt>
      <trkpt lat="43.75282" lon="3.54479">
        <ele>352.949</ele>
        <time>2013-03-09T13:36:22Z</time>
      </trkpt>
      <trkpt lat="43.75282" lon="3.54478">
        <ele>352.664</ele>
        <time>2013-03-09T13:36:23Z</time>
      </trkpt>
      <trkpt lat="43.75281" lon="3.54477">
        <ele>354.273</ele>
        <time>2013-03-09T13:36:26Z</time>
      </trkpt>
      <trkpt lat="43.75281" lon="3.54477">
        <ele>348.67</ele>
        <time>2013-03-09T13:36:37Z</time>
      </trkpt>
      <trkpt lat="43.75281" lon="3.54476">
        <ele>355.315</ele>
        <time>2013-03-09T13:36:38Z</time>
      </trkpt>
      <trkpt lat="43.7528" lon="3.54477">
        <ele>353.891</ele>
        <time>2013-03-09T13:36:48Z</time>
      </trkpt>
      <trkpt lat="43.75279" lon="3.54478">
        <ele>354.472</ele>
        <time>2013-03-09T13:36:59Z</time>
      </trkpt>
      <trkpt lat="43.75278" lon="3.54479">
        <ele>350.837</ele>
        <time>2013-03-09T13:37:14Z</time>
      </trkpt>
      <trkpt lat="43.75278" lon="3.5448">
        <ele>350.837</ele>
        <time>2013-03-09T13:37:15Z</time>
      </trkpt>
      <trkpt lat="43.75278" lon="3.5448">
        <ele>354.509</ele>
        <time>2013-03-09T13:37:17Z</time>
      </trkpt>
      <trkpt lat="43.75276" lon="3.54477">
        <ele>355.447</ele>
        <time>2013-03-09T13:37:28Z</time>
      </trkpt>
      <trkpt lat="43.75275" lon="3.54475">
        <ele>358.707</ele>
        <time>2013-03-09T13:37:37Z</time>
      </trkpt>
      <trkpt lat="43.75274" lon="3.54476">
        <ele>358.057</ele>
        <time>2013-03-09T13:37:42Z</time>
      </trkpt>
      <trkpt lat="43.75275" lon="3.54477">
        <ele>358.284</ele>
        <time>2013-03-09T13:37:54Z</time>
      </trkpt>
      <trkpt lat="43.75276" lon="3.54478">
        <ele>358.196</ele>
        <time>2013-03-09T13:38:13Z</time>
      </trkpt>
      <trkpt lat="43.75275" lon="3.54476">
        <ele>356.783</ele>
        <time>2013-03-09T13:38:21Z</time>
      </trkpt>
      <trkpt lat="43.75276" lon="3.54476">
        <ele>356.352</ele>
        <time>2013-03-09T13:38:28Z</time>
      </trkpt>
      <trkpt lat="43.75274" lon="3.54474">
        <ele>357.802</ele>
        <time>2013-03-09T13:38:54Z</time>
      </trkpt>
      <trkpt lat="43.75272" lon="3.54473">
        <ele>356.386</ele>
        <time>2013-03-09T13:38:58Z</time>
      </trkpt>
      <trkpt lat="43.75272" lon="3.54473">
        <ele>357.734</ele>
        <time>2013-03-09T13:39:03Z</time>
      </trkpt>
      <trkpt lat="43.75272" lon="3.54474">
        <ele>358.296</ele>
        <time>2013-03-09T13:39:07Z</time>
      </trkpt>
      <trkpt lat="43.75271" lon="3.54474">
        <ele>353.124</ele>
        <time>2013-03-09T13:39:14Z</time>
      </trkpt>
      <trkpt lat="43.75272" lon="3.54474">
        <ele>364.202</ele>
        <time>2013-03-09T13:39:15Z</time>
      </trkpt>
      <trkpt lat="43.75272" lon="3.54474">
        <ele>358.423</ele>
        <time>2013-03-09T13:39:16Z</time>
      </trkpt>
      <trkpt lat="43.75272" lon="3.54477">
        <ele>356.555</ele>
        <time>2013-03-09T13:39:34Z</time>
      </trkpt>
      <trkpt lat="43.75272" lon="3.54477">
        <ele>362.582</ele>
        <time>2013-03-09T13:39:35Z</time>
      </trkpt>
      <trkpt lat="43.75271" lon="3.54478">
        <ele>360.127</ele>
        <time>2013-03-09T13:39:36Z</time>
      </trkpt>
      <trkpt lat="43.75271" lon="3.54476">
        <ele>356.569</ele>
        <time>2013-03-09T13:40:01Z</time>
      </trkpt>
      <trkpt lat="43.75271" lon="3.54476">
        <ele>362.492</ele>
        <time>2013-03-09T13:40:02Z</time>
      </trkpt>
      <trkpt lat="43.75271" lon="3.54477">
        <ele>359.051</ele>
        <time>2013-03-09T13:40:03Z</time>
      </trkpt>
      <trkpt lat="43.75271" lon="3.54477">
        <ele>363.056</ele>
        <time>2013-03-09T13:40:05Z</time>
      </trkpt>
      <trkpt lat="43.75271" lon="3.54477">
        <ele>356.657</ele>
        <time>2013-03-09T13:40:06Z</time>
      </trkpt>
      <trkpt lat="43.75272" lon="3.54477">
        <ele>361.716</ele>
        <time>2013-03-09T13:40:07Z</time>
      </trkpt>
      <trkpt lat="43.7527" lon="3.54478">
        <ele>356.357</ele>
        <time>2013-03-09T13:40:22Z</time>
      </trkpt>
      <trkpt lat="43.7527" lon="3.54479">
        <ele>362.906</ele>
        <time>2013-03-09T13:40:23Z</time>
      </trkpt>
      <trkpt lat="43.7527" lon="3.54479">
        <ele>357.928</ele>
        <time>2013-03-09T13:40:24Z</time>
      </trkpt>
      <trkpt lat="43.75269" lon="3.54479">
        <ele>361.877</ele>
        <time>2013-03-09T13:40:25Z</time>
      </trkpt>
      <trkpt lat="43.75267" lon="3.54479">
        <ele>362.111</ele>
        <time>2013-03-09T13:40:41Z</time>
      </trkpt>
      <trkpt lat="43.75266" lon="3.54479">
        <ele>362.555</ele>
        <time>2013-03-09T13:41:18Z</time>
      </trkpt>
      <trkpt lat="43.75266" lon="3.5448">
        <ele>359.147</ele>
        <time>2013-03-09T13:41:22Z</time>
      </trkpt>
      <trkpt lat="43.75266" lon="3.54481">
        <ele>361.665</ele>
        <time>2013-03-09T13:41:23Z</time>
      </trkpt>
      <trkpt lat="43.75265" lon="3.5448">
        <ele>359.939</ele>
        <time>2013-03-09T13:41:26Z</time>
      </trkpt>
      <trkpt lat="43.75265" lon="3.54482">
        <ele>362.922</ele>
        <time>2013-03-09T13:41:39Z</time>
      </trkpt>
      <trkpt lat="43.75267" lon="3.54481">
        <ele>363.073</ele>
        <time>2013-03-09T13:41:54Z</time>
      </trkpt>
      <trkpt lat="43.75267" lon="3.5448">
        <ele>363.589</ele>
        <time>2013-03-09T13:42:07Z</time>
      </trkpt>
      <trkpt lat="43.75261" lon="3.54476">
        <ele>363.172</ele>
        <time>2013-03-09T13:42:30Z</time>
      </trkpt>
      <trkpt lat="43.75261" lon="3.54476">
        <ele>363.839</ele>
        <time>2013-03-09T13:42:31Z</time>
      </trkpt>
      <trkpt lat="43.7526" lon="3.54478">
        <ele>363.793</ele>
        <time>2013-03-09T13:42:46Z</time>
      </trkpt>
      <trkpt lat="43.75257" lon="3.5448">
        <ele>366.757</ele>
        <time>2013-03-09T13:43:08Z</time>
      </trkpt>
      <trkpt lat="43.75253" lon="3.54483">
        <ele>367.818</ele>
        <time>2013-03-09T13:43:22Z</time>
      </trkpt>
      <trkpt lat="43.75252" lon="3.54483">
        <ele>369.155</ele>
        <time>2013-03-09T13:43:25Z</time>
      </trkpt>
      <trkpt lat="43.75247" lon="3.5448">
        <ele>370.766</ele>
        <time>2013-03-09T13:43:39Z</time>
      </trkpt>
      <trkpt lat="43.75246" lon="3.5448">
        <ele>372.228</ele>
        <time>2013-03-09T13:43:42Z</time>
      </trkpt>
      <trkpt lat="43.75246" lon="3.54478">
        <ele>373.807</ele>
        <time>2013-03-09T13:43:45Z</time>
      </trkpt>
      <trkpt lat="43.75247" lon="3.54481">
        <ele>372.516</ele>
        <time>2013-03-09T13:43:58Z</time>
      </trkpt>
      <trkpt lat="43.75247" lon="3.54479">
        <ele>373.115</ele>
        <time>2013-03-09T13:44:10Z</time>
      </trkpt>
      <trkpt lat="43.75244" lon="3.54482">
        <ele>372.814</ele>
        <time>2013-03-09T13:44:22Z</time>
      </trkpt>
      <trkpt lat="43.75244" lon="3.54482">
        <ele>373.462</ele>
        <time>2013-03-09T13:44:24Z</time>
      </trkpt>
      <trkpt lat="43.75241" lon="3.54484">
        <ele>374.885</ele>
        <time>2013-03-09T13:44:42Z</time>
      </trkpt>
      <trkpt lat="43.75238" lon="3.54485">
        <ele>375.059</ele>
        <time>2013-03-09T13:44:58Z</time>
      </trkpt>
      <trkpt lat="43.75241" lon="3.54484">
        <ele>373.872</ele>
        <time>2013-03-09T13:45:12Z</time>
      </trkpt>
      <trkpt lat="43.75243" lon="3.54484">
        <ele>374.474</ele>
        <time>2013-03-09T13:45:26Z</time>
      </trkpt>
      <trkpt lat="43.75241" lon="3.54487">
        <ele>374.807</ele>
        <time>2013-03-09T13:45:39Z</time>
      </trkpt>
      <trkpt lat="43.75238" lon="3.54484">
        <ele>376.6</ele>
        <time>2013-03-09T13:45:52Z</time>
      </trkpt>
      <trkpt lat="43.75236" lon="3.54483">
        <ele>378.841</ele>
        <time>2013-03-09T13:45:57Z</time>
      </trkpt>
      <trkpt lat="43.75232" lon="3.54479">
        <ele>380.533</ele>
        <time>2013-03-09T13:46:10Z</time>
      </trkpt>
      <trkpt lat="43.75229" lon="3.54473">
        <ele>382.146</ele>
        <time>2013-03-09T13:46:25Z</time>
      </trkpt>
      <trkpt lat="43.75229" lon="3.5447">
        <ele>382.188</ele>
        <time>2013-03-09T13:46:35Z</time>
      </trkpt>
      <trkpt lat="43.75223" lon="3.54462">
        <ele>383.559</ele>
        <time>2013-03-09T13:46:48Z</time>
      </trkpt>
      <trkpt lat="43.75224" lon="3.54457">
        <ele>384.825</ele>
        <time>2013-03-09T13:47:02Z</time>
      </trkpt>
      <trkpt lat="43.75226" lon="3.54454">
        <ele>380.875</ele>
        <time>2013-03-09T13:47:10Z</time>
      </trkpt>
      <trkpt lat="43.75226" lon="3.54454">
        <ele>391.083</ele>
        <time>2013-03-09T13:47:11Z</time>
      </trkpt>
      <trkpt lat="43.75226" lon="3.54454">
        <ele>385.389</ele>
        <time>2013-03-09T13:47:12Z</time>
      </trkpt>
      <trkpt lat="43.75224" lon="3.54447">
        <ele>386.798</ele>
        <time>2013-03-09T13:47:26Z</time>
      </trkpt>
      <trkpt lat="43.75224" lon="3.54446">
        <ele>387.011</ele>
        <time>2013-03-09T13:47:27Z</time>
      </trkpt>
      <trkpt lat="43.75223" lon="3.54449">
        <ele>387.24</ele>
        <time>2013-03-09T13:47:38Z</time>
      </trkpt>
      <trkpt lat="43.75224" lon="3.5445">
        <ele>387.054</ele>
        <time>2013-03-09T13:47:54Z</time>
      </trkpt>
      <trkpt lat="43.75227" lon="3.54444">
        <ele>386.306</ele>
        <time>2013-03-09T13:48:38Z</time>
      </trkpt>
      <trkpt lat="43.75221" lon="3.5444">
        <ele>386.959</ele>
        <time>2013-03-09T13:49:16Z</time>
      </trkpt>
      <trkpt lat="43.75226" lon="3.54445">
        <ele>386.289</ele>
        <time>2013-03-09T13:49:31Z</time>
      </trkpt>
      <trkpt lat="43.75226" lon="3.54446">
        <ele>386.673</ele>
        <time>2013-03-09T13:49:41Z</time>
      </trkpt>
      <trkpt lat="43.75227" lon="3.54447">
        <ele>387.604</ele>
        <time>2013-03-09T13:50:03Z</time>
      </trkpt>
      <trkpt lat="43.75227" lon="3.54445">
        <ele>387.039</ele>
        <time>2013-03-09T13:50:28Z</time>
      </trkpt>
      <trkpt lat="43.75229" lon="3.54441">
        <ele>386.101</ele>
        <time>2013-03-09T13:50:48Z</time>
      </trkpt>
      <trkpt lat="43.75227" lon="3.54442">
        <ele>387.732</ele>
        <time>2013-03-09T13:51:08Z</time>
      </trkpt>
      <trkpt lat="43.75228" lon="3.54444">
        <ele>386.194</ele>
        <time>2013-03-09T13:51:45Z</time>
      </trkpt>
      <trkpt lat="43.75228" lon="3.54443">
        <ele>385.785</ele>
        <time>2013-03-09T13:52:37Z</time>
      </trkpt>
      <trkpt lat="43.75231" lon="3.5444">
        <ele>386.266</ele>
        <time>2013-03-09T13:52:55Z</time>
      </trkpt>
      <trkpt lat="43.75234" lon="3.54437">
        <ele>386.414</ele>
        <time>2013-03-09T13:53:11Z</time>
      </trkpt>
      <trkpt lat="43.7524" lon="3.54432">
        <ele>386</ele>
        <time>2013-03-09T13:53:32Z</time>
      </trkpt>
      <trkpt lat="43.7525" lon="3.54424">
        <ele>385.462</ele>
        <time>2013-03-09T13:53:45Z</time>
      </trkpt>
      <trkpt lat="43.75259" lon="3.54412">
        <ele>383.965</ele>
        <time>2013-03-09T13:53:57Z</time>
      </trkpt>
      <trkpt lat="43.75269" lon="3.54409">
        <ele>384.841</ele>
        <time>2013-03-09T13:54:05Z</time>
      </trkpt>
      <trkpt lat="43.75278" lon="3.54402">
        <ele>384.421</ele>
        <time>2013-03-09T13:54:14Z</time>
      </trkpt>
      <trkpt lat="43.75281" lon="3.54397">
        <ele>384.808</ele>
        <time>2013-03-09T13:54:18Z</time>
      </trkpt>
      <trkpt lat="43.75299" lon="3.54388">
        <ele>385.135</ele>
        <time>2013-03-09T13:54:34Z</time>
      </trkpt>
      <trkpt lat="43.75307" lon="3.54387">
        <ele>383.433</ele>
        <time>2013-03-09T13:54:44Z</time>
      </trkpt>
      <trkpt lat="43.75308" lon="3.54387">
        <ele>383.532</ele>
        <time>2013-03-09T13:54:46Z</time>
      </trkpt>
      <trkpt lat="43.75321" lon="3.54376">
        <ele>383.666</ele>
        <time>2013-03-09T13:54:59Z</time>
      </trkpt>
      <trkpt lat="43.75321" lon="3.54375">
        <ele>379.409</ele>
        <time>2013-03-09T13:55:00Z</time>
      </trkpt>
      <trkpt lat="43.75322" lon="3.54374">
        <ele>385.177</ele>
        <time>2013-03-09T13:55:01Z</time>
      </trkpt>
      <trkpt lat="43.75327" lon="3.54366">
        <ele>380.373</ele>
        <time>2013-03-09T13:55:10Z</time>
      </trkpt>
      <trkpt lat="43.75328" lon="3.54365">
        <ele>380.19</ele>
        <time>2013-03-09T13:55:11Z</time>
      </trkpt>
      <trkpt lat="43.7533" lon="3.54363">
        <ele>386.312</ele>
        <time>2013-03-09T13:55:14Z</time>
      </trkpt>
      <trkpt lat="43.75331" lon="3.54362">
        <ele>383.553</ele>
        <time>2013-03-09T13:55:15Z</time>
      </trkpt>
      <trkpt lat="43.75341" lon="3.54348">
        <ele>381.936</ele>
        <time>2013-03-09T13:55:29Z</time>
      </trkpt>
      <trkpt lat="43.75345" lon="3.54345">
        <ele>381.476</ele>
        <time>2013-03-09T13:55:33Z</time>
      </trkpt>
      <trkpt lat="43.7535" lon="3.54342">
        <ele>381.614</ele>
        <time>2013-03-09T13:55:37Z</time>
      </trkpt>
      <trkpt lat="43.75362" lon="3.54334">
        <ele>380.923</ele>
        <time>2013-03-09T13:55:48Z</time>
      </trkpt>
      <trkpt lat="43.75363" lon="3.54332">
        <ele>380.68</ele>
        <time>2013-03-09T13:55:50Z</time>
      </trkpt>
      <trkpt lat="43.75375" lon="3.54321">
        <ele>380.696</ele>
        <time>2013-03-09T13:56:02Z</time>
      </trkpt>
      <trkpt lat="43.75382" lon="3.54321">
        <ele>381.016</ele>
        <time>2013-03-09T13:56:10Z</time>
      </trkpt>
      <trkpt lat="43.75395" lon="3.54325">
        <ele>381.812</ele>
        <time>2013-03-09T13:56:22Z</time>
      </trkpt>
      <trkpt lat="43.75401" lon="3.54324">
        <ele>383.406</ele>
        <time>2013-03-09T13:56:35Z</time>
      </trkpt>
      <trkpt lat="43.75415" lon="3.54321">
        <ele>384.733</ele>
        <time>2013-03-09T13:56:50Z</time>
      </trkpt>
      <trkpt lat="43.75419" lon="3.5432">
        <ele>385.523</ele>
        <time>2013-03-09T13:56:55Z</time>
      </trkpt>
      <trkpt lat="43.75423" lon="3.54313">
        <ele>386.622</ele>
        <time>2013-03-09T13:57:08Z</time>
      </trkpt>
      <trkpt lat="43.75426" lon="3.54312">
        <ele>386.752</ele>
        <time>2013-03-09T13:57:33Z</time>
      </trkpt>
      <trkpt lat="43.75431" lon="3.54311">
        <ele>387.315</ele>
        <time>2013-03-09T13:57:41Z</time>
      </trkpt>
      <trkpt lat="43.75438" lon="3.5431">
        <ele>388.043</ele>
        <time>2013-03-09T13:57:50Z</time>
      </trkpt>
      <trkpt lat="43.75441" lon="3.54311">
        <ele>388.209</ele>
        <time>2013-03-09T13:57:53Z</time>
      </trkpt>
      <trkpt lat="43.75449" lon="3.54313">
        <ele>388.352</ele>
        <time>2013-03-09T13:57:59Z</time>
      </trkpt>
      <trkpt lat="43.75464" lon="3.5432">
        <ele>388.897</ele>
        <time>2013-03-09T13:58:14Z</time>
      </trkpt>
      <trkpt lat="43.75461" lon="3.54324">
        <ele>389.344</ele>
        <time>2013-03-09T13:58:26Z</time>
      </trkpt>
      <trkpt lat="43.75464" lon="3.54321">
        <ele>389.432</ele>
        <time>2013-03-09T13:58:43Z</time>
      </trkpt>
      <trkpt lat="43.7547" lon="3.54321">
        <ele>390.676</ele>
        <time>2013-03-09T13:58:48Z</time>
      </trkpt>
      <trkpt lat="43.75472" lon="3.54321">
        <ele>389.466</ele>
        <time>2013-03-09T13:58:52Z</time>
      </trkpt>
      <trkpt lat="43.75482" lon="3.54319">
        <ele>390.547</ele>
        <time>2013-03-09T13:59:02Z</time>
      </trkpt>
      <trkpt lat="43.75496" lon="3.54316">
        <ele>389.799</ele>
        <time>2013-03-09T13:59:17Z</time>
      </trkpt>
      <trkpt lat="43.75509" lon="3.54313">
        <ele>387.972</ele>
        <time>2013-03-09T13:59:30Z</time>
      </trkpt>
      <trkpt lat="43.75522" lon="3.54313">
        <ele>387.127</ele>
        <time>2013-03-09T13:59:40Z</time>
      </trkpt>
      <trkpt lat="43.75528" lon="3.54316">
        <ele>387.047</ele>
        <time>2013-03-09T13:59:45Z</time>
      </trkpt>
      <trkpt lat="43.75531" lon="3.54323">
        <ele>387.291</ele>
        <time>2013-03-09T13:59:51Z</time>
      </trkpt>
      <trkpt lat="43.75533" lon="3.54326">
        <ele>388.455</ele>
        <time>2013-03-09T13:59:55Z</time>
      </trkpt>
      <trkpt lat="43.75538" lon="3.54327">
        <ele>391.02</ele>
        <time>2013-03-09T14:00:03Z</time>
      </trkpt>
      <trkpt lat="43.7555" lon="3.54319">
        <ele>392.779</ele>
        <time>2013-03-09T14:00:17Z</time>
      </trkpt>
      <trkpt lat="43.75554" lon="3.54315">
        <ele>393.495</ele>
        <time>2013-03-09T14:00:23Z</time>
      </trkpt>
      <trkpt lat="43.75557" lon="3.54304">
        <ele>394.703</ele>
        <time>2013-03-09T14:00:32Z</time>
      </trkpt>
      <trkpt lat="43.7556" lon="3.54297">
        <ele>396.271</ele>
        <time>2013-03-09T14:00:39Z</time>
      </trkpt>
      <trkpt lat="43.75561" lon="3.5429">
        <ele>396.805</ele>
        <time>2013-03-09T14:00:44Z</time>
      </trkpt>
      <trkpt lat="43.75567" lon="3.54275">
        <ele>398.481</ele>
        <time>2013-03-09T14:00:55Z</time>
      </trkpt>
      <trkpt lat="43.75569" lon="3.54267">
        <ele>399.13</ele>
        <time>2013-03-09T14:01:00Z</time>
      </trkpt>
      <trkpt lat="43.75571" lon="3.5426">
        <ele>399.477</ele>
        <time>2013-03-09T14:01:05Z</time>
      </trkpt>
      <trkpt lat="43.75575" lon="3.54239">
        <ele>399.977</ele>
        <time>2013-03-09T14:01:17Z</time>
      </trkpt>
      <trkpt lat="43.75578" lon="3.54231">
        <ele>401.699</ele>
        <time>2013-03-09T14:01:22Z</time>
      </trkpt>
      <trkpt lat="43.75578" lon="3.54217">
        <ele>401.761</ele>
        <time>2013-03-09T14:01:33Z</time>
      </trkpt>
      <trkpt lat="43.75577" lon="3.54211">
        <ele>402.091</ele>
        <time>2013-03-09T14:01:37Z</time>
      </trkpt>
      <trkpt lat="43.75577" lon="3.54209">
        <ele>402.04</ele>
        <time>2013-03-09T14:01:39Z</time>
      </trkpt>
      <trkpt lat="43.75579" lon="3.54197">
        <ele>403.377</ele>
        <time>2013-03-09T14:01:50Z</time>
      </trkpt>
      <trkpt lat="43.75581" lon="3.54194">
        <ele>404.705</ele>
        <time>2013-03-09T14:01:54Z</time>
      </trkpt>
      <trkpt lat="43.7558" lon="3.54192">
        <ele>404.511</ele>
        <time>2013-03-09T14:01:57Z</time>
      </trkpt>
      <trkpt lat="43.75584" lon="3.54184">
        <ele>405.998</ele>
        <time>2013-03-09T14:02:05Z</time>
      </trkpt>
      <trkpt lat="43.75588" lon="3.54174">
        <ele>406.722</ele>
        <time>2013-03-09T14:02:15Z</time>
      </trkpt>
      <trkpt lat="43.75587" lon="3.54161">
        <ele>407.463</ele>
        <time>2013-03-09T14:02:24Z</time>
      </trkpt>
      <trkpt lat="43.75585" lon="3.54157">
        <ele>407.682</ele>
        <time>2013-03-09T14:02:25Z</time>
      </trkpt>
      <trkpt lat="43.7559" lon="3.5415">
        <ele>408.201</ele>
        <time>2013-03-09T14:02:31Z</time>
      </trkpt>
      <trkpt lat="43.75592" lon="3.54141">
        <ele>408.597</ele>
        <time>2013-03-09T14:02:39Z</time>
      </trkpt>
      <trkpt lat="43.75603" lon="3.54127">
        <ele>410.82</ele>
        <time>2013-03-09T14:02:52Z</time>
      </trkpt>
      <trkpt lat="43.75605" lon="3.54115">
        <ele>410.512</ele>
        <time>2013-03-09T14:02:59Z</time>
      </trkpt>
      <trkpt lat="43.75606" lon="3.54109">
        <ele>411.376</ele>
        <time>2013-03-09T14:03:03Z</time>
      </trkpt>
      <trkpt lat="43.75609" lon="3.541">
        <ele>412.313</ele>
        <time>2013-03-09T14:03:08Z</time>
      </trkpt>
      <trkpt lat="43.7561" lon="3.54097">
        <ele>412.992</ele>
        <time>2013-03-09T14:03:10Z</time>
      </trkpt>
      <trkpt lat="43.75621" lon="3.54069">
        <ele>415.359</ele>
        <time>2013-03-09T14:03:24Z</time>
      </trkpt>
      <trkpt lat="43.75627" lon="3.54046">
        <ele>415.886</ele>
        <time>2013-03-09T14:03:35Z</time>
      </trkpt>
      <trkpt lat="43.75622" lon="3.54039">
        <ele>416.2</ele>
        <time>2013-03-09T14:03:41Z</time>
      </trkpt>
      <trkpt lat="43.75617" lon="3.54039">
        <ele>417.313</ele>
        <time>2013-03-09T14:03:45Z</time>
      </trkpt>
      <trkpt lat="43.75598" lon="3.54038">
        <ele>420.854</ele>
        <time>2013-03-09T14:04:00Z</time>
      </trkpt>
      <trkpt lat="43.75584" lon="3.54046">
        <ele>421.615</ele>
        <time>2013-03-09T14:04:14Z</time>
      </trkpt>
      <trkpt lat="43.75577" lon="3.54049">
        <ele>423.538</ele>
        <time>2013-03-09T14:04:24Z</time>
      </trkpt>
      <trkpt lat="43.7556" lon="3.5406">
        <ele>423.695</ele>
        <time>2013-03-09T14:04:41Z</time>
      </trkpt>
      <trkpt lat="43.7555" lon="3.54072">
        <ele>424.846</ele>
        <time>2013-03-09T14:04:53Z</time>
      </trkpt>
      <trkpt lat="43.75545" lon="3.54078">
        <ele>424.363</ele>
        <time>2013-03-09T14:05:01Z</time>
      </trkpt>
      <trkpt lat="43.75528" lon="3.54087">
        <ele>424.69</ele>
        <time>2013-03-09T14:05:19Z</time>
      </trkpt>
      <trkpt lat="43.75518" lon="3.54086">
        <ele>426.127</ele>
        <time>2013-03-09T14:05:26Z</time>
      </trkpt>
      <trkpt lat="43.75509" lon="3.54089">
        <ele>426.055</ele>
        <time>2013-03-09T14:05:37Z</time>
      </trkpt>
      <trkpt lat="43.75506" lon="3.54091">
        <ele>425.829</ele>
        <time>2013-03-09T14:05:40Z</time>
      </trkpt>
      <trkpt lat="43.75504" lon="3.54098">
        <ele>426.82</ele>
        <time>2013-03-09T14:05:45Z</time>
      </trkpt>
      <trkpt lat="43.75504" lon="3.54101">
        <ele>426.951</ele>
        <time>2013-03-09T14:05:47Z</time>
      </trkpt>
      <trkpt lat="43.75499" lon="3.5411">
        <ele>429.055</ele>
        <time>2013-03-09T14:05:55Z</time>
      </trkpt>
      <trkpt lat="43.75495" lon="3.54122">
        <ele>429.936</ele>
        <time>2013-03-09T14:06:05Z</time>
      </trkpt>
      <trkpt lat="43.7549" lon="3.54135">
        <ele>431.185</ele>
        <time>2013-03-09T14:06:14Z</time>
      </trkpt>
      <trkpt lat="43.75488" lon="3.54155">
        <ele>432.375</ele>
        <time>2013-03-09T14:06:27Z</time>
      </trkpt>
      <trkpt lat="43.75485" lon="3.5415">
        <ele>432.692</ele>
        <time>2013-03-09T14:06:37Z</time>
      </trkpt>
      <trkpt lat="43.75485" lon="3.54147">
        <ele>432.948</ele>
        <time>2013-03-09T14:06:43Z</time>
      </trkpt>
      <trkpt lat="43.75485" lon="3.54142">
        <ele>434.179</ele>
        <time>2013-03-09T14:06:46Z</time>
      </trkpt>
      <trkpt lat="43.75486" lon="3.5412">
        <ele>436.717</ele>
        <time>2013-03-09T14:07:01Z</time>
      </trkpt>
      <trkpt lat="43.75487" lon="3.54111">
        <ele>436.632</ele>
        <time>2013-03-09T14:07:07Z</time>
      </trkpt>
      <trkpt lat="43.75487" lon="3.54098">
        <ele>437.837</ele>
        <time>2013-03-09T14:07:17Z</time>
      </trkpt>
      <trkpt lat="43.7549" lon="3.54081">
        <ele>438.831</ele>
        <time>2013-03-09T14:07:32Z</time>
      </trkpt>
      <trkpt lat="43.75495" lon="3.54068">
        <ele>439.037</ele>
        <time>2013-03-09T14:07:43Z</time>
      </trkpt>
      <trkpt lat="43.75503" lon="3.54059">
        <ele>439.794</ele>
        <time>2013-03-09T14:07:52Z</time>
      </trkpt>
      <trkpt lat="43.75507" lon="3.54052">
        <ele>439.402</ele>
        <time>2013-03-09T14:07:58Z</time>
      </trkpt>
      <trkpt lat="43.75508" lon="3.54049">
        <ele>439.663</ele>
        <time>2013-03-09T14:08:01Z</time>
      </trkpt>
      <trkpt lat="43.75514" lon="3.54041">
        <ele>439.548</ele>
        <time>2013-03-09T14:08:08Z</time>
      </trkpt>
      <trkpt lat="43.75527" lon="3.54048">
        <ele>440.885</ele>
        <time>2013-03-09T14:08:21Z</time>
      </trkpt>
      <trkpt lat="43.75536" lon="3.54038">
        <ele>443.288</ele>
        <time>2013-03-09T14:08:35Z</time>
      </trkpt>
      <trkpt lat="43.75538" lon="3.54033">
        <ele>445.738</ele>
        <time>2013-03-09T14:08:40Z</time>
      </trkpt>
      <trkpt lat="43.75541" lon="3.54026">
        <ele>445.69</ele>
        <time>2013-03-09T14:08:46Z</time>
      </trkpt>
      <trkpt lat="43.75543" lon="3.54022">
        <ele>446.428</ele>
        <time>2013-03-09T14:08:49Z</time>
      </trkpt>
      <trkpt lat="43.75551" lon="3.54012">
        <ele>447.215</ele>
        <time>2013-03-09T14:09:02Z</time>
      </trkpt>
      <trkpt lat="43.75551" lon="3.54011">
        <ele>447.408</ele>
        <time>2013-03-09T14:09:03Z</time>
      </trkpt>
      <trkpt lat="43.75555" lon="3.53996">
        <ele>448.845</ele>
        <time>2013-03-09T14:09:16Z</time>
      </trkpt>
      <trkpt lat="43.75558" lon="3.53992">
        <ele>450.374</ele>
        <time>2013-03-09T14:09:22Z</time>
      </trkpt>
      <trkpt lat="43.75566" lon="3.53981">
        <ele>452.039</ele>
        <time>2013-03-09T14:09:37Z</time>
      </trkpt>
      <trkpt lat="43.7557" lon="3.53969">
        <ele>455.536</ele>
        <time>2013-03-09T14:09:49Z</time>
      </trkpt>
      <trkpt lat="43.75572" lon="3.53959">
        <ele>457.128</ele>
        <time>2013-03-09T14:09:58Z</time>
      </trkpt>
      <trkpt lat="43.75572" lon="3.53957">
        <ele>458.547</ele>
        <time>2013-03-09T14:10:02Z</time>
      </trkpt>
      <trkpt lat="43.75573" lon="3.53955">
        <ele>455.55</ele>
        <time>2013-03-09T14:10:36Z</time>
      </trkpt>
      <trkpt lat="43.75573" lon="3.53955">
        <ele>457.385</ele>
        <time>2013-03-09T14:10:40Z</time>
      </trkpt>
      <trkpt lat="43.75573" lon="3.53953">
        <ele>457.043</ele>
        <time>2013-03-09T14:10:55Z</time>
      </trkpt>
      <trkpt lat="43.75576" lon="3.53955">
        <ele>457.569</ele>
        <time>2013-03-09T14:11:03Z</time>
      </trkpt>
      <trkpt lat="43.75575" lon="3.53954">
        <ele>457.809</ele>
        <time>2013-03-09T14:11:29Z</time>
      </trkpt>
      <trkpt lat="43.75575" lon="3.5395">
        <ele>458.557</ele>
        <time>2013-03-09T14:11:43Z</time>
      </trkpt>
      <trkpt lat="43.75581" lon="3.53948">
        <ele>460.473</ele>
        <time>2013-03-09T14:11:54Z</time>
      </trkpt>
      <trkpt lat="43.75582" lon="3.53947">
        <ele>461.291</ele>
        <time>2013-03-09T14:11:56Z</time>
      </trkpt>
      <trkpt lat="43.75576" lon="3.53944">
        <ele>462.43</ele>
        <time>2013-03-09T14:12:07Z</time>
      </trkpt>
      <trkpt lat="43.75575" lon="3.53938">
        <ele>463.09</ele>
        <time>2013-03-09T14:12:18Z</time>
      </trkpt>
      <trkpt lat="43.7558" lon="3.53939">
        <ele>463.455</ele>
        <time>2013-03-09T14:12:24Z</time>
      </trkpt>
      <trkpt lat="43.75585" lon="3.53939">
        <ele>463.328</ele>
        <time>2013-03-09T14:12:29Z</time>
      </trkpt>
      <trkpt lat="43.75595" lon="3.53938">
        <ele>466.003</ele>
        <time>2013-03-09T14:12:43Z</time>
      </trkpt>
      <trkpt lat="43.75595" lon="3.53939">
        <ele>464.809</ele>
        <time>2013-03-09T14:12:59Z</time>
      </trkpt>
      <trkpt lat="43.75596" lon="3.53937">
        <ele>465.894</ele>
        <time>2013-03-09T14:13:01Z</time>
      </trkpt>
      <trkpt lat="43.75603" lon="3.53919">
        <ele>466.617</ele>
        <time>2013-03-09T14:13:15Z</time>
      </trkpt>
      <trkpt lat="43.75607" lon="3.5391">
        <ele>470.034</ele>
        <time>2013-03-09T14:13:27Z</time>
      </trkpt>
      <trkpt lat="43.75608" lon="3.53909">
        <ele>470.04</ele>
        <time>2013-03-09T14:13:28Z</time>
      </trkpt>
      <trkpt lat="43.75616" lon="3.539">
        <ele>471.781</ele>
        <time>2013-03-09T14:13:41Z</time>
      </trkpt>
      <trkpt lat="43.75624" lon="3.53899">
        <ele>472.113</ele>
        <time>2013-03-09T14:13:51Z</time>
      </trkpt>
      <trkpt lat="43.75627" lon="3.53897">
        <ele>471.005</ele>
        <time>2013-03-09T14:13:55Z</time>
      </trkpt>
      <trkpt lat="43.75638" lon="3.5389">
        <ele>471.977</ele>
        <time>2013-03-09T14:14:06Z</time>
      </trkpt>
      <trkpt lat="43.75642" lon="3.53888">
        <ele>471.984</ele>
        <time>2013-03-09T14:14:10Z</time>
      </trkpt>
      <trkpt lat="43.75648" lon="3.53877">
        <ele>472.513</ele>
        <time>2013-03-09T14:14:21Z</time>
      </trkpt>
      <trkpt lat="43.75649" lon="3.53876">
        <ele>472.423</ele>
        <time>2013-03-09T14:14:22Z</time>
      </trkpt>
      <trkpt lat="43.75652" lon="3.5387">
        <ele>473.63</ele>
        <time>2013-03-09T14:14:27Z</time>
      </trkpt>
      <trkpt lat="43.75659" lon="3.53862">
        <ele>471.836</ele>
        <time>2013-03-09T14:14:36Z</time>
      </trkpt>
      <trkpt lat="43.75661" lon="3.53856">
        <ele>471.585</ele>
        <time>2013-03-09T14:14:42Z</time>
      </trkpt>
      <trkpt lat="43.75672" lon="3.53854">
        <ele>471.881</ele>
        <time>2013-03-09T14:14:53Z</time>
      </trkpt>
      <trkpt lat="43.75683" lon="3.53849">
        <ele>474.336</ele>
        <time>2013-03-09T14:15:07Z</time>
      </trkpt>
      <trkpt lat="43.7569" lon="3.53848">
        <ele>474.708</ele>
        <time>2013-03-09T14:15:18Z</time>
      </trkpt>
      <trkpt lat="43.75699" lon="3.53844">
        <ele>476.546</ele>
        <time>2013-03-09T14:15:30Z</time>
      </trkpt>
      <trkpt lat="43.75709" lon="3.53845">
        <ele>477.868</ele>
        <time>2013-03-09T14:15:44Z</time>
      </trkpt>
      <trkpt lat="43.75713" lon="3.53845">
        <ele>479.722</ele>
        <time>2013-03-09T14:15:50Z</time>
      </trkpt>
      <trkpt lat="43.75713" lon="3.53836">
        <ele>480.684</ele>
        <time>2013-03-09T14:16:00Z</time>
      </trkpt>
      <trkpt lat="43.75712" lon="3.53835">
        <ele>480.986</ele>
        <time>2013-03-09T14:16:01Z</time>
      </trkpt>
      <trkpt lat="43.75706" lon="3.53831">
        <ele>481.276</ele>
        <time>2013-03-09T14:16:05Z</time>
      </trkpt>
      <trkpt lat="43.75708" lon="3.53824">
        <ele>482.148</ele>
        <time>2013-03-09T14:16:20Z</time>
      </trkpt>
      <trkpt lat="43.75717" lon="3.53829">
        <ele>484.378</ele>
        <time>2013-03-09T14:16:30Z</time>
      </trkpt>
      <trkpt lat="43.75716" lon="3.53819">
        <ele>485.882</ele>
        <time>2013-03-09T14:16:42Z</time>
      </trkpt>
      <trkpt lat="43.75714" lon="3.53812">
        <ele>487.686</ele>
        <time>2013-03-09T14:17:03Z</time>
      </trkpt>
      <trkpt lat="43.75717" lon="3.53813">
        <ele>488.173</ele>
        <time>2013-03-09T14:17:14Z</time>
      </trkpt>
      <trkpt lat="43.75724" lon="3.53811">
        <ele>489.468</ele>
        <time>2013-03-09T14:17:24Z</time>
      </trkpt>
      <trkpt lat="43.75722" lon="3.53807">
        <ele>491.107</ele>
        <time>2013-03-09T14:17:36Z</time>
      </trkpt>
      <trkpt lat="43.75718" lon="3.53802">
        <ele>492.175</ele>
        <time>2013-03-09T14:17:42Z</time>
      </trkpt>
      <trkpt lat="43.75717" lon="3.53799">
        <ele>493.557</ele>
        <time>2013-03-09T14:17:49Z</time>
      </trkpt>
      <trkpt lat="43.75722" lon="3.53798">
        <ele>494.824</ele>
        <time>2013-03-09T14:17:59Z</time>
      </trkpt>
      <trkpt lat="43.75719" lon="3.53791">
        <ele>496.671</ele>
        <time>2013-03-09T14:18:09Z</time>
      </trkpt>
      <trkpt lat="43.75722" lon="3.53788">
        <ele>497.673</ele>
        <time>2013-03-09T14:18:21Z</time>
      </trkpt>
      <trkpt lat="43.7572" lon="3.53785">
        <ele>498.812</ele>
        <time>2013-03-09T14:18:28Z</time>
      </trkpt>
      <trkpt lat="43.75713" lon="3.53785">
        <ele>501.652</ele>
        <time>2013-03-09T14:18:39Z</time>
      </trkpt>
      <trkpt lat="43.75714" lon="3.53794">
        <ele>500.989</ele>
        <time>2013-03-09T14:19:25Z</time>
      </trkpt>
      <trkpt lat="43.75715" lon="3.53799">
        <ele>501.498</ele>
        <time>2013-03-09T14:19:37Z</time>
      </trkpt>
      <trkpt lat="43.75701" lon="3.5378">
        <ele>501.304</ele>
        <time>2013-03-09T14:19:58Z</time>
      </trkpt>
      <trkpt lat="43.75708" lon="3.53784">
        <ele>500.874</ele>
        <time>2013-03-09T14:20:22Z</time>
      </trkpt>
      <trkpt lat="43.75709" lon="3.53787">
        <ele>499.787</ele>
        <time>2013-03-09T14:20:52Z</time>
      </trkpt>
      <trkpt lat="43.75708" lon="3.53799">
        <ele>499.888</ele>
        <time>2013-03-09T14:21:10Z</time>
      </trkpt>
      <trkpt lat="43.75701" lon="3.53792">
        <ele>500.752</ele>
        <time>2013-03-09T14:21:15Z</time>
      </trkpt>
      <trkpt lat="43.75708" lon="3.53784">
        <ele>501.673</ele>
        <time>2013-03-09T14:21:27Z</time>
      </trkpt>
      <trkpt lat="43.75714" lon="3.53778">
        <ele>501.592</ele>
        <time>2013-03-09T14:21:37Z</time>
      </trkpt>
      <trkpt lat="43.75715" lon="3.53768">
        <ele>502.551</ele>
        <time>2013-03-09T14:21:49Z</time>
      </trkpt>
      <trkpt lat="43.75719" lon="3.53768">
        <ele>504.738</ele>
        <time>2013-03-09T14:21:59Z</time>
      </trkpt>
      <trkpt lat="43.75716" lon="3.53764">
        <ele>505.587</ele>
        <time>2013-03-09T14:22:09Z</time>
      </trkpt>
      <trkpt lat="43.75715" lon="3.53759">
        <ele>506.18</ele>
        <time>2013-03-09T14:22:13Z</time>
      </trkpt>
      <trkpt lat="43.75718" lon="3.53755">
        <ele>506.959</ele>
        <time>2013-03-09T14:22:18Z</time>
      </trkpt>
      <trkpt lat="43.7572" lon="3.53755">
        <ele>508.315</ele>
        <time>2013-03-09T14:22:20Z</time>
      </trkpt>
      <trkpt lat="43.75728" lon="3.53766">
        <ele>510.332</ele>
        <time>2013-03-09T14:22:33Z</time>
      </trkpt>
      <trkpt lat="43.75729" lon="3.53762">
        <ele>509.7</ele>
        <time>2013-03-09T14:22:37Z</time>
      </trkpt>
      <trkpt lat="43.75727" lon="3.53748">
        <ele>510.271</ele>
        <time>2013-03-09T14:22:47Z</time>
      </trkpt>
      <trkpt lat="43.75719" lon="3.53743">
        <ele>510.953</ele>
        <time>2013-03-09T14:22:58Z</time>
      </trkpt>
      <trkpt lat="43.75718" lon="3.53741">
        <ele>511.108</ele>
        <time>2013-03-09T14:23:01Z</time>
      </trkpt>
      <trkpt lat="43.75723" lon="3.53736">
        <ele>514.021</ele>
        <time>2013-03-09T14:23:12Z</time>
      </trkpt>
      <trkpt lat="43.75727" lon="3.53736">
        <ele>514.922</ele>
        <time>2013-03-09T14:23:15Z</time>
      </trkpt>
      <trkpt lat="43.75731" lon="3.53742">
        <ele>517.392</ele>
        <time>2013-03-09T14:23:21Z</time>
      </trkpt>
      <trkpt lat="43.75739" lon="3.53748">
        <ele>518.488</ele>
        <time>2013-03-09T14:23:34Z</time>
      </trkpt>
      <trkpt lat="43.75743" lon="3.53754">
        <ele>518.838</ele>
        <time>2013-03-09T14:23:44Z</time>
      </trkpt>
      <trkpt lat="43.75747" lon="3.53762">
        <ele>520</ele>
        <time>2013-03-09T14:23:51Z</time>
      </trkpt>
      <trkpt lat="43.75749" lon="3.53772">
        <ele>520.128</ele>
        <time>2013-03-09T14:23:59Z</time>
      </trkpt>
      <trkpt lat="43.75752" lon="3.53775">
        <ele>520.394</ele>
        <time>2013-03-09T14:24:02Z</time>
      </trkpt>
      <trkpt lat="43.75758" lon="3.53779">
        <ele>521.706</ele>
        <time>2013-03-09T14:24:11Z</time>
      </trkpt>
      <trkpt lat="43.75758" lon="3.53777">
        <ele>523.803</ele>
        <time>2013-03-09T14:24:14Z</time>
      </trkpt>
      <trkpt lat="43.75755" lon="3.53767">
        <ele>524.216</ele>
        <time>2013-03-09T14:24:24Z</time>
      </trkpt>
      <trkpt lat="43.75755" lon="3.5376">
        <ele>526.381</ele>
        <time>2013-03-09T14:24:30Z</time>
      </trkpt>
      <trkpt lat="43.75757" lon="3.5376">
        <ele>525.863</ele>
        <time>2013-03-09T14:24:33Z</time>
      </trkpt>
      <trkpt lat="43.75759" lon="3.5376">
        <ele>528.142</ele>
        <time>2013-03-09T14:24:36Z</time>
      </trkpt>
      <trkpt lat="43.75761" lon="3.53761">
        <ele>530.123</ele>
        <time>2013-03-09T14:24:41Z</time>
      </trkpt>
      <trkpt lat="43.75763" lon="3.53762">
        <ele>529.751</ele>
        <time>2013-03-09T14:24:43Z</time>
      </trkpt>
      <trkpt lat="43.7577" lon="3.5376">
        <ele>531.553</ele>
        <time>2013-03-09T14:24:54Z</time>
      </trkpt>
      <trkpt lat="43.75772" lon="3.53758">
        <ele>531.153</ele>
        <time>2013-03-09T14:25:02Z</time>
      </trkpt>
      <trkpt lat="43.75773" lon="3.53754">
        <ele>530.834</ele>
        <time>2013-03-09T14:25:14Z</time>
      </trkpt>
      <trkpt lat="43.75773" lon="3.53756">
        <ele>531.288</ele>
        <time>2013-03-09T14:25:24Z</time>
      </trkpt>
      <trkpt lat="43.75767" lon="3.53768">
        <ele>531.296</ele>
        <time>2013-03-09T14:25:36Z</time>
      </trkpt>
      <trkpt lat="43.75767" lon="3.53767">
        <ele>531.714</ele>
        <time>2013-03-09T14:26:26Z</time>
      </trkpt>
      <trkpt lat="43.75766" lon="3.53769">
        <ele>530.961</ele>
        <time>2013-03-09T14:27:50Z</time>
      </trkpt>
      <trkpt lat="43.75765" lon="3.53767">
        <ele>530.643</ele>
        <time>2013-03-09T14:28:21Z</time>
      </trkpt>
      <trkpt lat="43.75766" lon="3.53765">
        <ele>531.435</ele>
        <time>2013-03-09T14:28:50Z</time>
      </trkpt>
      <trkpt lat="43.75765" lon="3.53767">
        <ele>530.774</ele>
        <time>2013-03-09T14:29:30Z</time>
      </trkpt>
      <trkpt lat="43.75763" lon="3.53766">
        <ele>532.051</ele>
        <time>2013-03-09T14:30:01Z</time>
      </trkpt>
      <trkpt lat="43.75763" lon="3.53766">
        <ele>526.582</ele>
        <time>2013-03-09T14:30:06Z</time>
      </trkpt>
      <trkpt lat="43.75763" lon="3.53766">
        <ele>530.67</ele>
        <time>2013-03-09T14:30:07Z</time>
      </trkpt>
      <trkpt lat="43.75764" lon="3.53766">
        <ele>531.654</ele>
        <time>2013-03-09T14:30:09Z</time>
      </trkpt>
      <trkpt lat="43.75764" lon="3.53767">
        <ele>532.964</ele>
        <time>2013-03-09T14:30:12Z</time>
      </trkpt>
      <trkpt lat="43.75764" lon="3.53767">
        <ele>529.854</ele>
        <time>2013-03-09T14:30:18Z</time>
      </trkpt>
      <trkpt lat="43.75764" lon="3.53767">
        <ele>531.159</ele>
        <time>2013-03-09T14:30:19Z</time>
      </trkpt>
      <trkpt lat="43.75764" lon="3.53767">
        <ele>533.107</ele>
        <time>2013-03-09T14:30:21Z</time>
      </trkpt>
      <trkpt lat="43.75763" lon="3.53767">
        <ele>532.428</ele>
        <time>2013-03-09T14:30:23Z</time>
      </trkpt>
      <trkpt lat="43.75765" lon="3.53768">
        <ele>533.846</ele>
        <time>2013-03-09T14:30:57Z</time>
      </trkpt>
      <trkpt lat="43.75752" lon="3.53787">
        <ele>532.02</ele>
        <time>2013-03-09T14:31:23Z</time>
      </trkpt>
      <trkpt lat="43.75769" lon="3.53761">
        <ele>532.072</ele>
        <time>2013-03-09T14:31:38Z</time>
      </trkpt>
      <trkpt lat="43.7577" lon="3.5376">
        <ele>533.083</ele>
        <time>2013-03-09T14:31:47Z</time>
      </trkpt>
      <trkpt lat="43.75776" lon="3.53747">
        <ele>532.337</ele>
        <time>2013-03-09T14:31:58Z</time>
      </trkpt>
      <trkpt lat="43.75775" lon="3.53736">
        <ele>530.759</ele>
        <time>2013-03-09T14:32:08Z</time>
      </trkpt>
      <trkpt lat="43.75773" lon="3.53725">
        <ele>528.843</ele>
        <time>2013-03-09T14:32:14Z</time>
      </trkpt>
      <trkpt lat="43.75773" lon="3.53724">
        <ele>529.055</ele>
        <time>2013-03-09T14:32:15Z</time>
      </trkpt>
      <trkpt lat="43.75777" lon="3.53714">
        <ele>527.306</ele>
        <time>2013-03-09T14:32:26Z</time>
      </trkpt>
      <trkpt lat="43.7578" lon="3.53707">
        <ele>526.566</ele>
        <time>2013-03-09T14:32:34Z</time>
      </trkpt>
      <trkpt lat="43.75779" lon="3.53705">
        <ele>526.408</ele>
        <time>2013-03-09T14:32:36Z</time>
      </trkpt>
      <trkpt lat="43.75775" lon="3.53689">
        <ele>522.538</ele>
        <time>2013-03-09T14:32:46Z</time>
      </trkpt>
      <trkpt lat="43.75778" lon="3.53688">
        <ele>520.938</ele>
        <time>2013-03-09T14:32:55Z</time>
      </trkpt>
      <trkpt lat="43.75783" lon="3.53694">
        <ele>518.435</ele>
        <time>2013-03-09T14:33:08Z</time>
      </trkpt>
      <trkpt lat="43.75782" lon="3.53686">
        <ele>518.071</ele>
        <time>2013-03-09T14:33:14Z</time>
      </trkpt>
      <trkpt lat="43.75784" lon="3.53669">
        <ele>516.794</ele>
        <time>2013-03-09T14:33:26Z</time>
      </trkpt>
      <trkpt lat="43.7578" lon="3.53658">
        <ele>515.73</ele>
        <time>2013-03-09T14:33:38Z</time>
      </trkpt>
      <trkpt lat="43.75786" lon="3.53661">
        <ele>513.697</ele>
        <time>2013-03-09T14:33:52Z</time>
      </trkpt>
      <trkpt lat="43.75789" lon="3.53663">
        <ele>513.992</ele>
        <time>2013-03-09T14:33:55Z</time>
      </trkpt>
      <trkpt lat="43.7579" lon="3.53671">
        <ele>511.396</ele>
        <time>2013-03-09T14:34:01Z</time>
      </trkpt>
      <trkpt lat="43.75795" lon="3.53676">
        <ele>509.129</ele>
        <time>2013-03-09T14:34:08Z</time>
      </trkpt>
      <trkpt lat="43.75795" lon="3.53685">
        <ele>509.449</ele>
        <time>2013-03-09T14:34:16Z</time>
      </trkpt>
      <trkpt lat="43.75795" lon="3.53699">
        <ele>509.337</ele>
        <time>2013-03-09T14:34:22Z</time>
      </trkpt>
      <trkpt lat="43.75798" lon="3.53723">
        <ele>509.261</ele>
        <time>2013-03-09T14:34:34Z</time>
      </trkpt>
      <trkpt lat="43.75812" lon="3.53731">
        <ele>508.208</ele>
        <time>2013-03-09T14:34:45Z</time>
      </trkpt>
      <trkpt lat="43.7582" lon="3.53731">
        <ele>504.022</ele>
        <time>2013-03-09T14:34:53Z</time>
      </trkpt>
      <trkpt lat="43.7582" lon="3.53729">
        <ele>507.062</ele>
        <time>2013-03-09T14:34:54Z</time>
      </trkpt>
      <trkpt lat="43.75825" lon="3.53722">
        <ele>504.847</ele>
        <time>2013-03-09T14:35:00Z</time>
      </trkpt>
      <trkpt lat="43.75832" lon="3.53715">
        <ele>502.851</ele>
        <time>2013-03-09T14:35:11Z</time>
      </trkpt>
      <trkpt lat="43.75834" lon="3.53712">
        <ele>501.953</ele>
        <time>2013-03-09T14:35:14Z</time>
      </trkpt>
      <trkpt lat="43.75841" lon="3.53707">
        <ele>502.22</ele>
        <time>2013-03-09T14:35:22Z</time>
      </trkpt>
      <trkpt lat="43.75849" lon="3.5371">
        <ele>499.542</ele>
        <time>2013-03-09T14:35:31Z</time>
      </trkpt>
      <trkpt lat="43.75854" lon="3.53705">
        <ele>497.86</ele>
        <time>2013-03-09T14:35:40Z</time>
      </trkpt>
      <trkpt lat="43.75863" lon="3.5371">
        <ele>498.444</ele>
        <time>2013-03-09T14:35:50Z</time>
      </trkpt>
      <trkpt lat="43.75868" lon="3.53713">
        <ele>498.536</ele>
        <time>2013-03-09T14:35:54Z</time>
      </trkpt>
      <trkpt lat="43.75881" lon="3.53702">
        <ele>498.092</ele>
        <time>2013-03-09T14:36:05Z</time>
      </trkpt>
      <trkpt lat="43.75893" lon="3.53697">
        <ele>498.093</ele>
        <time>2013-03-09T14:36:17Z</time>
      </trkpt>
      <trkpt lat="43.75902" lon="3.53693">
        <ele>496.701</ele>
        <time>2013-03-09T14:36:26Z</time>
      </trkpt>
      <trkpt lat="43.75909" lon="3.53691">
        <ele>497.066</ele>
        <time>2013-03-09T14:36:32Z</time>
      </trkpt>
      <trkpt lat="43.75926" lon="3.53677">
        <ele>499.223</ele>
        <time>2013-03-09T14:36:46Z</time>
      </trkpt>
      <trkpt lat="43.75941" lon="3.53664">
        <ele>500.736</ele>
        <time>2013-03-09T14:36:58Z</time>
      </trkpt>
      <trkpt lat="43.75957" lon="3.53651">
        <ele>502.727</ele>
        <time>2013-03-09T14:37:13Z</time>
      </trkpt>
      <trkpt lat="43.75971" lon="3.53638">
        <ele>502.671</ele>
        <time>2013-03-09T14:37:25Z</time>
      </trkpt>
      <trkpt lat="43.75976" lon="3.53634">
        <ele>502.941</ele>
        <time>2013-03-09T14:37:31Z</time>
      </trkpt>
      <trkpt lat="43.75989" lon="3.53616">
        <ele>504.29</ele>
        <time>2013-03-09T14:37:45Z</time>
      </trkpt>
      <trkpt lat="43.76" lon="3.53597">
        <ele>505.464</ele>
        <time>2013-03-09T14:38:00Z</time>
      </trkpt>
      <trkpt lat="43.76007" lon="3.53576">
        <ele>508.384</ele>
        <time>2013-03-09T14:38:13Z</time>
      </trkpt>
      <trkpt lat="43.76011" lon="3.53567">
        <ele>509.246</ele>
        <time>2013-03-09T14:38:18Z</time>
      </trkpt>
      <trkpt lat="43.76018" lon="3.53551">
        <ele>510.349</ele>
        <time>2013-03-09T14:38:29Z</time>
      </trkpt>
      <trkpt lat="43.76023" lon="3.53548">
        <ele>510.207</ele>
        <time>2013-03-09T14:38:33Z</time>
      </trkpt>
      <trkpt lat="43.76025" lon="3.53547">
        <ele>510.542</ele>
        <time>2013-03-09T14:38:35Z</time>
      </trkpt>
      <trkpt lat="43.76038" lon="3.53539">
        <ele>511.443</ele>
        <time>2013-03-09T14:38:48Z</time>
      </trkpt>
      <trkpt lat="43.76049" lon="3.53529">
        <ele>510.249</ele>
        <time>2013-03-09T14:39:00Z</time>
      </trkpt>
      <trkpt lat="43.76055" lon="3.53522">
        <ele>509.811</ele>
        <time>2013-03-09T14:39:05Z</time>
      </trkpt>
      <trkpt lat="43.76062" lon="3.53514">
        <ele>508.889</ele>
        <time>2013-03-09T14:39:13Z</time>
      </trkpt>
      <trkpt lat="43.76069" lon="3.53503">
        <ele>506.184</ele>
        <time>2013-03-09T14:39:22Z</time>
      </trkpt>
      <trkpt lat="43.7607" lon="3.53498">
        <ele>505.368</ele>
        <time>2013-03-09T14:39:27Z</time>
      </trkpt>
      <trkpt lat="43.76079" lon="3.53489">
        <ele>505.429</ele>
        <time>2013-03-09T14:39:34Z</time>
      </trkpt>
      <trkpt lat="43.76092" lon="3.53476">
        <ele>505.066</ele>
        <time>2013-03-09T14:39:46Z</time>
      </trkpt>
      <trkpt lat="43.76103" lon="3.53464">
        <ele>502.111</ele>
        <time>2013-03-09T14:39:57Z</time>
      </trkpt>
      <trkpt lat="43.76107" lon="3.53459">
        <ele>501.752</ele>
        <time>2013-03-09T14:40:02Z</time>
      </trkpt>
      <trkpt lat="43.76113" lon="3.53456">
        <ele>500.337</ele>
        <time>2013-03-09T14:40:08Z</time>
      </trkpt>
      <trkpt lat="43.76125" lon="3.5345">
        <ele>499.932</ele>
        <time>2013-03-09T14:40:16Z</time>
      </trkpt>
      <trkpt lat="43.76137" lon="3.53443">
        <ele>498.911</ele>
        <time>2013-03-09T14:40:27Z</time>
      </trkpt>
      <trkpt lat="43.76151" lon="3.53433">
        <ele>496.259</ele>
        <time>2013-03-09T14:40:39Z</time>
      </trkpt>
      <trkpt lat="43.76166" lon="3.53427">
        <ele>494.298</ele>
        <time>2013-03-09T14:40:52Z</time>
      </trkpt>
      <trkpt lat="43.7619" lon="3.53426">
        <ele>493.473</ele>
        <time>2013-03-09T14:41:10Z</time>
      </trkpt>
      <trkpt lat="43.76207" lon="3.53427">
        <ele>492.072</ele>
        <time>2013-03-09T14:41:23Z</time>
      </trkpt>
      <trkpt lat="43.76211" lon="3.53427">
        <ele>490.715</ele>
        <time>2013-03-09T14:41:26Z</time>
      </trkpt>
      <trkpt lat="43.76214" lon="3.53426">
        <ele>492.201</ele>
        <time>2013-03-09T14:41:28Z</time>
      </trkpt>
      <trkpt lat="43.76217" lon="3.53426">
        <ele>490.764</ele>
        <time>2013-03-09T14:41:30Z</time>
      </trkpt>
      <trkpt lat="43.76222" lon="3.53425">
        <ele>488.576</ele>
        <time>2013-03-09T14:41:33Z</time>
      </trkpt>
      <trkpt lat="43.76238" lon="3.53426">
        <ele>486.933</ele>
        <time>2013-03-09T14:41:46Z</time>
      </trkpt>
      <trkpt lat="43.76243" lon="3.5343">
        <ele>485.317</ele>
        <time>2013-03-09T14:41:51Z</time>
      </trkpt>
      <trkpt lat="43.76251" lon="3.53433">
        <ele>484.495</ele>
        <time>2013-03-09T14:41:57Z</time>
      </trkpt>
      <trkpt lat="43.76264" lon="3.53458">
        <ele>481.877</ele>
        <time>2013-03-09T14:42:16Z</time>
      </trkpt>
      <trkpt lat="43.76271" lon="3.53488">
        <ele>478.452</ele>
        <time>2013-03-09T14:42:33Z</time>
      </trkpt>
      <trkpt lat="43.76277" lon="3.53514">
        <ele>477.633</ele>
        <time>2013-03-09T14:42:49Z</time>
      </trkpt>
      <trkpt lat="43.76276" lon="3.53542">
        <ele>476.612</ele>
        <time>2013-03-09T14:43:05Z</time>
      </trkpt>
      <trkpt lat="43.76271" lon="3.5355">
        <ele>476.66</ele>
        <time>2013-03-09T14:43:10Z</time>
      </trkpt>
      <trkpt lat="43.76267" lon="3.53553">
        <ele>475.222</ele>
        <time>2013-03-09T14:43:13Z</time>
      </trkpt>
      <trkpt lat="43.7626" lon="3.5356">
        <ele>475.017</ele>
        <time>2013-03-09T14:43:21Z</time>
      </trkpt>
      <trkpt lat="43.76259" lon="3.53566">
        <ele>475.112</ele>
        <time>2013-03-09T14:43:24Z</time>
      </trkpt>
      <trkpt lat="43.76261" lon="3.53569">
        <ele>473.537</ele>
        <time>2013-03-09T14:43:27Z</time>
      </trkpt>
      <trkpt lat="43.76277" lon="3.53571">
        <ele>472.119</ele>
        <time>2013-03-09T14:43:39Z</time>
      </trkpt>
      <trkpt lat="43.76281" lon="3.53571">
        <ele>471.901</ele>
        <time>2013-03-09T14:43:42Z</time>
      </trkpt>
      <trkpt lat="43.76283" lon="3.53571">
        <ele>470.254</ele>
        <time>2013-03-09T14:43:44Z</time>
      </trkpt>
      <trkpt lat="43.76291" lon="3.53563">
        <ele>468.269</ele>
        <time>2013-03-09T14:43:51Z</time>
      </trkpt>
      <trkpt lat="43.76296" lon="3.53557">
        <ele>467.478</ele>
        <time>2013-03-09T14:43:55Z</time>
      </trkpt>
      <trkpt lat="43.76304" lon="3.53548">
        <ele>467.054</ele>
        <time>2013-03-09T14:44:03Z</time>
      </trkpt>
      <trkpt lat="43.76319" lon="3.5353">
        <ele>465.772</ele>
        <time>2013-03-09T14:44:15Z</time>
      </trkpt>
      <trkpt lat="43.76325" lon="3.53528">
        <ele>465.95</ele>
        <time>2013-03-09T14:44:21Z</time>
      </trkpt>
      <trkpt lat="43.76331" lon="3.53522">
        <ele>466.508</ele>
        <time>2013-03-09T14:44:26Z</time>
      </trkpt>
      <trkpt lat="43.76339" lon="3.53519">
        <ele>464.814</ele>
        <time>2013-03-09T14:44:33Z</time>
      </trkpt>
      <trkpt lat="43.76346" lon="3.53512">
        <ele>463.423</ele>
        <time>2013-03-09T14:44:44Z</time>
      </trkpt>
      <trkpt lat="43.76348" lon="3.53513">
        <ele>462.786</ele>
        <time>2013-03-09T14:44:46Z</time>
      </trkpt>
      <trkpt lat="43.76353" lon="3.53511">
        <ele>462.729</ele>
        <time>2013-03-09T14:44:49Z</time>
      </trkpt>
      <trkpt lat="43.76356" lon="3.53511">
        <ele>463.058</ele>
        <time>2013-03-09T14:44:51Z</time>
      </trkpt>
      <trkpt lat="43.76365" lon="3.5351">
        <ele>462.88</ele>
        <time>2013-03-09T14:44:59Z</time>
      </trkpt>
      <trkpt lat="43.76371" lon="3.53512">
        <ele>463.315</ele>
        <time>2013-03-09T14:45:03Z</time>
      </trkpt>
      <trkpt lat="43.76391" lon="3.53508">
        <ele>463.061</ele>
        <time>2013-03-09T14:45:18Z</time>
      </trkpt>
      <trkpt lat="43.76398" lon="3.53507">
        <ele>462.518</ele>
        <time>2013-03-09T14:45:22Z</time>
      </trkpt>
      <trkpt lat="43.76401" lon="3.53508">
        <ele>463.264</ele>
        <time>2013-03-09T14:45:25Z</time>
      </trkpt>
      <trkpt lat="43.76409" lon="3.53507">
        <ele>462.77</ele>
        <time>2013-03-09T14:45:30Z</time>
      </trkpt>
      <trkpt lat="43.7642" lon="3.53497">
        <ele>462.511</ele>
        <time>2013-03-09T14:45:39Z</time>
      </trkpt>
      <trkpt lat="43.76433" lon="3.53489">
        <ele>463.106</ele>
        <time>2013-03-09T14:45:48Z</time>
      </trkpt>
      <trkpt lat="43.76435" lon="3.53484">
        <ele>462.947</ele>
        <time>2013-03-09T14:45:51Z</time>
      </trkpt>
      <trkpt lat="43.76441" lon="3.53477">
        <ele>462.985</ele>
        <time>2013-03-09T14:45:57Z</time>
      </trkpt>
      <trkpt lat="43.76443" lon="3.53474">
        <ele>462.831</ele>
        <time>2013-03-09T14:45:59Z</time>
      </trkpt>
      <trkpt lat="43.76446" lon="3.53467">
        <ele>463.464</ele>
        <time>2013-03-09T14:46:03Z</time>
      </trkpt>
      <trkpt lat="43.76447" lon="3.53459">
        <ele>462.831</ele>
        <time>2013-03-09T14:46:07Z</time>
      </trkpt>
      <trkpt lat="43.76451" lon="3.53453">
        <ele>464.156</ele>
        <time>2013-03-09T14:46:11Z</time>
      </trkpt>
      <trkpt lat="43.76453" lon="3.5345">
        <ele>463.404</ele>
        <time>2013-03-09T14:46:13Z</time>
      </trkpt>
      <trkpt lat="43.76455" lon="3.53446">
        <ele>463.793</ele>
        <time>2013-03-09T14:46:16Z</time>
      </trkpt>
      <trkpt lat="43.76457" lon="3.53444">
        <ele>464.107</ele>
        <time>2013-03-09T14:46:18Z</time>
      </trkpt>
      <trkpt lat="43.76466" lon="3.53423">
        <ele>464.032</ele>
        <time>2013-03-09T14:46:30Z</time>
      </trkpt>
      <trkpt lat="43.76469" lon="3.53413">
        <ele>464.634</ele>
        <time>2013-03-09T14:46:36Z</time>
      </trkpt>
      <trkpt lat="43.76472" lon="3.53395">
        <ele>465.074</ele>
        <time>2013-03-09T14:46:49Z</time>
      </trkpt>
      <trkpt lat="43.7647" lon="3.53394">
        <ele>465.837</ele>
        <time>2013-03-09T14:47:18Z</time>
      </trkpt>
      <trkpt lat="43.76472" lon="3.53392">
        <ele>465.478</ele>
        <time>2013-03-09T14:47:32Z</time>
      </trkpt>
      <trkpt lat="43.76489" lon="3.53384">
        <ele>466.717</ele>
        <time>2013-03-09T14:47:48Z</time>
      </trkpt>
      <trkpt lat="43.76505" lon="3.53384">
        <ele>465.693</ele>
        <time>2013-03-09T14:48:02Z</time>
      </trkpt>
      <trkpt lat="43.76507" lon="3.53383">
        <ele>466.381</ele>
        <time>2013-03-09T14:48:04Z</time>
      </trkpt>
      <trkpt lat="43.7651" lon="3.5338">
        <ele>465.818</ele>
        <time>2013-03-09T14:48:06Z</time>
      </trkpt>
      <trkpt lat="43.76523" lon="3.53371">
        <ele>466.142</ele>
        <time>2013-03-09T14:48:16Z</time>
      </trkpt>
      <trkpt lat="43.76534" lon="3.53363">
        <ele>467.988</ele>
        <time>2013-03-09T14:48:26Z</time>
      </trkpt>
      <trkpt lat="43.76544" lon="3.53357">
        <ele>467.753</ele>
        <time>2013-03-09T14:48:36Z</time>
      </trkpt>
      <trkpt lat="43.76546" lon="3.53356">
        <ele>468.226</ele>
        <time>2013-03-09T14:48:37Z</time>
      </trkpt>
      <trkpt lat="43.7655" lon="3.53354">
        <ele>467.829</ele>
        <time>2013-03-09T14:48:41Z</time>
      </trkpt>
      <trkpt lat="43.76565" lon="3.53348">
        <ele>468.256</ele>
        <time>2013-03-09T14:48:54Z</time>
      </trkpt>
      <trkpt lat="43.76578" lon="3.53338">
        <ele>468.175</ele>
        <time>2013-03-09T14:49:06Z</time>
      </trkpt>
      <trkpt lat="43.766" lon="3.53325">
        <ele>467.504</ele>
        <time>2013-03-09T14:49:23Z</time>
      </trkpt>
      <trkpt lat="43.76602" lon="3.53322">
        <ele>467.624</ele>
        <time>2013-03-09T14:49:26Z</time>
      </trkpt>
      <trkpt lat="43.76605" lon="3.53318">
        <ele>468.101</ele>
        <time>2013-03-09T14:49:29Z</time>
      </trkpt>
      <trkpt lat="43.76617" lon="3.5331">
        <ele>467.558</ele>
        <time>2013-03-09T14:49:37Z</time>
      </trkpt>
      <trkpt lat="43.76621" lon="3.53305">
        <ele>467.288</ele>
        <time>2013-03-09T14:49:41Z</time>
      </trkpt>
      <trkpt lat="43.76627" lon="3.53301">
        <ele>468.042</ele>
        <time>2013-03-09T14:49:46Z</time>
      </trkpt>
      <trkpt lat="43.76635" lon="3.53294">
        <ele>467.847</ele>
        <time>2013-03-09T14:49:53Z</time>
      </trkpt>
      <trkpt lat="43.7665" lon="3.5328">
        <ele>468.336</ele>
        <time>2013-03-09T14:50:08Z</time>
      </trkpt>
      <trkpt lat="43.76652" lon="3.53277">
        <ele>468.092</ele>
        <time>2013-03-09T14:50:11Z</time>
      </trkpt>
      <trkpt lat="43.76661" lon="3.53268">
        <ele>469.375</ele>
        <time>2013-03-09T14:50:20Z</time>
      </trkpt>
      <trkpt lat="43.76673" lon="3.53256">
        <ele>470.466</ele>
        <time>2013-03-09T14:50:32Z</time>
      </trkpt>
      <trkpt lat="43.76677" lon="3.53252">
        <ele>472.604</ele>
        <time>2013-03-09T14:50:36Z</time>
      </trkpt>
      <trkpt lat="43.76687" lon="3.5324">
        <ele>474.037</ele>
        <time>2013-03-09T14:50:47Z</time>
      </trkpt>
      <trkpt lat="43.76697" lon="3.5323">
        <ele>474.147</ele>
        <time>2013-03-09T14:50:58Z</time>
      </trkpt>
      <trkpt lat="43.76704" lon="3.53223">
        <ele>475.223</ele>
        <time>2013-03-09T14:51:05Z</time>
      </trkpt>
      <trkpt lat="43.76709" lon="3.53217">
        <ele>474.853</ele>
        <time>2013-03-09T14:51:11Z</time>
      </trkpt>
      <trkpt lat="43.76712" lon="3.53211">
        <ele>474.341</ele>
        <time>2013-03-09T14:51:15Z</time>
      </trkpt>
      <trkpt lat="43.76725" lon="3.53202">
        <ele>475.263</ele>
        <time>2013-03-09T14:51:27Z</time>
      </trkpt>
      <trkpt lat="43.76738" lon="3.53201">
        <ele>474.998</ele>
        <time>2013-03-09T14:51:40Z</time>
      </trkpt>
      <trkpt lat="43.76751" lon="3.53201">
        <ele>476.48</ele>
        <time>2013-03-09T14:51:52Z</time>
      </trkpt>
      <trkpt lat="43.76761" lon="3.53206">
        <ele>477.431</ele>
        <time>2013-03-09T14:52:01Z</time>
      </trkpt>
      <trkpt lat="43.76766" lon="3.53211">
        <ele>477.297</ele>
        <time>2013-03-09T14:52:07Z</time>
      </trkpt>
      <trkpt lat="43.76783" lon="3.53215">
        <ele>476.441</ele>
        <time>2013-03-09T14:52:21Z</time>
      </trkpt>
      <trkpt lat="43.76798" lon="3.53219">
        <ele>477.467</ele>
        <time>2013-03-09T14:52:34Z</time>
      </trkpt>
      <trkpt lat="43.76805" lon="3.53215">
        <ele>475.93</ele>
        <time>2013-03-09T14:52:40Z</time>
      </trkpt>
      <trkpt lat="43.76808" lon="3.53214">
        <ele>476.095</ele>
        <time>2013-03-09T14:52:43Z</time>
      </trkpt>
      <trkpt lat="43.76813" lon="3.53194">
        <ele>476.574</ele>
        <time>2013-03-09T14:52:55Z</time>
      </trkpt>
      <trkpt lat="43.76817" lon="3.53178">
        <ele>477.021</ele>
        <time>2013-03-09T14:53:07Z</time>
      </trkpt>
      <trkpt lat="43.76824" lon="3.53172">
        <ele>477.841</ele>
        <time>2013-03-09T14:53:14Z</time>
      </trkpt>
      <trkpt lat="43.7683" lon="3.5317">
        <ele>477.967</ele>
        <time>2013-03-09T14:53:19Z</time>
      </trkpt>
      <trkpt lat="43.76838" lon="3.53166">
        <ele>478.582</ele>
        <time>2013-03-09T14:53:27Z</time>
      </trkpt>
      <trkpt lat="43.76849" lon="3.53169">
        <ele>479.498</ele>
        <time>2013-03-09T14:53:38Z</time>
      </trkpt>
      <trkpt lat="43.76865" lon="3.53156">
        <ele>480.415</ele>
        <time>2013-03-09T14:53:51Z</time>
      </trkpt>
      <trkpt lat="43.76868" lon="3.53153">
        <ele>481.08</ele>
        <time>2013-03-09T14:53:54Z</time>
      </trkpt>
      <trkpt lat="43.76874" lon="3.5315">
        <ele>480.765</ele>
        <time>2013-03-09T14:53:59Z</time>
      </trkpt>
      <trkpt lat="43.76876" lon="3.53147">
        <ele>480.83</ele>
        <time>2013-03-09T14:54:02Z</time>
      </trkpt>
      <trkpt lat="43.76883" lon="3.53143">
        <ele>481.746</ele>
        <time>2013-03-09T14:54:08Z</time>
      </trkpt>
      <trkpt lat="43.76895" lon="3.53134">
        <ele>482.67</ele>
        <time>2013-03-09T14:54:19Z</time>
      </trkpt>
      <trkpt lat="43.7691" lon="3.53122">
        <ele>483.328</ele>
        <time>2013-03-09T14:54:31Z</time>
      </trkpt>
      <trkpt lat="43.76914" lon="3.53122">
        <ele>483.055</ele>
        <time>2013-03-09T14:54:35Z</time>
      </trkpt>
      <trkpt lat="43.76918" lon="3.53123">
        <ele>482.592</ele>
        <time>2013-03-09T14:54:38Z</time>
      </trkpt>
      <trkpt lat="43.76931" lon="3.53122">
        <ele>482.885</ele>
        <time>2013-03-09T14:54:49Z</time>
      </trkpt>
      <trkpt lat="43.76936" lon="3.53121">
        <ele>483.214</ele>
        <time>2013-03-09T14:54:53Z</time>
      </trkpt>
      <trkpt lat="43.76939" lon="3.53119">
        <ele>483.486</ele>
        <time>2013-03-09T14:54:56Z</time>
      </trkpt>
      <trkpt lat="43.76947" lon="3.53116">
        <ele>484.076</ele>
        <time>2013-03-09T14:55:03Z</time>
      </trkpt>
      <trkpt lat="43.76954" lon="3.53111">
        <ele>484.776</ele>
        <time>2013-03-09T14:55:09Z</time>
      </trkpt>
      <trkpt lat="43.76957" lon="3.53105">
        <ele>484.72</ele>
        <time>2013-03-09T14:55:13Z</time>
      </trkpt>
      <trkpt lat="43.76958" lon="3.53099">
        <ele>485.871</ele>
        <time>2013-03-09T14:55:16Z</time>
      </trkpt>
      <trkpt lat="43.7696" lon="3.53078">
        <ele>487.045</ele>
        <time>2013-03-09T14:55:28Z</time>
      </trkpt>
      <trkpt lat="43.76964" lon="3.53069">
        <ele>487.877</ele>
        <time>2013-03-09T14:55:34Z</time>
      </trkpt>
      <trkpt lat="43.76965" lon="3.53067">
        <ele>489.807</ele>
        <time>2013-03-09T14:55:36Z</time>
      </trkpt>
      <trkpt lat="43.76971" lon="3.53068">
        <ele>489.89</ele>
        <time>2013-03-09T14:55:42Z</time>
      </trkpt>
      <trkpt lat="43.76982" lon="3.5308">
        <ele>490.045</ele>
        <time>2013-03-09T14:55:55Z</time>
      </trkpt>
      <trkpt lat="43.76987" lon="3.53085">
        <ele>489.667</ele>
        <time>2013-03-09T14:55:59Z</time>
      </trkpt>
      <trkpt lat="43.76992" lon="3.53089">
        <ele>489.971</ele>
        <time>2013-03-09T14:56:03Z</time>
      </trkpt>
      <trkpt lat="43.76996" lon="3.53094">
        <ele>488.66</ele>
        <time>2013-03-09T14:56:07Z</time>
      </trkpt>
      <trkpt lat="43.77" lon="3.53099">
        <ele>488.452</ele>
        <time>2013-03-09T14:56:11Z</time>
      </trkpt>
      <trkpt lat="43.77015" lon="3.53112">
        <ele>489.221</ele>
        <time>2013-03-09T14:56:26Z</time>
      </trkpt>
      <trkpt lat="43.77017" lon="3.53113">
        <ele>488.554</ele>
        <time>2013-03-09T14:56:28Z</time>
      </trkpt>
      <trkpt lat="43.77026" lon="3.53128">
        <ele>489.978</ele>
        <time>2013-03-09T14:56:39Z</time>
      </trkpt>
      <trkpt lat="43.77033" lon="3.53148">
        <ele>489.785</ele>
        <time>2013-03-09T14:56:52Z</time>
      </trkpt>
      <trkpt lat="43.77039" lon="3.53154">
        <ele>490.319</ele>
        <time>2013-03-09T14:56:58Z</time>
      </trkpt>
      <trkpt lat="43.77055" lon="3.53145">
        <ele>490.602</ele>
        <time>2013-03-09T14:57:13Z</time>
      </trkpt>
      <trkpt lat="43.77058" lon="3.53144">
        <ele>491.138</ele>
        <time>2013-03-09T14:57:16Z</time>
      </trkpt>
      <trkpt lat="43.77061" lon="3.53145">
        <ele>490.985</ele>
        <time>2013-03-09T14:57:18Z</time>
      </trkpt>
      <trkpt lat="43.77072" lon="3.53145">
        <ele>492.149</ele>
        <time>2013-03-09T14:57:27Z</time>
      </trkpt>
      <trkpt lat="43.77082" lon="3.5314">
        <ele>492.841</ele>
        <time>2013-03-09T14:57:35Z</time>
      </trkpt>
      <trkpt lat="43.77094" lon="3.53139">
        <ele>494.241</ele>
        <time>2013-03-09T14:57:45Z</time>
      </trkpt>
      <trkpt lat="43.77109" lon="3.53143">
        <ele>494.912</ele>
        <time>2013-03-09T14:57:56Z</time>
      </trkpt>
      <trkpt lat="43.77117" lon="3.53145">
        <ele>496.897</ele>
        <time>2013-03-09T14:58:02Z</time>
      </trkpt>
      <trkpt lat="43.77127" lon="3.53149">
        <ele>497.431</ele>
        <time>2013-03-09T14:58:09Z</time>
      </trkpt>
      <trkpt lat="43.77132" lon="3.53153">
        <ele>497.177</ele>
        <time>2013-03-09T14:58:14Z</time>
      </trkpt>
      <trkpt lat="43.77141" lon="3.53154">
        <ele>499.258</ele>
        <time>2013-03-09T14:58:21Z</time>
      </trkpt>
      <trkpt lat="43.77145" lon="3.53155">
        <ele>500.024</ele>
        <time>2013-03-09T14:58:24Z</time>
      </trkpt>
      <trkpt lat="43.77155" lon="3.53167">
        <ele>500.51</ele>
        <time>2013-03-09T14:58:34Z</time>
      </trkpt>
      <trkpt lat="43.77155" lon="3.53169">
        <ele>500.925</ele>
        <time>2013-03-09T14:58:36Z</time>
      </trkpt>
      <trkpt lat="43.77159" lon="3.53175">
        <ele>500.789</ele>
        <time>2013-03-09T14:58:40Z</time>
      </trkpt>
      <trkpt lat="43.77166" lon="3.53188">
        <ele>502.714</ele>
        <time>2013-03-09T14:58:49Z</time>
      </trkpt>
      <trkpt lat="43.77171" lon="3.53192">
        <ele>503.22</ele>
        <time>2013-03-09T14:58:54Z</time>
      </trkpt>
      <trkpt lat="43.77173" lon="3.53194">
        <ele>503.656</ele>
        <time>2013-03-09T14:58:56Z</time>
      </trkpt>
      <trkpt lat="43.7718" lon="3.53192">
        <ele>504.095</ele>
        <time>2013-03-09T14:59:01Z</time>
      </trkpt>
      <trkpt lat="43.77198" lon="3.53187">
        <ele>506.621</ele>
        <time>2013-03-09T14:59:14Z</time>
      </trkpt>
      <trkpt lat="43.772" lon="3.53187">
        <ele>506.836</ele>
        <time>2013-03-09T14:59:15Z</time>
      </trkpt>
      <trkpt lat="43.77204" lon="3.53189">
        <ele>508.023</ele>
        <time>2013-03-09T14:59:19Z</time>
      </trkpt>
      <trkpt lat="43.77211" lon="3.53198">
        <ele>507.804</ele>
        <time>2013-03-09T14:59:26Z</time>
      </trkpt>
      <trkpt lat="43.77217" lon="3.53209">
        <ele>508.96</ele>
        <time>2013-03-09T14:59:33Z</time>
      </trkpt>
      <trkpt lat="43.77231" lon="3.53228">
        <ele>509.919</ele>
        <time>2013-03-09T14:59:47Z</time>
      </trkpt>
      <trkpt lat="43.77232" lon="3.5323">
        <ele>509.987</ele>
        <time>2013-03-09T14:59:48Z</time>
      </trkpt>
      <trkpt lat="43.77235" lon="3.53235">
        <ele>510.346</ele>
        <time>2013-03-09T14:59:52Z</time>
      </trkpt>
      <trkpt lat="43.77238" lon="3.53241">
        <ele>510.529</ele>
        <time>2013-03-09T14:59:56Z</time>
      </trkpt>
      <trkpt lat="43.77243" lon="3.53256">
        <ele>511.49</ele>
        <time>2013-03-09T15:00:06Z</time>
      </trkpt>
      <trkpt lat="43.77249" lon="3.53274">
        <ele>512.682</ele>
        <time>2013-03-09T15:00:18Z</time>
      </trkpt>
      <trkpt lat="43.77248" lon="3.53284">
        <ele>512.73</ele>
        <time>2013-03-09T15:00:29Z</time>
      </trkpt>
      <trkpt lat="43.77247" lon="3.5329">
        <ele>511.661</ele>
        <time>2013-03-09T15:00:35Z</time>
      </trkpt>
      <trkpt lat="43.77246" lon="3.53292">
        <ele>512.213</ele>
        <time>2013-03-09T15:00:37Z</time>
      </trkpt>
      <trkpt lat="43.77246" lon="3.533">
        <ele>513.638</ele>
        <time>2013-03-09T15:00:41Z</time>
      </trkpt>
      <trkpt lat="43.77245" lon="3.5331">
        <ele>512.971</ele>
        <time>2013-03-09T15:00:47Z</time>
      </trkpt>
      <trkpt lat="43.77249" lon="3.53329">
        <ele>513.403</ele>
        <time>2013-03-09T15:00:59Z</time>
      </trkpt>
      <trkpt lat="43.77251" lon="3.53334">
        <ele>512.972</ele>
        <time>2013-03-09T15:01:03Z</time>
      </trkpt>
      <trkpt lat="43.77258" lon="3.53341">
        <ele>512.503</ele>
        <time>2013-03-09T15:01:10Z</time>
      </trkpt>
      <trkpt lat="43.77262" lon="3.53346">
        <ele>511.998</ele>
        <time>2013-03-09T15:01:17Z</time>
      </trkpt>
      <trkpt lat="43.77267" lon="3.53365">
        <ele>510.96</ele>
        <time>2013-03-09T15:01:30Z</time>
      </trkpt>
      <trkpt lat="43.77269" lon="3.53394">
        <ele>509.46</ele>
        <time>2013-03-09T15:01:48Z</time>
      </trkpt>
      <trkpt lat="43.77272" lon="3.53423">
        <ele>509.474</ele>
        <time>2013-03-09T15:02:09Z</time>
      </trkpt>
      <trkpt lat="43.77274" lon="3.5343">
        <ele>509.19</ele>
        <time>2013-03-09T15:02:15Z</time>
      </trkpt>
      <trkpt lat="43.77275" lon="3.53437">
        <ele>507.603</ele>
        <time>2013-03-09T15:02:20Z</time>
      </trkpt>
      <trkpt lat="43.7728" lon="3.53459">
        <ele>509.347</ele>
        <time>2013-03-09T15:02:34Z</time>
      </trkpt>
      <trkpt lat="43.77281" lon="3.53463">
        <ele>509</ele>
        <time>2013-03-09T15:02:37Z</time>
      </trkpt>
      <trkpt lat="43.7729" lon="3.53478">
        <ele>508.906</ele>
        <time>2013-03-09T15:02:50Z</time>
      </trkpt>
      <trkpt lat="43.77306" lon="3.5349">
        <ele>509.201</ele>
        <time>2013-03-09T15:03:09Z</time>
      </trkpt>
      <trkpt lat="43.77306" lon="3.5349">
        <ele>510.192</ele>
        <time>2013-03-09T15:03:23Z</time>
      </trkpt>
    </trkseg>
  </trk>
</gpx>